GFSSGP_850_spd_000.txt.gz
Wind_Speed
2 2 3 2 6 6 5 7 3 6 3 8 8 7 15 14 8 6 3 8 6 5 3 4 4 3 1 3 5 8 9 8 7 12 14 14 13 13 12 15 15 13 15 12 11 12 12 13 12
2 2 3 4 7 8 8 6 4 4 6 0 5 7 11 15 12 9 2 9 7 6 5 3 4 3 2 2 4 4 6 13 10 20 17 13 12 18 22 19 14 14 14 12 12 14 13 13 12
2 3 6 3 4 6 2 3 6 6 4 5 5 9 5 7 10 5 7 7 8 4 5 5 5 5 6 6 6 6 6 8 12 16 14 9 8 10 13 17 19 16 15 13 13 13 15 16 17
2 3 3 6 6 7 5 7 6 2 5 3 9 11 10 5 5 6 7 7 8 5 5 4 6 5 4 4 4 3 4 4 8 13 16 13 9 9 14 17 18 14 14 14 12 11 13 15 17
1 3 4 6 10 8 7 9 6 4 5 6 1 9 11 12 12 7 6 8 7 6 6 4 7 6 6 7 8 6 5 5 6 8 9 11 11 15 18 18 15 15 17 16 17 15 13 17 15
4 4 8 9 12 8 10 11 7 11 8 7 12 12 8 6 9 7 6 7 8 6 5 4 4 5 6 6 5 6 7 7 8 10 11 10 9 11 15 17 17 14 14 15 14 13 14 12 10
3 5 11 11 10 10 8 6 12 7 7 9 2 3 8 4 8 7 5 4 4 4 4 3 2 1 1 4 5 5 7 9 10 10 11 12 11 12 13 13 14 15 13 13 13 12 12 10 9
4 7 11 5 6 10 7 6 4 10 7 2 3 3 7 4 5 3 4 5 3 1 1 1 3 5 6 6 5 5 5 7 9 10 10 12 13 13 11 11 13 13 13 16 17 18 16 15 17
1 5 8 7 4 6 7 3 6 3 4 3 2 3 6 9 7 5 4 1 1 3 4 5 7 8 8 8 6 5 4 4 6 7 10 12 15 16 13 14 12 10 13 16 18 19 17 17 17
2 6 7 4 3 4 4 5 3 4 5 5 7 8 10 10 7 6 5 3 3 3 4 7 9 11 9 8 6 4 2 1 3 4 6 9 13 19 22 21 13 10 12 16 17 19 17 16 14
6 9 3 4 3 6 5 1 2 4 5 4 9 12 11 11 10 8 7 5 4 4 5 5 3 2 5 7 6 3 6 7 6 7 9 10 10 14 22 20 32 50 26 24 9 17 12 16 16
9 6 3 5 5 2 3 3 3 5 3 4 10 12 12 12 10 9 7 5 3 4 4 4 4 3 0 1 1 2 3 2 5 9 11 9 10 10 13 15 19 19 29 42 31 27 18 12 17
6 4 4 3 2 5 1 2 3 5 5 7 9 11 11 11 10 8 7 6 5 3 3 3 2 0 2 2 2 1 3 5 7 8 9 10 9 9 9 8 6 10 11 18 19 20 18 17 23
5 4 4 4 5 2 8 7 4 5 8 11 12 13 13 12 10 8 6 5 3 4 4 4 3 4 4 3 3 1 2 4 5 7 7 8 8 7 7 9 9 9 9 10 15 21 13 23 20
2 3 4 4 5 3 12 9 8 4 10 12 15 15 14 13 12 10 7 6 6 6 6 5 4 4 3 2 1 0 1 3 5 7 8 8 8 9 7 7 9 10 12 11 16 20 18 21 23
2 3 3 5 9 1 8 9 5 7 10 13 16 18 18 18 16 12 11 8 9 8 8 7 7 6 5 5 4 3 1 2 5 6 8 9 9 10 9 8 9 11 12 13 12 15 18 21 18
4 5 6 6 4 8 4 15 5 7 14 18 18 18 20 19 18 16 14 12 12 11 11 11 10 8 8 7 7 6 4 2 3 5 6 9 9 9 10 11 12 13 13 14 12 13 16 18 21
7 6 6 9 6 9 17 21 18 15 16 22 20 20 20 21 21 18 16 15 14 15 14 12 11 10 10 8 6 4 3 2 3 4 4 8 6 10 11 10 13 11 10 12 14 13 13 15 17
4 6 12 8 4 13 14 22 21 20 14 14 14 14 16 20 17 17 17 18 17 17 16 15 13 12 9 6 5 4 3 3 1 0 9 6 3 5 7 8 8 10 9 10 11 12 13 12 15
8 14 11 4 4 13 16 23 15 5 6 6 5 4 6 10 14 17 19 19 22 20 19 14 13 13 12 9 8 9 8 6 5 4 4 3 6 6 7 9 10 11 12 12 12 13 13 13 13
10 10 12 16 22 10 13 7 4 5 4 3 3 3 4 3 7 12 17 21 22 23 20 18 15 15 15 16 12 9 9 9 7 7 6 9 9 9 10 11 12 12 13 13 15 14 15 17 14
9 5 11 17 15 7 9 6 5 3 7 5 6 6 9 8 8 8 10 16 21 22 22 21 19 18 18 21 15 15 12 12 12 12 11 13 13 14 14 14 15 15 16 17 18 18 19 19 20
5 13 16 12 9 9 6 5 2 3 3 4 5 6 7 10 10 11 10 12 16 20 22 24 22 21 20 20 20 15 14 14 13 13 15 13 16 19 20 16 15 18 19 21 21 22 22 23 25
10 13 11 4 2 4 4 4 3 2 4 6 5 9 9 10 11 15 17 14 13 18 24 26 26 23 22 22 23 22 20 17 16 13 12 12 11 13 14 14 16 18 19 22 24 25 27 28 29
11 10 4 3 3 6 4 9 9 6 4 6 9 10 9 12 14 16 15 13 14 18 24 27 27 24 22 26 27 25 23 17 14 11 11 13 11 12 15 17 20 22 23 24 26 27 29 31 33
4 5 3 5 5 11 14 7 0 3 6 8 7 7 9 12 17 18 16 15 16 19 22 24 24 26 24 28 26 23 20 13 10 15 16 17 16 20 23 27 30 30 30 30 30 31 32 33 35
2 2 3 5 1 5 5 8 16 7 4 4 7 10 11 17 18 18 16 18 18 21 25 27 27 25 25 25 23 21 19 17 16 17 18 17 20 21 23 31 33 33 31 31 29 29 31 31 34
4 2 3 3 5 6 7 16 10 6 9 9 13 13 14 21 22 22 21 22 22 24 23 25 30 29 27 25 22 18 17 16 16 18 21 23 26 27 30 31 28 26 27 28 28 30 31 32 34
6 4 4 4 4 4 7 7 6 12 16 13 13 16 22 27 26 27 25 23 23 23 25 27 28 26 23 20 17 15 13 15 18 20 21 23 26 28 26 25 25 27 28 27 28 30 31 31 33
8 7 5 3 5 7 6 17 20 18 10 8 17 27 28 28 28 26 27 28 22 22 22 23 20 18 16 13 12 12 15 16 18 18 22 24 24 25 25 25 26 28 28 28 29 30 31 32 33

GFSSGP_850_spd_003.txt.gz
Wind_Speed
1 6 5 6 7 7 14 8 8 5 9 10 7 15 20 23 16 6 7 10 10 6 5 5 4 6 4 3 2 2 3 2 4 5 6 9 10 12 10 7 9 14 11 12 11 11 11 11 12
2 4 6 12 9 8 5 14 7 10 10 2 5 5 14 16 17 15 6 9 9 8 9 1 6 7 5 5 4 2 4 6 6 9 7 9 12 13 19 17 23 29 18 14 12 10 10 10 11
2 6 14 5 9 7 11 6 10 4 2 5 4 12 8 10 15 8 8 9 8 6 6 1 6 7 4 4 5 3 5 8 7 6 6 5 7 14 20 21 20 17 15 18 15 12 13 13 13
3 7 7 9 3 12 11 8 0 6 5 1 6 9 8 6 7 8 8 8 6 3 5 3 6 7 7 5 3 2 1 2 4 7 8 7 8 7 6 7 10 11 15 20 14 14 15 16 14
4 8 4 6 7 6 9 5 1 2 9 3 5 11 8 8 8 8 7 6 7 4 3 4 6 7 5 4 3 1 1 1 0 1 2 5 9 11 9 9 9 11 15 21 12 12 12 12 13
11 9 7 7 9 10 10 8 7 7 7 2 10 12 6 7 8 12 5 6 4 3 4 6 3 3 3 5 5 4 3 3 3 3 3 2 4 9 11 11 8 10 5 7 12 9 10 11 12
16 8 12 9 10 8 8 7 7 5 6 6 2 6 12 8 10 10 5 4 2 2 2 0 0 7 7 8 7 7 7 6 4 4 4 5 5 6 11 12 10 6 6 4 6 8 10 10 12
7 2 6 4 7 8 3 6 3 9 8 2 3 3 14 10 12 8 6 4 2 1 1 2 2 4 4 6 10 9 9 8 6 5 6 6 7 9 11 17 15 12 11 10 7 7 13 16 16
6 5 7 4 2 5 4 4 4 1 1 1 1 3 4 10 10 7 5 4 3 3 4 5 4 6 6 5 7 7 8 6 7 6 4 4 3 9 9 14 17 18 15 11 9 7 8 15 17
10 5 7 5 3 6 1 6 3 6 5 5 3 3 6 8 7 7 6 5 3 2 3 6 11 11 7 5 4 2 3 2 2 2 3 1 5 6 5 10 13 17 21 14 10 7 3 7 12
9 10 1 4 8 9 10 6 4 10 9 1 7 7 9 10 10 9 7 6 5 3 4 9 10 7 2 6 2 6 9 0 1 0 2 1 3 6 7 9 9 12 14 18 30 34 30 20 16
8 6 6 7 6 8 8 9 9 8 9 5 5 7 10 10 9 8 8 6 5 5 5 6 4 1 2 1 1 2 3 3 3 3 4 3 4 4 4 5 7 7 11 14 16 25 26 22 17
5 4 2 1 2 4 6 8 9 12 4 4 5 7 9 10 10 9 8 7 6 6 5 3 3 2 2 2 3 4 4 4 3 2 1 1 3 4 4 6 8 7 5 5 9 10 15 19 16
2 1 0 3 2 5 9 13 7 12 7 9 10 12 13 13 12 11 10 9 7 7 6 5 5 6 5 6 5 3 3 1 1 0 0 0 1 2 2 3 5 7 8 9 11 15 17 16 17
1 10 5 4 4 9 11 18 10 7 9 12 15 15 16 16 15 16 13 11 9 9 9 7 8 9 9 9 6 6 5 3 2 1 0 1 1 3 2 3 4 7 10 9 12 17 21 21 21
6 7 7 6 4 3 8 13 5 9 11 14 14 16 18 19 20 18 15 14 13 13 12 11 10 10 9 10 6 6 6 6 5 4 3 2 3 5 6 5 5 9 9 12 11 11 13 17 22
4 9 7 8 2 7 7 17 11 9 13 17 17 17 18 19 19 20 18 16 14 12 11 10 10 9 9 8 7 8 8 6 6 5 4 1 2 4 4 5 7 9 8 9 11 11 12 13 14
10 11 11 12 7 10 16 19 15 18 17 17 17 17 17 17 18 18 18 16 14 14 13 13 12 12 11 10 11 9 9 8 6 6 6 2 3 2 1 4 6 7 6 6 8 10 10 12 13
7 11 14 12 7 12 13 20 15 10 6 5 7 7 10 12 13 14 16 18 17 16 15 15 15 15 13 12 11 10 11 10 10 9 7 6 5 4 3 4 7 8 8 10 10 10 11 11 12
12 13 11 11 14 17 17 18 10 6 5 3 2 3 0 3 6 10 17 19 20 19 19 18 17 17 16 14 14 14 14 14 12 11 12 9 9 7 7 8 8 9 11 12 11 12 13 13 13
14 10 16 18 19 17 13 12 6 6 7 6 6 5 3 2 2 6 11 16 18 20 20 20 20 19 18 17 16 16 14 15 14 14 14 15 12 11 11 11 11 12 12 13 15 15 16 17 17
12 10 15 18 17 9 12 7 3 3 7 6 4 4 5 6 6 6 8 11 16 19 19 20 21 21 21 20 20 19 19 19 17 16 15 14 13 13 13 13 14 15 15 17 18 18 20 21 23
9 16 16 15 12 11 3 6 4 5 2 2 2 5 6 8 9 11 12 14 14 16 19 20 22 23 24 23 25 24 25 22 18 16 16 15 14 13 13 13 14 15 16 19 22 25 26 26 27
14 19 20 1 6 6 6 3 11 5 2 2 4 6 7 10 13 14 15 16 15 14 16 18 21 24 25 26 27 28 28 24 19 17 15 15 14 14 13 14 14 15 16 20 23 26 28 29 30
14 13 5 3 5 8 4 7 13 7 4 3 5 7 7 10 12 15 17 18 17 16 17 18 21 26 28 29 30 28 26 23 20 17 14 14 17 13 13 14 18 20 21 23 24 28 31 31 33
8 8 3 5 6 13 17 8 5 1 4 5 4 7 9 9 17 19 19 19 18 19 20 22 25 28 28 29 30 27 24 21 16 14 16 22 14 13 14 18 18 21 22 23 25 28 31 31 33
3 5 5 6 9 6 8 12 16 13 1 1 9 11 12 16 21 19 20 20 20 21 24 26 29 30 30 28 27 26 22 20 18 17 14 14 11 13 16 18 22 22 23 24 25 28 29 30 33
8 7 5 4 5 11 10 16 11 6 8 6 11 11 16 20 20 21 20 20 21 24 27 27 29 29 27 26 25 21 18 18 19 16 21 16 15 16 19 22 24 25 25 25 26 29 29 31 33
7 9 4 5 7 6 10 7 11 22 23 17 13 17 23 23 21 21 23 25 29 31 29 26 25 22 22 21 21 17 16 14 16 16 11 13 19 20 23 25 25 25 26 26 28 29 32 33 34
6 9 10 8 8 9 15 18 20 14 7 10 19 24 23 23 22 22 25 32 32 32 26 24 21 18 16 16 16 16 14 13 12 14 16 17 18 22 23 25 27 28 28 28 30 32 33 34 35

GFSSGP_850_spd_006.txt.gz
Wind_Speed
2 7 9 10 6 6 15 6 11 12 8 12 12 18 22 22 15 8 3 9 9 10 9 6 8 10 11 9 6 4 3 2 1 1 3 6 8 9 8 9 11 21 23 25 19 15 17 16 15
5 2 6 9 7 11 6 11 11 15 13 3 3 20 26 17 24 17 13 7 10 14 2 3 6 9 12 11 8 4 2 1 2 7 5 6 7 10 12 8 15 20 24 21 24 22 17 17 12
3 3 9 5 10 4 6 15 12 14 5 6 3 20 14 4 14 11 11 10 10 8 4 5 8 10 11 11 10 7 2 3 5 2 1 3 5 10 10 13 16 19 21 22 12 12 14 15 12
5 7 10 9 6 12 11 10 7 6 6 5 2 12 12 7 12 14 13 10 9 10 10 10 10 11 10 9 8 6 4 2 3 3 4 5 5 4 2 2 10 12 19 17 19 16 19 16 10
9 9 11 2 15 11 8 0 3 2 6 2 6 11 13 10 11 10 10 11 8 7 10 10 8 8 9 8 6 4 2 1 1 2 2 5 8 10 6 5 10 13 13 12 10 19 24 26 18
13 19 11 8 9 10 9 11 5 6 6 4 19 21 9 2 6 8 11 10 8 8 11 8 8 8 8 8 7 5 4 3 2 3 1 2 5 8 10 9 10 12 14 7 4 4 15 14 13
16 11 8 12 7 9 6 8 12 9 7 6 9 15 12 11 9 10 7 5 7 7 6 5 10 14 11 11 11 8 7 6 6 5 3 1 2 6 9 9 10 11 14 10 8 11 11 11 13
14 7 7 5 6 10 2 2 5 8 9 8 9 5 3 15 12 7 5 4 3 4 3 4 4 6 10 11 12 10 8 6 6 5 2 0 2 2 5 9 10 11 12 12 11 12 14 12 10
11 6 8 8 10 6 6 7 7 2 5 3 7 10 11 12 11 8 4 3 2 1 4 4 5 4 5 3 9 8 7 7 7 6 4 3 3 1 4 8 6 8 9 12 13 14 14 13 11
9 7 14 8 7 11 5 3 8 4 8 10 5 1 4 7 7 6 5 6 4 1 3 4 8 8 8 1 5 3 5 2 1 3 5 5 7 6 4 7 7 8 11 16 16 13 15 17 14
17 13 4 6 10 9 12 10 4 7 9 14 5 9 4 5 6 5 4 1 4 3 4 9 9 9 4 3 3 7 8 3 6 3 3 7 5 3 4 4 5 10 10 11 12 17 21 24 14
9 7 7 9 5 6 8 11 9 10 9 5 2 2 5 7 7 6 6 4 4 4 6 12 8 4 3 7 6 4 6 4 6 6 3 3 3 3 3 4 5 8 8 9 10 11 12 14 21
6 3 2 2 2 3 7 11 7 9 11 2 5 5 8 9 9 9 8 8 8 7 8 11 6 4 3 8 11 12 10 10 9 8 6 7 5 4 4 5 6 6 8 9 11 12 11 10 12
4 4 2 2 3 7 8 14 12 11 7 4 7 10 10 11 12 11 12 11 11 9 11 11 8 7 6 6 10 10 12 9 9 10 8 7 8 5 7 5 7 9 9 10 13 14 14 14 15
4 9 12 9 2 9 9 16 16 8 9 8 11 13 13 15 15 16 15 14 13 12 10 12 8 11 9 12 12 6 10 8 9 10 9 8 8 7 6 7 5 10 9 9 11 14 17 19 20
12 7 7 5 3 2 5 13 8 7 11 12 13 15 17 18 19 18 18 16 14 13 13 12 10 13 12 9 12 9 12 8 10 11 11 9 8 7 6 5 7 7 4 9 11 10 12 15 16
2 10 11 8 5 2 6 15 16 19 15 17 18 17 18 22 21 19 18 17 17 15 14 13 14 13 13 14 13 13 14 12 10 12 12 11 9 7 5 7 9 7 6 9 12 11 12 14 15
10 10 11 12 9 9 12 15 14 20 20 18 15 17 18 12 14 19 19 16 17 15 16 15 16 15 16 14 14 16 16 10 17 15 13 14 10 9 7 5 10 10 6 9 14 15 13 12 14
10 13 15 15 8 16 16 17 15 6 9 9 9 9 8 6 8 7 11 14 16 15 17 17 16 17 19 16 17 15 16 15 16 13 16 14 12 12 9 5 7 5 6 9 12 13 15 16 14
15 14 12 12 17 15 18 19 14 8 7 6 5 7 8 6 6 4 1 9 15 16 17 19 18 18 20 18 17 16 17 17 21 18 21 23 17 17 12 9 9 8 11 12 11 13 16 17 17
14 8 13 17 18 15 12 12 10 6 13 8 6 5 5 4 6 5 5 8 13 17 18 19 20 20 21 24 20 21 22 26 20 21 21 19 23 20 17 15 14 13 12 11 13 16 19 20 19
10 13 16 17 14 9 15 7 5 11 11 10 8 6 4 5 5 6 5 8 10 16 20 22 20 22 23 25 27 25 25 24 24 21 25 28 25 19 16 16 16 15 14 14 15 15 17 21 26
10 16 19 20 14 10 4 5 11 7 8 11 11 7 5 5 7 9 11 11 15 14 15 19 22 21 24 26 28 31 33 31 28 25 22 21 19 19 15 15 17 22 19 19 22 23 26 27 26
12 17 20 4 0 3 6 2 10 6 4 5 4 6 8 7 9 10 13 14 14 17 16 19 23 24 25 27 30 34 34 35 28 27 26 24 22 20 17 17 20 21 21 23 22 25 25 28 32
15 13 4 4 2 4 14 10 11 16 0 3 7 9 5 6 8 9 15 17 16 16 18 20 23 27 28 29 32 34 38 34 35 32 29 26 23 21 22 19 20 24 25 25 27 28 30 31 34
14 7 2 4 4 10 18 6 7 4 5 6 3 3 13 8 9 18 16 13 15 14 17 20 26 29 30 31 33 34 35 36 30 28 23 23 23 21 22 21 21 22 27 29 28 30 30 30 31
6 4 6 5 9 4 5 13 14 6 7 10 11 14 6 11 13 15 14 15 16 16 19 24 31 32 31 35 35 33 29 30 30 23 21 22 16 10 11 15 18 29 27 27 28 31 31 30 31
7 7 3 1 3 6 8 15 10 13 17 21 17 14 18 16 21 18 16 15 19 25 27 28 30 29 34 32 28 25 27 26 24 19 18 13 16 20 16 20 25 26 28 30 30 31 32 32 33
3 6 6 8 5 4 6 6 11 22 24 12 19 25 26 19 15 14 13 16 18 25 24 31 33 30 31 30 28 26 25 21 19 20 15 20 15 19 21 25 27 28 29 31 31 32 33 34 35
5 8 8 3 8 9 12 14 17 13 9 34 29 21 22 18 15 19 24 24 23 21 28 42 32 30 27 25 22 23 19 17 16 13 12 17 17 20 23 24 26 29 31 32 32 34 34 35 36

GFSSGP_850_spd_009.txt.gz
Wind_Speed
1 2 6 6 4 5 4 6 2 12 6 30 30 22 19 18 7 6 5 14 10 5 5 8 8 8 9 9 7 8 8 8 9 6 4 4 6 6 7 8 7 10 13 19 11 4 11 12 8
1 2 2 3 4 3 5 2 12 6 8 28 28 29 17 13 24 15 13 10 10 6 5 5 8 8 9 8 8 8 7 7 6 2 2 4 7 8 9 10 13 14 13 15 14 12 19 17 14
6 4 5 4 2 1 2 6 4 6 7 7 8 21 9 3 13 10 11 12 8 8 8 9 11 12 12 10 9 7 5 3 1 0 2 3 7 10 12 13 15 18 19 17 17 16 14 16 21
8 2 2 3 1 5 7 5 5 3 7 25 21 8 12 18 10 7 7 8 7 12 11 13 12 12 12 10 9 8 7 5 3 0 2 4 6 8 9 10 12 16 16 14 14 13 10 11 14
8 4 1 3 5 6 8 19 12 8 10 21 20 4 10 11 8 7 5 7 8 10 11 10 9 9 9 9 9 8 7 5 4 3 3 4 5 6 7 6 5 9 11 12 15 17 14 26 18
4 2 4 3 5 7 10 20 23 15 20 11 20 8 6 7 8 8 10 4 8 9 9 8 9 10 9 10 10 8 6 5 3 2 2 2 5 6 3 3 5 9 10 9 11 12 14 13 13
5 3 5 8 7 6 5 12 12 16 20 11 9 5 6 11 11 9 13 7 6 8 9 10 11 10 11 11 12 10 6 4 4 2 1 1 2 4 4 4 4 6 8 8 9 10 8 8 7
16 6 4 5 6 4 2 2 7 12 4 10 6 6 5 20 17 15 9 8 4 10 9 5 5 7 11 11 12 12 8 7 6 4 1 2 2 4 5 5 5 3 5 5 6 8 10 11 13
14 4 4 6 7 4 2 5 5 5 2 3 9 16 18 17 15 10 8 10 13 7 6 9 4 6 9 2 3 7 3 5 4 5 3 2 2 2 5 2 5 6 5 6 6 9 12 14 17
12 5 5 6 7 5 12 10 3 4 9 5 18 19 18 12 10 12 11 14 14 8 9 7 4 6 4 1 2 3 3 5 6 2 2 3 2 6 5 4 4 6 7 9 11 13 15 13 18
8 4 5 11 14 11 11 11 7 1 2 12 13 19 15 14 10 6 7 18 7 4 8 9 10 8 5 5 5 5 5 8 5 5 5 4 6 8 6 6 4 5 9 10 10 10 13 21 22
6 11 10 6 6 5 4 7 8 7 1 7 8 14 14 10 10 11 7 4 4 4 11 12 10 2 4 7 8 10 10 9 8 6 8 8 8 8 9 8 8 7 8 9 10 10 7 8 10
5 4 2 5 8 8 6 10 10 10 9 5 6 7 8 9 11 10 13 7 7 8 11 14 10 4 5 9 10 10 12 10 11 11 11 11 10 8 9 9 9 9 10 11 11 12 13 13 13
3 7 4 6 8 6 6 9 12 17 12 10 9 8 9 9 10 11 15 16 14 14 13 16 14 9 8 10 11 13 16 15 15 15 12 13 13 11 10 11 11 12 9 10 11 12 12 13 14
8 5 7 9 11 4 3 8 5 21 20 13 13 15 15 15 15 17 16 13 14 12 14 17 16 13 11 13 13 13 15 16 17 16 14 14 13 12 14 13 13 13 12 11 9 10 11 12 13
4 1 2 8 9 6 6 8 6 14 19 19 19 19 20 21 22 21 21 20 16 12 15 15 16 14 14 14 14 13 15 16 16 17 15 13 14 13 13 13 13 12 12 11 10 10 10 12 13
7 4 6 8 5 2 2 6 12 21 15 25 25 24 24 24 22 22 21 20 18 17 16 15 16 15 17 16 14 13 14 17 16 17 19 17 16 16 14 13 12 9 8 9 11 12 15 15 15
6 6 6 4 5 8 8 7 8 25 21 7 5 15 18 14 16 24 22 17 16 17 15 15 16 17 19 19 17 17 19 20 17 19 20 21 19 17 15 13 11 11 7 6 10 15 17 18 18
5 6 5 5 10 11 6 10 12 9 18 20 20 20 17 15 15 11 16 14 12 13 14 16 18 20 21 20 21 22 23 25 21 23 24 21 21 19 19 14 10 9 8 10 12 14 15 17 21
8 5 6 4 11 7 11 16 10 9 10 18 18 15 14 12 13 12 6 2 6 10 15 17 18 20 20 23 25 24 23 21 23 22 24 23 25 24 22 22 17 17 16 16 15 13 13 15 16
6 5 6 7 10 10 5 9 7 4 17 15 11 10 8 7 4 2 2 5 10 12 14 17 17 18 22 24 25 27 22 23 26 25 25 28 30 29 27 24 18 17 18 18 16 13 15 17 15
4 8 9 11 7 3 5 4 5 6 7 8 13 17 15 12 13 9 5 2 4 8 10 13 16 19 20 23 27 29 31 31 31 31 31 28 28 29 28 24 22 19 17 12 12 15 18 17 22
7 6 13 14 8 2 7 3 5 5 4 6 13 17 14 11 6 4 3 5 6 8 8 11 15 19 25 24 27 30 31 33 36 33 26 27 25 23 29 24 25 22 18 20 24 26 24 26 28
7 7 11 5 3 3 6 4 5 3 3 5 11 14 13 6 3 0 3 10 16 13 14 16 17 21 24 26 29 31 34 37 36 37 35 32 28 21 24 26 25 23 23 21 19 17 21 26 29
11 7 4 6 4 4 12 6 8 8 5 10 8 6 3 2 1 4 11 7 7 7 8 9 13 18 23 27 31 34 37 38 39 41 39 37 31 24 22 20 20 18 20 21 24 24 29 34 35
6 3 4 2 2 5 8 3 4 10 23 17 7 4 13 15 9 10 5 2 2 3 6 13 16 21 28 33 35 27 27 35 40 41 36 33 28 25 23 27 25 25 25 28 37 30 28 32 33
7 4 3 1 3 3 4 7 15 3 13 19 16 15 12 9 6 9 6 5 5 10 13 16 22 26 27 35 35 36 36 37 29 30 27 25 23 22 20 15 19 21 31 25 19 27 32 33 34
4 1 5 3 2 4 4 5 6 10 16 18 8 20 14 11 6 10 12 16 15 16 20 27 29 31 41 28 33 35 36 25 23 26 23 21 19 19 16 20 28 25 15 20 27 30 32 33 34
2 3 2 2 1 3 3 5 5 17 17 10 28 19 16 13 16 18 23 15 14 18 21 26 33 42 27 29 31 32 29 24 22 20 17 16 20 26 21 29 16 17 22 27 30 32 34 35 36
5 6 5 2 5 4 4 10 15 11 14 30 25 15 17 18 20 20 16 18 23 30 36 38 44 32 26 28 29 26 22 20 16 15 16 17 17 17 21 13 17 24 27 30 33 35 36 37 37

GFSSGP_850_spd_012.txt.gz
Wind_Speed
2 2 2 1 4 5 4 3 1 4 5 15 22 17 11 10 4 7 8 5 7 6 6 5 4 6 6 7 5 7 7 7 7 6 6 8 9 9 10 9 10 8 9 7 8 8 13 13 13
1 1 2 2 5 5 4 5 5 4 20 25 23 19 16 8 16 15 10 6 5 5 7 6 7 6 6 6 5 4 4 4 4 1 4 6 7 9 10 12 14 17 14 13 10 12 7 11 12
7 4 2 4 4 4 1 4 4 14 8 4 6 12 7 7 9 9 9 9 6 5 4 6 7 8 9 8 7 6 4 2 2 1 1 2 7 8 10 13 17 19 19 19 13 11 10 11 13
8 3 4 5 2 1 3 7 4 4 14 13 15 8 8 8 9 10 10 6 4 7 8 10 10 11 10 9 8 6 5 3 2 0 1 4 5 6 8 11 12 16 14 13 12 12 11 9 8
7 4 4 4 4 1 5 21 17 7 4 7 5 5 9 12 10 13 12 10 6 10 11 9 8 8 7 7 7 5 3 3 3 1 2 4 5 7 9 10 9 10 7 7 9 10 12 13 13
3 3 4 1 3 4 5 21 20 12 10 16 14 8 5 13 13 13 12 10 9 8 9 5 4 5 5 5 6 4 2 1 2 2 3 3 1 2 3 4 4 6 8 8 8 10 12 16 22
6 4 5 4 3 4 3 9 7 10 9 3 13 5 10 17 15 13 11 10 4 6 6 4 3 4 5 7 6 5 1 2 4 4 5 3 3 3 4 4 4 5 6 5 4 5 8 7 9
3 5 4 2 3 2 6 3 9 9 5 13 9 6 7 20 16 14 11 8 6 6 5 2 2 3 6 6 8 9 6 2 3 3 4 4 5 5 5 4 6 5 6 7 5 5 6 6 8
5 5 3 1 3 3 9 4 6 4 6 4 6 7 8 23 20 18 16 14 14 10 8 7 6 6 7 4 5 8 5 1 1 1 3 4 5 4 5 5 5 5 3 5 6 7 8 10 12
9 4 2 3 5 1 4 6 1 2 11 10 13 13 19 17 20 15 19 19 20 15 9 6 6 9 10 8 6 6 7 7 6 4 3 3 4 4 3 4 5 5 6 6 8 9 11 12 13
4 3 3 2 4 4 4 6 3 4 4 20 23 21 17 13 14 14 16 19 21 14 9 5 7 7 7 8 7 6 8 9 8 6 6 6 6 6 8 9 8 9 9 10 10 11 11 11 14
5 2 3 1 2 2 2 5 5 2 5 8 14 14 18 17 15 14 14 24 19 12 10 9 10 6 6 6 8 9 9 9 9 8 9 9 9 10 11 11 12 11 11 12 11 12 12 11 10
2 1 2 4 6 6 4 4 5 9 7 12 18 20 19 16 14 15 16 18 13 11 11 14 12 8 8 8 9 11 12 13 13 12 12 13 13 12 12 12 13 13 13 13 13 14 15 15 16
4 5 6 10 10 9 5 5 2 12 8 16 19 23 21 20 17 17 18 19 20 19 17 15 12 11 10 9 10 12 14 17 18 16 16 16 16 16 14 14 15 16 15 15 14 14 15 15 14
5 4 7 13 6 4 4 3 5 8 8 20 24 21 21 20 19 22 23 23 21 19 15 13 11 12 13 13 11 13 16 19 20 20 18 17 17 18 18 18 17 17 16 15 15 14 14 14 15
3 4 3 7 5 4 2 7 7 10 11 25 25 23 21 20 22 24 23 23 18 16 14 11 12 15 18 16 14 16 17 17 19 19 19 18 17 17 19 20 19 17 16 16 15 12 11 11 13
6 3 4 7 8 3 1 7 10 18 8 25 26 25 23 23 22 22 23 22 18 15 11 12 13 16 19 19 19 21 20 21 22 23 22 21 19 18 20 20 18 15 14 14 14 13 12 13 13
5 5 5 1 6 5 5 7 9 17 3 19 26 22 18 20 25 23 20 20 17 12 10 11 14 17 18 19 22 22 22 23 23 25 26 26 24 20 21 21 20 17 16 16 15 13 13 14 15
1 3 3 4 4 8 5 9 14 4 14 18 20 24 19 13 7 7 17 19 17 12 9 12 14 15 17 19 21 22 24 23 25 26 28 26 25 26 25 22 21 21 20 17 15 15 15 14 14
6 3 4 6 6 3 9 10 7 9 7 21 24 23 21 19 16 14 13 10 7 5 7 9 12 14 15 18 20 22 24 25 26 25 25 27 29 29 28 27 28 24 22 20 19 18 18 15 13
3 2 4 6 7 3 6 7 6 4 10 14 14 17 15 12 13 10 6 2 4 5 7 8 9 12 14 17 19 22 26 30 32 32 31 31 30 34 33 32 31 29 27 25 24 23 22 18 17
5 4 4 6 4 2 4 3 3 3 3 3 8 11 11 10 8 7 4 4 4 4 6 8 9 13 15 17 21 24 27 31 33 35 34 32 35 32 32 31 31 29 27 25 24 23 21 19 20
7 7 8 5 4 3 9 3 5 3 4 0 9 10 12 10 7 6 5 3 4 8 9 9 11 13 14 18 22 28 31 34 34 35 36 36 36 35 31 30 33 31 29 26 22 18 17 20 15
6 6 4 3 3 3 4 1 4 5 4 5 6 9 10 8 5 4 4 8 9 7 8 11 11 9 12 18 22 28 31 35 38 39 40 39 41 40 38 32 36 34 31 31 30 28 25 21 23
8 6 4 5 5 3 6 5 2 1 5 6 6 2 2 7 9 7 7 7 6 7 8 7 9 15 19 26 28 33 34 36 35 35 37 39 43 40 38 31 32 33 31 32 29 25 23 25 27
4 4 4 1 1 5 7 3 3 7 18 20 10 6 12 6 5 1 0 2 3 2 6 12 16 22 24 26 33 38 39 33 32 34 34 35 35 29 30 30 29 26 20 24 27 26 29 32 23
4 4 1 3 2 3 4 6 6 10 5 14 11 23 10 7 9 13 12 10 6 10 14 17 21 27 32 39 41 33 31 33 34 32 29 27 29 31 29 30 25 30 34 30 31 23 17 18 24
2 1 4 4 2 3 5 5 6 8 14 18 17 13 15 16 12 9 9 3 6 12 19 27 33 37 38 33 28 29 31 31 28 23 14 18 26 26 21 19 16 23 26 16 16 17 22 27 30
5 4 4 0 4 3 2 5 5 12 11 9 11 12 10 8 8 11 11 13 20 26 29 33 36 32 33 29 29 30 29 29 27 20 19 18 19 16 22 22 19 17 12 13 18 24 27 30 33
1 4 5 3 5 3 4 10 13 6 19 8 9 11 13 8 10 13 19 24 29 31 33 33 34 31 31 32 35 29 24 22 16 13 12 13 15 18 13 13 12 13 16 19 23 28 30 33 35

GFSSGP_850_spd_015.txt.gz
Wind_Speed
1 1 1 1 4 5 2 4 3 5 4 5 13 13 8 5 1 3 9 7 8 7 9 8 6 7 5 5 3 5 6 6 6 6 7 7 8 8 7 7 8 11 4 4 4 10 11 13 12
3 1 2 3 5 5 4 4 6 3 17 22 15 6 6 3 4 13 14 13 7 7 7 7 6 4 5 5 3 4 6 6 5 4 5 7 8 10 11 11 13 14 9 12 13 9 9 8 12
4 2 2 5 4 3 1 1 6 7 21 2 6 8 4 3 9 10 11 11 6 8 6 7 7 7 7 6 3 3 2 2 3 3 5 9 10 12 13 15 13 14 17 19 12 7 7 8 14
2 2 6 6 6 2 2 2 10 10 6 5 11 6 5 3 4 9 12 9 6 10 11 10 9 10 8 5 4 3 1 0 2 3 3 5 7 10 13 17 17 12 13 11 9 8 7 7 9
5 4 5 4 3 0 3 12 5 4 3 2 3 4 4 7 13 16 13 10 8 13 13 11 9 7 6 4 3 1 0 1 2 4 5 6 8 9 9 10 10 9 8 9 10 10 9 10 11
5 4 5 3 3 2 2 17 18 9 10 10 10 8 3 12 13 14 13 12 11 10 10 8 7 5 4 4 5 4 3 4 6 6 7 7 6 6 5 6 6 7 7 8 7 8 7 8 12
5 4 4 4 2 3 2 6 10 7 4 3 11 5 10 14 12 12 10 9 8 7 5 3 2 1 3 5 6 6 6 6 8 6 7 7 5 4 3 3 5 6 6 6 6 6 6 6 8
4 5 3 3 1 2 3 3 8 10 1 7 1 5 7 19 15 12 11 9 6 5 3 1 3 5 7 7 7 7 8 5 6 6 6 6 6 6 5 4 4 5 6 6 5 6 7 7 8
4 5 2 1 2 3 5 3 6 8 8 1 1 3 7 23 18 18 16 12 10 7 5 3 5 6 9 9 8 6 4 4 6 5 6 6 6 5 4 5 5 6 5 7 7 7 8 9 10
7 5 5 1 3 2 3 4 2 4 5 2 5 6 20 24 20 21 19 16 12 9 6 4 5 7 10 9 8 6 5 6 8 7 7 7 7 7 6 6 7 7 7 8 9 10 10 11 11
3 4 4 3 4 5 3 0 2 13 1 9 13 17 24 22 22 19 18 14 11 10 9 7 5 7 9 7 7 7 8 8 9 8 9 10 10 10 10 10 11 10 11 11 12 13 12 12 12
5 1 4 1 5 3 2 1 0 2 4 7 12 13 22 22 20 23 22 20 18 17 13 7 6 10 11 9 8 9 11 11 11 10 11 12 13 13 13 13 13 13 13 13 14 15 15 15 14
4 2 4 4 3 4 3 4 3 7 5 13 16 21 20 18 17 19 17 18 20 19 15 10 10 12 10 11 10 10 11 13 14 15 15 15 15 15 15 16 15 14 15 15 15 15 16 17 17
4 6 9 5 9 6 1 4 2 4 8 16 23 24 21 20 18 19 20 19 21 20 14 10 9 10 10 11 12 12 13 15 17 18 18 18 19 18 19 19 18 17 17 17 17 16 16 16 16
4 5 7 4 6 2 1 5 6 4 4 21 26 26 25 22 20 23 20 22 18 16 14 11 11 11 9 11 11 12 14 16 18 19 20 20 19 20 20 20 21 21 20 19 18 17 16 16 14
5 5 5 7 2 5 2 10 10 5 8 22 25 29 29 26 25 22 21 19 18 18 16 12 11 11 11 13 13 12 14 17 18 18 19 19 18 18 20 21 22 22 22 21 20 18 16 15 14
7 2 3 6 5 4 2 8 13 13 13 17 26 30 29 26 23 22 22 22 22 19 15 11 11 10 13 13 15 16 18 18 17 19 20 20 21 21 21 21 21 22 22 22 21 19 19 17 16
3 3 4 4 5 7 5 9 11 9 13 20 19 25 24 23 22 20 21 23 23 19 14 10 10 11 11 11 13 15 18 19 19 19 20 22 24 26 24 22 22 22 23 24 23 21 21 20 18
1 1 3 4 3 7 5 9 11 13 4 5 2 12 12 9 6 11 21 20 19 17 12 8 8 8 10 10 12 15 19 22 24 22 22 22 23 26 27 27 27 26 26 25 25 23 24 23 21
3 2 4 6 5 2 7 10 8 9 5 6 18 18 17 13 8 5 5 8 9 6 6 7 9 11 11 12 12 16 20 23 27 28 28 29 28 28 29 32 32 33 32 31 30 30 28 27 23
3 2 3 5 7 2 6 5 6 6 10 9 10 12 14 14 13 12 9 6 5 5 5 8 12 13 14 15 16 17 20 24 28 30 32 32 34 35 34 35 36 38 38 37 35 33 31 29 27
4 3 2 6 4 2 5 3 5 4 4 7 5 7 11 12 11 9 7 5 9 10 10 12 14 15 15 17 18 21 25 31 31 33 35 36 36 39 40 40 39 41 41 40 36 32 32 32 30
6 7 4 3 3 2 8 4 6 6 4 4 3 7 7 6 5 6 8 9 8 7 10 12 14 14 15 14 16 23 30 31 34 35 38 38 40 41 42 41 41 42 41 36 34 35 34 33 29
8 4 5 4 3 2 1 3 6 3 3 3 0 4 3 4 5 7 6 7 9 11 12 13 12 10 11 19 25 31 32 36 41 43 43 37 36 34 34 36 40 42 41 36 35 32 28 25 25
8 6 4 4 4 4 2 2 5 3 2 1 7 9 19 15 13 11 11 11 10 8 6 7 10 14 20 25 27 35 37 42 43 38 32 33 35 36 38 34 39 40 38 39 37 30 25 21 24
3 3 4 3 1 4 6 2 4 6 16 16 18 16 12 6 9 6 2 2 2 4 9 13 18 23 27 33 37 37 34 33 32 32 32 32 31 32 30 23 28 31 30 25 20 20 22 28 25
3 5 1 5 3 2 4 5 6 6 7 9 13 7 9 12 11 8 4 4 6 11 17 22 27 31 33 31 30 29 29 31 31 30 30 31 28 25 23 23 25 22 17 18 20 25 21 19 15
4 2 4 4 2 3 5 6 5 5 11 18 17 11 11 9 9 9 8 10 15 24 23 27 28 29 30 29 29 32 36 33 26 26 28 27 24 21 23 24 21 21 21 26 21 16 11 16 20
4 4 5 3 3 3 3 5 5 5 8 10 7 11 12 4 9 15 21 22 27 28 27 26 28 30 29 27 30 35 37 29 27 26 26 26 18 18 14 16 22 22 8 9 11 14 17 21 24
4 5 4 3 3 2 3 7 5 5 10 7 11 14 15 9 19 25 24 26 28 30 29 31 29 33 32 30 34 41 36 28 28 22 17 15 13 16 21 19 11 8 10 14 17 20 25 26 28

GFSSGP_850_spd_018.txt.gz
Wind_Speed
3 2 1 0 4 5 3 0 3 2 3 2 8 8 8 6 3 3 11 6 4 6 9 9 8 6 6 6 6 5 3 5 4 4 4 7 8 9 9 8 8 9 8 2 3 6 11 11 11
4 1 0 2 5 5 3 3 5 2 11 10 8 7 7 3 3 10 10 11 6 6 7 7 8 7 7 6 6 5 4 3 3 3 5 8 8 9 10 8 9 13 10 7 11 14 11 8 9
5 3 2 5 3 4 4 2 4 8 10 7 4 7 4 3 7 12 13 11 7 5 7 8 8 7 9 8 7 6 5 3 1 4 6 9 10 11 12 13 14 15 16 16 17 13 7 9 9
3 3 7 6 4 4 4 4 5 5 2 4 7 6 6 2 4 8 13 10 8 9 10 11 11 10 9 8 8 6 4 3 2 3 3 5 8 11 13 14 15 13 10 12 11 6 4 6 9
3 4 6 5 3 3 2 13 13 5 4 6 4 2 3 4 10 14 12 10 11 13 13 12 10 9 8 7 6 5 3 3 4 4 5 6 7 8 9 9 10 10 10 11 10 6 5 6 9
4 4 6 4 1 2 3 5 7 6 7 10 9 6 3 13 14 15 13 14 13 11 11 9 7 6 5 3 3 2 3 4 5 5 5 6 6 6 6 6 7 8 9 9 9 8 7 7 9
7 4 4 4 3 2 2 0 3 5 5 3 8 5 9 15 14 14 14 13 11 7 5 4 3 3 3 5 6 8 8 6 6 6 6 5 5 4 4 5 6 7 8 9 8 8 7 6 8
5 5 3 3 2 2 2 2 5 4 3 11 5 5 6 19 17 14 12 10 8 6 5 4 2 2 6 9 9 8 7 6 6 6 6 6 6 7 7 7 7 7 7 7 7 7 7 7 8
5 5 2 2 2 2 2 2 2 3 6 3 2 7 4 22 20 18 16 13 10 8 5 2 3 3 8 10 10 7 6 5 5 6 6 7 8 8 7 8 8 9 10 10 9 9 9 9 9
7 5 2 3 3 1 2 2 4 3 1 2 2 4 14 22 23 20 18 13 8 7 5 1 3 5 7 7 6 5 5 5 5 6 7 8 9 8 9 8 8 10 11 12 12 12 12 12 12
3 4 2 3 2 1 3 2 2 10 1 8 11 11 20 21 20 18 17 11 3 4 4 4 5 6 8 7 6 5 6 6 6 7 8 10 11 12 12 12 12 12 12 13 14 15 15 13 12
6 3 3 2 3 3 2 3 2 7 5 5 8 11 18 20 18 18 15 11 10 9 9 9 6 7 9 8 8 8 8 8 8 8 10 11 12 13 14 14 15 15 15 14 15 16 16 16 16
4 2 2 1 5 4 3 3 4 12 8 7 10 17 19 19 14 16 15 13 15 15 12 10 5 7 8 9 11 11 11 10 11 12 14 15 15 16 17 17 18 18 17 17 17 18 18 18 17
2 2 3 3 2 1 1 3 2 3 5 11 16 20 22 21 18 18 22 20 19 16 15 14 8 5 7 9 12 11 11 12 14 16 17 16 17 18 19 19 20 20 20 20 20 20 19 19 18
3 5 6 10 6 4 2 5 5 9 6 9 17 23 24 21 19 20 17 18 16 14 17 15 8 8 9 10 12 10 10 12 14 16 16 17 18 18 19 19 20 20 21 22 22 21 20 19 18
6 6 5 5 8 4 3 8 11 9 6 12 18 23 27 24 22 19 19 20 19 15 17 15 10 9 9 12 12 12 13 14 14 14 15 16 17 18 18 19 20 19 20 22 22 21 21 19 18
7 1 2 7 5 5 4 9 11 18 18 22 16 22 27 27 25 22 21 22 21 19 19 14 10 8 10 11 11 12 13 15 15 16 18 19 19 19 20 21 20 20 20 21 21 22 22 22 21
1 2 3 3 5 6 4 7 9 17 12 14 12 13 20 23 24 21 19 21 19 21 17 13 10 7 9 8 8 9 11 12 15 17 21 22 23 24 25 25 24 23 24 23 24 24 23 22 22
1 2 3 3 2 6 5 6 9 13 15 14 11 5 4 12 13 16 19 19 14 17 16 12 8 7 10 10 10 11 13 15 17 20 22 22 25 29 30 31 30 30 30 28 27 27 27 27 26
1 2 4 5 3 1 6 7 6 10 8 12 14 13 11 10 8 10 10 6 3 6 8 9 9 11 13 13 14 17 20 22 24 26 28 28 28 29 33 36 38 38 37 36 34 34 35 32 31
4 2 2 5 7 1 5 5 7 4 10 12 13 11 11 10 10 9 8 6 3 4 6 7 9 12 16 17 19 21 24 26 27 29 30 29 33 35 36 38 41 43 43 43 42 41 41 39 36
3 1 3 6 3 1 4 2 5 6 5 7 4 4 5 5 5 3 0 2 4 6 8 11 14 16 16 16 16 18 21 26 31 33 33 34 34 36 37 38 38 40 46 49 48 47 44 41 39
6 4 2 2 3 3 7 4 6 5 4 5 9 6 4 3 5 6 7 7 8 10 11 13 11 8 8 9 13 21 28 32 35 39 41 42 37 30 29 30 31 32 37 45 52 49 43 42 40
5 4 5 4 2 3 1 3 5 3 3 4 6 12 13 10 11 9 8 7 6 7 7 7 8 11 13 17 23 28 34 38 41 41 38 36 35 36 36 35 35 35 34 38 41 41 39 37 35
9 6 3 3 4 3 3 1 4 4 6 6 12 19 19 15 9 8 8 6 5 6 8 11 15 19 24 29 32 34 34 33 34 35 36 37 35 35 35 33 31 30 29 29 26 27 26 23 23
3 4 4 2 1 4 4 3 5 3 20 13 10 11 11 15 13 12 11 11 11 13 18 22 26 29 31 31 30 28 28 30 34 37 35 32 31 34 31 29 24 21 20 19 16 15 16 16 17
1 4 2 5 2 2 4 5 2 4 8 16 13 14 14 13 14 14 13 16 22 24 26 27 27 27 26 27 26 27 30 35 39 36 32 27 28 31 28 22 15 14 13 13 14 15 22 15 12
5 3 3 3 2 3 5 5 3 6 8 7 7 15 13 7 11 16 22 22 19 21 23 24 24 25 26 29 30 33 38 41 39 37 27 24 27 27 20 15 12 11 14 19 24 24 14 15 14
4 3 5 4 3 3 2 6 4 4 3 2 5 8 11 9 15 21 24 22 20 24 25 26 26 30 32 34 34 38 40 42 41 31 24 23 19 14 8 8 13 20 22 11 8 11 12 14 17
3 3 4 4 2 1 3 6 2 7 2 2 5 12 15 20 25 25 27 27 23 31 29 30 31 34 33 35 36 41 41 44 33 24 17 9 6 8 9 13 10 9 10 11 14 16 19 21 23

GFSSGP_850_spd_021.txt.gz
Wind_Speed
5 4 2 2 2 4 3 3 1 5 3 3 3 2 5 5 1 2 13 7 6 7 8 8 8 7 6 3 2 2 2 4 4 5 6 8 9 9 9 7 7 8 8 4 1 4 8 10 10
5 4 3 4 5 8 3 2 4 3 9 7 8 6 4 5 3 10 13 12 10 10 11 10 10 9 8 7 5 3 4 3 2 1 3 6 8 9 9 9 11 12 10 8 8 12 11 9 7
6 6 2 4 3 6 5 1 8 9 4 3 5 6 4 4 10 12 14 11 11 12 13 13 12 10 9 8 7 4 4 2 2 3 4 5 7 8 9 11 12 13 15 16 15 12 7 7 9
5 4 6 6 7 2 3 8 8 7 1 4 7 6 5 5 9 11 15 10 11 14 14 14 14 13 11 9 7 4 3 1 1 2 2 4 7 8 10 10 11 10 9 10 9 6 6 8 10
5 4 5 7 6 3 2 6 7 2 2 4 2 3 4 4 9 15 13 12 12 15 15 15 14 10 8 6 4 4 4 3 4 3 3 4 5 6 7 8 8 7 8 8 8 7 8 9 10
5 5 6 9 6 3 3 4 1 2 1 4 7 5 3 13 14 14 13 14 15 14 13 12 10 8 6 6 5 4 3 3 3 4 5 6 5 5 5 6 7 8 8 8 7 7 7 7 9
7 4 4 5 6 5 3 4 6 5 5 3 8 4 7 13 15 14 15 15 14 13 11 8 7 5 4 4 5 5 5 2 2 2 4 5 5 6 6 6 6 7 8 9 9 9 9 8 8
6 5 4 2 4 4 2 4 7 4 1 9 5 5 6 19 17 17 16 14 13 11 9 7 5 2 4 6 7 6 4 3 2 2 3 4 6 7 8 8 7 7 8 9 9 9 9 9 9
5 4 3 4 5 3 3 3 2 5 7 4 5 6 7 21 19 17 15 14 12 10 8 6 4 2 4 5 6 4 4 3 3 3 3 4 5 7 8 8 9 8 10 10 10 10 10 9 11
6 4 2 2 3 3 3 3 4 3 3 3 4 5 12 21 20 18 16 12 11 10 7 4 2 2 5 6 5 4 3 3 3 4 4 5 7 8 9 10 10 11 12 12 12 12 12 12 13
3 4 4 2 5 4 3 3 2 6 2 4 5 7 17 22 21 18 14 12 7 8 8 4 1 3 6 5 5 5 4 5 5 6 6 8 9 10 11 12 13 14 14 15 15 14 14 13 12
6 4 3 5 5 4 3 3 2 7 2 3 6 8 17 22 21 17 17 12 10 8 6 6 5 2 4 6 7 6 7 7 8 8 9 10 11 12 12 14 15 15 16 17 16 16 16 17 17
5 2 3 2 6 2 3 1 1 8 9 8 9 13 16 18 16 15 12 9 10 9 9 9 8 3 4 6 9 8 8 9 10 11 12 12 13 14 14 16 17 18 19 19 18 18 18 18 18
3 3 4 6 2 5 2 1 2 1 2 7 10 16 17 15 12 14 15 14 13 11 10 10 9 6 5 7 9 8 7 7 9 11 13 13 14 15 16 17 17 18 19 19 19 20 20 20 19
6 4 2 12 5 5 4 1 3 7 8 4 7 14 20 19 18 15 12 13 12 11 13 14 13 10 6 7 8 7 7 7 9 10 11 12 14 16 17 18 18 18 19 19 20 21 21 20 19
5 5 3 4 7 4 6 5 6 11 11 11 10 11 21 23 21 19 18 19 18 17 16 16 15 11 7 7 8 8 8 10 11 12 14 15 15 16 18 19 19 19 21 22 21 22 21 20 20
8 2 3 4 4 7 5 7 6 19 9 12 11 9 14 23 25 23 20 18 17 18 18 18 16 11 8 8 7 7 7 8 9 10 13 14 16 18 21 22 23 23 23 23 23 23 23 22 22
1 1 1 3 4 6 4 7 11 14 7 6 5 2 6 16 21 19 17 18 18 17 17 16 15 12 8 7 9 8 7 7 9 13 16 17 18 20 22 25 26 27 28 28 28 28 26 25 25
3 2 2 3 1 5 3 4 10 11 13 14 15 14 8 3 4 9 14 20 18 12 15 15 13 9 10 11 11 12 13 16 17 17 21 23 24 25 25 28 30 33 35 35 34 34 33 32 30
1 2 2 2 1 1 5 7 4 12 9 11 16 17 14 11 12 12 12 11 4 2 5 10 11 13 14 15 16 18 20 21 23 24 25 28 30 30 30 32 33 34 37 39 41 41 41 39 37
1 2 2 3 6 1 2 3 6 5 8 13 15 12 12 10 11 10 7 6 4 5 8 10 12 13 14 15 17 18 19 19 21 24 30 31 32 33 35 37 38 38 40 42 42 42 45 47 44
2 2 4 4 1 1 3 3 6 5 8 12 13 14 13 10 6 6 4 2 2 3 6 8 9 11 11 10 10 13 18 23 27 30 33 36 36 34 32 31 32 33 34 36 36 39 42 44 45
3 2 1 0 2 2 3 1 3 4 9 10 13 16 14 10 10 8 7 7 7 6 5 5 5 6 9 13 19 25 29 33 36 36 36 36 37 36 36 35 33 33 33 35 37 38 39 39 41
4 2 3 2 2 1 1 1 2 3 4 6 9 15 17 15 8 5 6 5 7 9 8 9 11 15 20 24 29 34 38 40 38 38 39 40 40 39 35 34 34 34 32 31 30 32 33 32 28
8 4 1 0 2 1 1 1 5 9 5 6 9 13 17 16 16 15 14 13 13 13 15 17 20 24 30 33 36 35 33 31 32 36 39 39 37 35 33 31 29 27 25 23 20 18 16 14 17
3 2 2 2 1 3 0 4 6 8 8 10 11 11 14 16 16 15 17 18 19 21 23 25 28 29 32 31 25 24 25 28 33 37 39 38 35 32 30 27 26 22 18 14 12 11 11 13 13
1 4 1 4 1 2 2 1 3 5 7 7 8 10 9 9 12 18 19 21 23 22 24 26 28 24 21 23 24 24 26 32 35 39 40 37 30 28 25 21 15 11 10 11 14 16 18 21 15
2 4 1 3 1 2 5 3 3 9 4 2 4 5 6 7 16 21 20 21 22 19 21 22 21 22 22 24 25 26 29 34 39 43 37 26 23 18 11 7 7 8 11 13 15 11 10 12 12
2 2 5 3 1 1 3 5 4 7 2 5 2 1 4 9 15 17 15 17 17 13 22 24 24 25 26 29 28 29 32 38 42 39 30 20 13 5 6 12 12 14 10 6 8 8 10 12 14
2 2 3 2 2 1 1 7 3 8 1 3 4 4 11 17 20 20 19 25 25 25 24 24 24 27 29 32 31 32 36 39 38 28 22 9 5 9 10 14 16 15 14 13 14 15 15 16 18

GFSSGP_850_spd_024.txt.gz
Wind_Speed
6 5 3 0 4 3 11 7 10 10 6 2 2 4 8 9 7 5 11 8 10 10 10 10 9 7 6 5 4 5 4 6 7 7 7 7 7 7 7 6 6 6 6 6 3 3 8 9 10
7 6 2 3 5 12 10 9 11 9 12 9 7 4 4 7 7 13 11 10 11 11 11 11 10 9 8 6 5 5 6 6 5 6 6 6 7 7 7 6 8 8 7 7 8 12 13 13 12
7 6 4 4 5 10 11 7 13 13 5 5 5 5 3 7 10 10 12 13 14 14 12 12 12 11 9 8 6 4 3 1 0 3 4 5 5 5 8 10 10 11 12 14 17 17 14 12 12
4 3 3 5 15 7 14 13 14 10 6 4 6 8 7 6 8 9 13 13 11 11 11 15 15 13 11 8 7 5 4 2 2 2 4 4 4 6 7 9 10 12 13 14 12 12 11 11 11
2 4 8 11 13 12 11 13 6 6 6 6 1 6 7 4 8 14 12 12 11 14 16 16 14 12 10 6 4 3 3 4 4 3 3 4 5 5 6 6 7 8 8 9 10 11 12 13 13
5 4 12 13 14 11 9 7 4 5 5 6 7 7 6 7 13 13 12 13 13 13 15 13 11 9 7 5 4 4 4 5 5 4 4 4 5 5 5 6 6 7 6 7 7 8 9 10 11
8 6 13 15 15 12 8 3 3 5 5 5 5 6 7 11 13 12 12 13 15 12 11 10 8 6 6 4 4 4 4 3 2 1 1 2 3 4 5 5 6 6 6 6 6 7 7 7 8
7 8 13 13 10 13 6 5 5 4 5 5 3 5 8 14 15 13 14 13 12 11 8 7 5 3 3 4 5 4 3 2 2 2 2 3 5 6 7 6 5 6 7 8 8 8 8 9 9
4 6 10 9 9 9 9 7 4 2 7 3 3 4 8 18 16 15 14 12 10 9 9 8 4 1 3 4 5 3 3 3 3 4 4 4 3 5 6 8 8 8 9 10 10 10 11 11 12
0 7 7 4 6 10 8 3 6 5 6 5 6 5 12 18 17 15 14 13 12 11 9 6 3 0 3 4 5 4 3 2 3 3 5 4 6 7 8 11 11 12 13 13 13 13 12 12 10
3 8 9 7 8 7 8 7 4 5 6 6 7 9 16 17 16 14 12 10 10 10 8 7 4 1 3 3 3 3 3 3 4 6 6 7 9 8 8 8 10 10 14 11 14 15 11 12 12
12 11 9 8 6 5 6 4 5 6 8 4 4 8 16 17 15 14 12 12 11 11 10 8 6 1 1 2 3 3 3 5 5 6 9 8 8 9 9 9 11 12 10 14 14 13 16 16 16
14 10 7 6 6 3 2 3 1 4 3 2 6 10 14 13 13 12 12 12 12 11 10 9 8 6 2 2 5 4 3 4 5 7 8 9 8 9 9 10 11 11 12 12 12 12 12 13 15
6 8 5 4 6 4 4 3 4 5 4 2 6 10 13 13 13 13 15 14 13 11 10 10 9 8 5 3 5 5 4 4 5 6 7 9 9 9 10 11 11 11 12 12 13 13 15 14 16
9 9 7 6 5 4 3 8 5 4 4 4 4 9 13 13 13 14 13 12 10 10 10 11 11 11 8 6 7 5 4 3 4 5 8 9 11 12 13 12 13 12 13 17 16 16 17 17 16
7 5 4 7 1 1 7 8 6 8 9 9 7 7 12 16 15 11 10 11 11 12 13 14 15 13 11 8 8 7 5 5 4 4 7 8 10 11 14 14 14 14 17 16 16 16 16 16 16
3 3 2 6 4 5 4 4 10 12 7 7 9 10 11 13 15 12 11 11 12 13 14 16 17 15 12 11 9 8 6 4 3 4 9 11 12 13 15 18 19 18 18 18 18 19 19 19 19
3 3 2 2 5 7 3 4 8 11 7 6 3 1 2 7 11 11 8 11 13 14 17 15 11 13 15 13 11 9 9 9 11 12 14 16 18 19 21 24 25 23 22 23 22 23 22 23 22
2 1 2 1 3 8 2 4 9 11 13 15 15 14 12 10 6 2 8 13 11 10 8 5 5 11 14 11 9 7 8 10 11 12 16 18 18 22 28 30 30 29 25 26 27 26 27 26 25
1 2 1 1 1 5 1 7 9 12 14 14 16 17 18 17 14 14 12 9 5 2 3 4 7 10 11 11 13 15 15 14 16 14 14 16 25 32 34 34 32 27 26 26 27 28 28 30 28
0 1 3 5 4 3 5 7 6 7 12 13 14 14 14 14 13 13 12 10 7 4 2 1 3 6 9 9 6 7 8 10 11 19 23 31 35 33 30 30 30 31 30 25 26 26 27 31 29
2 2 8 7 6 3 3 4 5 6 9 12 12 14 13 11 10 10 10 9 8 7 7 6 6 7 9 9 11 16 15 17 24 23 24 36 36 34 30 28 27 28 26 26 26 25 26 26 32
4 7 5 3 6 4 7 6 7 7 7 8 12 15 15 12 10 9 10 11 11 10 9 9 9 10 13 15 19 28 27 26 22 35 34 24 22 24 24 26 33 33 29 26 27 25 24 25 28
4 4 1 1 2 5 3 4 8 3 3 7 10 12 13 13 13 12 11 10 10 10 11 11 11 11 18 22 24 28 23 20 18 20 22 23 26 26 25 25 31 30 29 25 23 18 13 13 16
7 4 2 3 4 1 4 6 9 7 6 8 9 10 10 11 11 10 9 9 9 11 12 13 14 15 17 19 20 16 16 17 19 21 22 28 30 29 28 28 24 17 17 17 16 17 15 16 15
5 6 3 3 2 1 2 4 5 7 9 9 8 7 6 6 5 7 8 9 10 10 12 14 15 16 16 16 17 21 24 21 21 22 27 29 29 27 23 18 12 10 8 8 9 15 17 16 12
2 2 2 0 1 3 1 4 9 9 6 4 6 5 2 0 4 8 10 11 12 13 13 16 19 20 19 18 19 18 19 22 23 25 29 29 28 21 17 11 8 8 10 14 12 14 13 11 9
4 3 3 0 3 4 2 5 6 16 12 2 2 4 2 1 7 11 13 13 14 14 14 15 16 17 17 17 18 18 18 20 22 25 26 24 19 12 7 8 9 10 15 14 9 5 6 7 9
1 2 1 1 2 3 4 5 3 2 6 3 3 4 4 5 9 11 11 11 13 14 15 14 15 17 17 18 19 19 20 21 21 21 19 16 9 8 13 14 15 17 15 13 11 11 11 11 11
1 1 0 2 2 2 4 8 4 4 5 2 5 6 7 7 10 10 11 12 15 16 14 15 16 18 19 20 20 21 22 20 18 17 13 10 7 15 18 18 17 19 14 14 13 13 12 12 14

GFSSGP_850_spd_030.txt.gz
Wind_Speed
8 4 3 10 6 7 14 9 12 9 11 16 17 18 21 20 9 8 14 17 17 7 13 11 10 10 10 9 9 8 7 5 5 3 1 1 3 3 3 4 5 5 5 6 7 7 9 14 18
7 2 8 10 8 11 7 7 19 16 16 12 14 12 25 18 21 20 19 17 12 17 7 12 12 11 11 10 10 9 7 5 4 3 2 2 3 4 5 5 6 6 6 7 10 11 14 17 17
7 4 13 5 9 16 10 18 15 13 10 12 8 23 19 18 16 14 18 17 17 11 7 13 13 13 13 12 10 8 6 5 3 1 1 2 3 4 6 7 8 9 10 11 12 13 14 13 12
7 7 10 8 10 14 12 16 15 13 9 4 18 13 15 14 17 19 18 17 15 8 16 14 14 14 13 11 9 7 6 4 3 1 1 0 2 3 5 6 7 8 9 10 11 11 12 12 12
12 11 10 8 14 15 15 16 10 9 8 10 8 18 17 16 20 18 16 16 16 12 16 15 14 13 10 8 7 5 4 4 4 2 2 2 2 3 4 5 6 6 7 8 9 10 11 11 11
13 9 10 8 11 12 11 8 4 14 14 7 16 19 16 14 16 16 15 16 12 15 16 13 12 10 9 8 7 7 7 6 5 4 4 4 4 5 6 6 7 8 8 8 9 9 10 10 10
16 8 13 14 9 8 11 2 1 9 4 10 5 15 12 14 14 15 16 16 14 10 12 11 9 8 7 7 8 8 7 6 6 6 6 5 5 7 7 6 5 7 7 8 9 9 9 9 9
24 11 9 10 9 13 9 2 8 8 16 9 9 8 16 18 17 16 16 15 14 11 9 5 6 6 7 8 9 6 7 7 7 7 7 9 10 14 13 9 13 11 10 10 10 10 10 11 10
21 3 8 8 11 9 7 5 6 6 10 7 6 9 23 19 17 17 15 14 12 11 10 8 10 7 3 5 8 6 8 10 9 8 11 9 12 9 12 16 17 17 15 16 14 13 13 13 10
9 7 13 12 11 11 8 12 8 7 9 10 10 18 18 18 17 16 15 14 11 11 9 9 4 5 6 2 6 8 8 5 7 6 9 5 6 4 10 13 17 16 18 20 14 20 17 10 9
14 12 11 9 9 12 8 11 6 8 9 14 17 15 17 17 16 15 14 14 13 10 9 8 9 6 7 1 2 2 3 3 3 6 0 1 5 6 9 11 11 14 14 15 16 20 15 14 17
6 8 12 12 6 6 6 12 3 2 17 9 17 15 18 17 16 13 12 14 13 13 14 8 6 5 7 5 1 4 3 2 3 5 9 1 1 5 6 5 9 6 10 11 13 13 14 18 19
8 9 12 11 6 7 6 5 3 8 11 6 11 13 16 15 13 12 12 12 11 14 13 12 9 4 2 3 2 3 5 1 6 2 6 7 1 6 5 7 7 7 8 9 11 14 15 15 16
9 11 11 9 7 4 4 6 5 10 11 10 8 12 14 14 15 14 11 11 11 11 12 12 8 7 5 5 5 0 3 2 4 2 7 10 4 5 6 8 8 7 8 12 16 18 17 17 17
8 7 6 7 8 7 7 8 12 13 6 9 10 10 14 14 13 14 12 11 11 12 11 11 10 8 8 4 3 1 4 5 3 4 10 7 5 6 9 9 10 10 13 16 17 17 19 20 20
6 7 9 10 7 6 6 13 15 12 8 10 12 12 12 13 11 14 13 10 10 10 13 12 9 7 8 5 6 3 5 7 5 7 7 9 12 11 12 12 13 15 18 21 19 21 22 22 24
9 8 9 9 6 1 9 5 13 6 6 13 14 13 11 11 12 11 13 11 9 6 6 5 7 9 9 7 7 7 9 6 1 7 5 8 8 8 14 16 15 17 21 22 22 25 25 26 26
10 8 4 1 8 6 9 9 10 2 6 8 12 9 17 12 3 9 15 11 5 5 5 6 3 3 6 10 6 7 8 6 7 5 9 14 14 16 17 18 28 25 23 24 25 26 28 31 32
9 7 4 7 8 4 9 8 9 4 5 5 7 5 17 21 18 14 13 10 6 7 6 6 7 11 8 3 5 9 7 7 7 7 13 15 11 20 23 28 30 26 25 23 26 28 29 31 28
3 4 3 4 6 5 7 8 10 3 9 10 15 17 16 16 17 18 16 12 10 10 9 8 1 3 5 1 5 6 8 9 8 9 10 15 14 20 25 23 23 21 25 28 27 24 26 27 26
5 5 8 7 8 8 10 8 13 11 9 11 15 15 16 14 14 14 15 14 13 13 11 9 7 5 3 4 2 3 3 6 10 12 18 21 20 20 17 18 20 21 23 25 26 27 27 30 29
5 7 6 8 9 9 13 8 16 14 11 12 12 11 12 12 13 12 12 12 10 10 10 7 5 4 7 7 4 7 8 10 15 19 16 18 17 18 16 19 20 22 24 27 31 24 25 28 33
5 6 8 9 10 12 12 6 13 18 14 12 11 9 8 9 11 11 10 9 8 7 6 6 5 8 9 11 12 13 12 15 14 14 17 17 14 17 20 21 23 27 30 26 19 20 21 21 22
8 10 11 11 9 8 13 12 9 11 13 14 12 9 10 10 10 9 7 6 7 7 6 5 6 7 10 13 13 12 14 15 15 16 16 15 20 21 23 25 27 26 20 21 22 22 27 27 30
6 8 4 2 4 3 11 2 7 9 11 16 14 11 10 8 5 4 4 4 3 4 6 7 9 10 11 12 12 13 14 14 15 17 19 22 24 27 28 26 23 24 24 27 27 26 25 22 24
6 6 2 4 5 7 6 5 8 12 13 13 13 11 7 5 2 2 4 5 6 8 9 9 10 13 14 14 15 13 13 16 17 18 22 25 25 23 22 22 22 26 26 24 23 23 24 29 24
8 5 4 4 1 2 5 5 8 11 9 9 10 7 7 1 2 6 5 7 7 9 12 13 14 15 15 15 17 19 17 18 19 20 24 22 20 19 23 29 30 23 23 24 25 25 24 21 17
4 2 2 0 2 3 8 8 7 9 7 7 5 9 4 2 4 5 7 8 9 11 12 13 12 14 16 17 17 18 20 19 21 21 21 20 21 26 27 27 22 21 19 20 18 17 15 16 16
1 2 3 4 3 2 3 1 8 8 1 5 3 2 2 6 7 8 8 11 11 9 12 16 14 14 16 18 20 21 21 20 18 19 20 22 25 28 22 18 22 19 15 16 16 17 18 18 17
3 4 3 1 5 3 4 8 7 4 10 10 9 13 11 9 9 7 8 6 11 14 14 15 13 13 17 20 19 19 19 19 20 22 23 23 17 15 17 19 21 17 19 20 22 22 20 22 21

GFSSGP_850_spd_033.txt.gz
Wind_Speed
7 3 2 5 2 3 4 3 9 10 9 29 30 22 19 15 5 8 20 13 12 17 17 15 14 13 12 12 11 11 11 9 8 6 5 5 5 5 5 6 7 7 7 7 7 8 9 13 16
5 2 3 4 3 2 3 10 13 9 18 37 33 30 29 19 29 25 22 13 10 17 17 16 15 13 13 12 12 11 10 9 7 6 4 4 4 4 5 5 5 6 7 8 9 10 12 13 14
3 1 2 3 3 3 5 6 6 7 19 23 13 24 11 9 14 18 23 16 14 15 16 17 16 15 15 14 13 11 8 7 5 4 3 2 3 4 5 5 7 7 9 11 11 12 11 12 12
3 1 4 1 9 4 9 8 11 9 23 32 22 12 23 18 22 25 19 15 12 12 17 18 18 16 14 12 10 8 7 6 5 4 3 4 4 5 5 6 7 7 8 8 8 8 8 9 10
4 2 2 3 9 5 6 18 16 7 17 26 29 12 20 25 27 26 15 11 11 20 19 18 16 13 11 9 8 6 5 5 5 6 5 5 6 6 6 6 6 6 6 6 7 8 9 10 10
4 3 3 1 3 7 6 13 14 18 20 31 31 24 16 23 22 21 16 12 15 20 19 16 13 11 10 9 8 7 8 10 9 8 7 6 7 6 7 6 7 6 6 6 7 7 8 8 9
4 2 5 7 3 9 5 18 16 19 19 12 25 9 21 24 19 19 16 12 17 17 15 12 12 11 10 10 9 10 10 10 10 9 8 7 8 9 10 11 12 11 11 10 10 10 10 10 9
7 1 5 6 8 3 5 24 24 23 8 14 9 7 16 24 22 21 14 12 14 11 11 8 8 7 8 9 10 9 10 11 11 11 11 8 8 10 12 13 15 14 14 15 11 11 13 11 9
21 3 10 17 8 5 7 9 16 17 20 20 12 30 30 25 23 21 19 14 11 11 9 8 5 5 7 10 11 9 8 8 10 10 11 8 9 8 12 11 12 12 14 14 12 13 17 10 7
10 4 5 7 10 7 7 16 6 10 17 25 31 30 27 25 23 21 19 19 18 15 11 9 4 4 6 5 7 8 8 9 10 8 8 4 7 6 8 7 7 9 10 10 10 16 15 16 16
6 5 5 13 22 17 17 14 10 15 7 29 32 30 24 22 21 18 18 18 20 13 16 14 4 12 4 2 1 1 3 6 7 5 3 2 2 2 6 7 8 10 8 9 13 13 14 16 19
7 15 16 11 20 17 9 8 7 18 18 27 27 26 24 21 17 16 21 22 20 16 20 12 4 10 11 7 4 5 4 3 2 2 6 4 4 5 8 8 8 9 8 8 10 12 15 17 18
10 7 14 8 15 13 12 6 5 19 19 24 25 26 24 20 18 12 18 24 19 21 20 13 4 7 10 9 8 10 10 6 7 8 10 8 5 5 4 4 5 5 4 7 10 14 17 17 16
11 14 14 7 9 3 1 3 4 19 19 25 22 25 22 21 21 16 15 22 23 22 18 14 10 7 7 7 3 4 9 8 5 9 9 9 8 5 5 6 7 7 7 11 15 19 19 20 21
13 7 6 7 12 4 5 2 6 22 19 20 16 24 22 21 22 21 15 20 18 17 16 14 15 14 12 8 5 3 4 4 7 9 10 12 9 8 11 8 8 8 11 16 19 22 22 21 23
5 6 5 6 11 9 8 6 8 18 14 12 18 15 22 20 24 25 21 16 14 17 16 18 17 13 10 3 6 5 7 10 9 10 12 12 12 13 12 12 14 16 19 23 25 25 25 25 25
2 4 6 4 13 5 4 6 10 15 10 5 8 14 13 15 16 22 21 19 19 18 17 19 15 10 9 11 12 6 9 10 7 8 10 11 15 16 18 19 17 19 22 21 22 23 23 26 27
4 3 6 8 3 3 4 3 5 6 5 6 2 9 26 27 27 24 24 20 19 19 16 14 8 10 6 7 6 8 7 7 8 10 10 11 13 15 19 20 21 24 27 25 26 27 26 28 31
3 4 9 5 5 3 4 4 6 8 20 30 29 32 29 26 19 19 19 17 13 8 4 6 6 5 8 3 4 5 8 5 4 9 13 15 13 15 19 22 22 23 23 24 25 27 29 28 26
6 6 5 4 5 4 3 1 7 13 13 30 31 29 27 22 16 14 9 7 4 2 2 3 6 7 3 3 4 8 11 7 3 5 5 8 12 13 15 16 16 18 20 22 24 27 29 32 27
9 6 6 4 6 3 3 2 6 7 26 26 26 25 23 21 18 16 15 14 11 9 7 4 3 4 3 3 5 7 6 7 10 11 14 15 15 15 17 18 19 19 22 24 26 29 32 31 28
5 7 6 6 5 3 3 3 4 8 8 15 24 25 24 20 17 13 11 10 9 9 6 7 8 12 13 13 14 12 13 14 15 17 20 21 23 23 22 19 20 23 26 30 30 26 22 24 25
2 3 4 4 4 3 8 1 5 12 11 10 20 24 21 18 13 9 6 8 9 9 8 6 6 10 13 15 17 17 14 14 14 14 16 18 19 21 23 26 32 31 29 25 22 21 22 24 28
5 4 6 5 3 2 6 4 2 9 12 9 18 21 19 17 14 8 6 7 8 8 9 9 5 6 8 8 8 9 12 13 14 16 18 21 24 25 28 32 30 26 24 25 25 28 25 26 23
3 5 4 4 4 4 4 8 6 11 13 17 18 23 18 15 12 13 10 9 7 5 5 3 4 8 12 15 16 15 15 14 15 18 21 24 26 30 33 34 31 28 28 28 22 22 25 23 25
4 3 4 0 1 4 7 4 1 10 22 21 19 19 16 11 7 8 8 6 5 4 6 11 13 14 11 12 13 15 17 17 16 19 20 24 29 32 32 26 27 29 23 20 21 22 21 24 22
6 4 2 3 5 3 1 4 5 9 8 18 16 15 14 14 8 5 5 4 7 7 5 5 5 8 11 15 17 19 18 20 22 23 24 24 22 22 25 29 30 27 22 17 15 14 15 15 16
4 2 5 3 1 2 4 3 3 3 7 7 10 10 7 1 3 3 2 3 1 3 6 10 13 14 14 15 20 22 24 26 24 23 22 24 25 27 29 26 21 22 22 19 17 16 17 19 18
4 3 4 2 5 4 1 3 4 8 10 7 12 11 6 5 6 2 2 4 6 7 10 10 12 16 18 18 21 26 25 19 21 24 26 27 31 25 22 21 21 23 21 19 18 18 19 19 19
1 3 4 4 4 1 4 5 7 8 15 15 7 9 9 7 7 6 7 9 8 8 11 14 18 23 17 22 27 23 22 22 25 26 25 30 24 21 20 21 17 17 17 18 18 17 19 19 20

GFSSGP_850_spd_039.txt.gz
Wind_Speed
2 3 2 3 2 5 3 4 1 3 4 4 6 4 7 7 0 3 31 19 26 24 22 18 15 15 14 14 13 11 10 10 9 7 6 6 5 4 4 4 4 4 4 4 4 4 5 6 6
4 6 5 1 4 2 4 3 4 6 14 22 18 10 12 4 5 20 24 26 25 23 21 18 16 15 14 13 12 11 10 8 7 6 5 5 4 4 4 4 4 4 4 4 5 6 6 6 7
9 6 3 3 3 3 3 2 7 17 16 8 4 10 5 4 18 26 21 27 25 23 20 18 16 14 13 12 11 10 8 7 6 5 5 4 3 3 3 4 4 5 6 7 7 7 8 8 7
6 4 5 3 5 7 3 6 14 12 11 13 13 5 9 6 15 18 26 23 23 22 20 17 15 15 14 11 9 7 7 6 5 4 4 4 4 4 5 6 7 7 7 7 7 8 8 8 8
6 3 3 1 5 4 4 9 20 5 7 20 7 6 2 14 13 21 22 22 20 21 18 18 16 14 11 9 7 7 6 6 5 5 4 4 5 6 6 7 6 6 6 6 6 7 7 8 7
3 3 3 1 6 6 6 9 13 5 10 21 13 9 2 16 23 22 20 20 19 19 20 19 15 12 9 7 7 7 7 7 7 6 6 6 6 8 8 7 7 6 6 5 5 6 7 7 7
4 3 3 5 5 4 5 4 11 15 11 7 18 5 13 25 18 18 15 18 20 20 19 16 13 10 9 7 7 7 8 8 8 8 7 8 9 8 8 8 9 9 9 8 8 8 9 8 8
4 4 3 5 2 3 3 1 11 10 4 21 18 8 11 28 22 18 18 20 20 18 16 14 12 9 8 8 8 7 8 8 8 9 8 8 6 7 6 7 6 7 8 8 9 10 11 10 10
1 4 3 6 5 4 7 3 10 7 20 2 4 19 31 30 24 21 24 23 21 18 15 12 9 9 10 10 10 9 10 9 7 7 8 6 5 4 4 5 4 6 5 6 8 8 10 10 12
3 4 10 9 17 19 19 15 13 6 7 9 21 22 32 29 26 23 26 24 21 18 15 11 6 8 11 10 10 10 10 8 7 6 5 6 2 1 2 4 5 7 6 6 6 7 8 10 12
6 4 7 14 31 30 15 10 6 19 3 25 28 35 34 31 27 21 22 21 18 15 14 13 8 11 10 9 7 6 6 5 3 2 2 4 3 5 4 4 6 8 7 6 6 7 9 10 13
2 4 4 8 16 19 12 13 12 8 13 24 27 33 35 32 29 23 22 21 21 18 15 16 12 10 10 9 7 7 5 4 3 2 4 7 8 10 9 8 8 9 8 8 9 10 11 13 16
2 2 8 10 13 11 12 6 9 8 22 29 32 34 33 32 28 23 20 22 21 21 19 16 13 11 7 6 6 5 4 5 6 6 7 8 9 11 13 12 11 11 11 11 12 13 14 16 19
6 7 9 8 11 6 6 4 5 7 29 34 36 35 33 31 28 25 26 25 27 24 21 19 15 13 10 5 4 4 6 8 8 9 10 11 11 13 16 14 12 13 14 15 16 17 19 21 23
12 6 4 3 2 4 13 3 5 21 33 35 35 33 33 30 29 30 29 29 27 26 22 20 18 15 11 6 5 4 7 7 9 10 12 12 14 15 14 13 14 14 15 18 19 20 22 24 27
5 5 4 3 3 2 3 6 2 27 34 31 26 21 23 22 21 30 29 31 30 28 26 25 20 19 16 11 5 5 7 11 10 11 12 14 15 15 14 15 15 17 20 21 22 25 28 30 32
7 3 2 4 3 1 3 4 0 25 20 14 13 13 15 14 14 17 21 23 30 33 32 28 24 20 14 6 9 11 10 11 11 11 13 16 16 16 16 18 21 20 21 22 25 29 31 33 34
4 3 3 5 4 3 1 2 4 15 17 14 14 14 15 12 9 9 13 15 23 32 32 29 25 17 9 17 11 8 9 9 8 8 8 11 14 16 17 17 17 22 25 26 27 29 31 32 32
3 2 4 1 3 4 2 5 8 9 25 21 22 25 27 25 27 25 21 18 18 20 21 21 15 9 5 3 4 3 5 6 6 6 7 9 12 13 16 19 21 24 26 27 29 32 33 34 37
6 6 3 1 4 5 5 7 7 9 5 15 26 29 29 27 22 20 19 18 15 10 7 8 11 10 7 5 5 2 2 5 9 12 15 17 19 21 23 25 26 25 25 27 30 32 33 33 31
5 4 3 3 5 6 4 5 5 6 12 15 21 23 22 20 19 15 12 12 13 15 14 13 11 8 5 4 3 4 5 11 18 21 23 24 25 25 25 25 24 26 30 31 30 28 27 28 28
3 1 3 3 3 4 2 3 2 1 4 5 13 16 18 19 18 17 15 15 13 13 10 7 8 7 7 8 9 10 13 18 21 23 23 22 20 21 22 25 27 27 28 27 25 27 27 25 24
4 2 2 2 3 3 4 4 3 7 2 3 6 16 18 17 17 16 14 13 9 6 5 7 8 11 11 12 13 14 14 16 17 17 18 19 21 23 24 23 25 26 26 26 28 26 19 16 16
2 4 6 4 3 2 4 4 3 5 5 4 8 15 17 16 15 13 10 6 3 1 5 5 6 8 10 12 14 16 17 18 18 18 19 21 24 25 25 25 24 26 28 28 22 19 18 17 17
6 5 2 2 3 4 5 3 4 5 7 10 14 19 17 13 11 7 4 3 3 3 3 4 7 9 11 13 15 17 17 17 17 17 20 23 22 22 22 23 25 30 28 23 21 18 16 14 13
2 4 4 5 3 2 5 2 5 2 20 25 23 19 16 11 3 6 7 4 5 6 4 7 11 12 14 16 17 17 19 18 19 23 23 23 22 21 23 25 27 26 22 16 17 17 15 14 13
0 3 3 6 3 3 2 2 4 4 10 20 25 23 10 8 9 7 10 8 6 7 8 10 11 14 15 15 16 17 20 22 25 24 22 24 25 27 25 24 25 21 17 18 16 16 17 17 17
5 4 3 4 2 1 3 3 4 8 8 4 6 10 4 4 6 10 10 7 5 5 6 9 12 14 15 17 18 19 22 27 28 27 22 25 27 28 28 26 26 21 18 16 15 16 17 18 16
4 3 6 5 3 4 1 5 5 9 8 6 8 10 12 12 10 12 11 4 6 5 10 11 13 15 15 16 18 21 26 28 25 25 25 27 29 30 28 28 24 19 16 16 19 19 18 20 20
2 3 4 4 2 2 3 5 4 5 1 16 18 17 16 16 14 8 5 3 4 8 11 11 10 13 15 17 21 24 26 25 25 25 28 28 29 26 23 22 20 19 18 20 17 19 23 21 19

GFSSGP_850_spd_042.txt.gz
Wind_Speed
4 4 3 2 3 4 3 4 1 1 2 2 12 8 8 8 1 1 17 24 22 22 22 19 17 17 16 15 14 12 11 11 10 8 7 6 5 5 4 4 4 3 2 2 3 4 5 7 7
5 5 2 1 4 3 4 3 4 1 13 20 15 10 6 4 4 12 20 18 23 23 22 19 18 16 16 14 12 12 11 9 8 6 6 6 5 5 5 5 5 6 6 6 5 6 6 6 6
6 3 1 3 3 4 3 3 4 13 11 8 6 12 6 4 10 29 15 23 23 22 20 18 16 15 14 12 11 10 8 7 6 6 6 6 6 6 6 6 7 7 7 8 8 7 7 6 5
6 3 2 4 3 4 3 5 7 7 8 11 11 6 4 1 16 15 21 23 23 21 19 17 15 14 13 12 10 9 7 6 6 6 6 6 7 7 7 7 7 7 7 8 8 8 8 8 8
5 1 3 3 2 4 0 7 6 6 4 18 12 5 4 9 4 15 22 22 21 20 19 17 15 14 12 10 8 7 6 6 6 7 8 7 7 7 8 8 8 8 7 7 8 9 9 9 9
2 2 4 1 3 5 2 12 2 8 11 12 6 13 4 11 9 19 20 21 19 18 18 17 15 12 9 7 6 6 6 7 8 8 9 8 8 9 9 9 10 9 8 8 8 9 8 9 9
2 4 4 5 2 5 3 10 6 9 8 4 18 4 6 17 20 19 21 20 19 18 18 16 13 10 8 7 6 7 8 9 9 9 9 9 8 9 10 11 10 11 11 10 10 11 11 11 10
1 5 1 2 2 3 6 12 15 4 1 17 15 6 7 26 23 20 20 19 20 19 16 13 11 9 8 8 8 8 8 9 9 9 9 8 9 8 8 7 8 8 7 7 9 9 10 10 11
1 4 2 5 2 2 15 17 20 3 12 2 5 12 23 28 24 23 23 23 22 19 16 12 8 8 8 9 10 10 10 10 10 10 8 6 7 6 5 4 5 6 4 5 4 6 7 8 10
4 4 7 6 11 8 17 8 8 5 5 4 8 12 32 27 26 26 27 26 22 18 15 11 8 8 10 10 10 10 10 9 11 10 7 5 4 2 2 3 4 4 4 3 3 4 6 7 9
4 4 6 9 22 23 12 8 4 13 2 13 26 33 31 28 26 24 24 23 19 16 15 11 9 11 10 9 8 10 9 8 7 5 4 3 3 4 3 4 5 5 5 5 5 6 6 7 9
2 11 11 14 23 13 11 12 5 8 8 22 24 32 33 29 26 24 24 22 19 17 14 13 11 11 10 8 6 6 5 3 2 0 2 4 4 7 7 7 8 8 7 8 9 10 10 11 13
4 2 7 16 16 12 16 6 9 6 13 19 27 31 31 28 25 21 19 18 19 17 15 13 12 11 12 11 9 7 5 4 4 5 5 7 8 9 10 12 11 10 11 12 12 14 15 16 18
3 8 12 15 13 15 8 5 9 5 20 24 30 31 30 29 27 21 21 20 21 17 15 15 13 12 11 9 5 4 7 9 9 10 9 9 9 10 10 11 11 11 14 15 16 17 19 19 19
8 5 6 5 5 4 10 2 2 16 24 25 30 28 27 27 25 23 21 20 19 18 18 18 16 14 11 10 6 3 6 9 12 11 10 11 11 12 11 10 11 13 16 18 18 19 21 22 25
5 5 4 3 4 2 3 5 1 20 28 22 21 20 21 23 23 25 25 22 22 24 24 24 22 19 14 10 3 4 11 13 15 12 12 13 14 13 14 14 16 18 18 19 21 23 24 26 28
6 3 1 2 2 3 2 1 10 18 24 16 17 15 16 18 19 22 26 26 24 26 29 29 24 19 17 13 17 19 19 18 16 11 12 14 16 17 17 18 17 16 18 22 23 25 27 29 31
4 3 1 3 1 4 4 4 7 4 14 11 11 11 12 14 14 15 16 20 24 28 30 29 21 18 13 18 14 14 8 3 2 7 8 9 11 13 14 15 17 19 22 24 26 27 27 30 32
4 4 2 1 2 6 5 4 7 7 9 9 11 14 15 10 6 6 7 8 11 16 18 16 16 15 15 3 3 3 2 5 10 12 13 14 16 17 19 21 23 24 26 26 28 30 31 31 31
5 5 2 2 6 5 6 6 5 9 6 8 15 21 23 24 21 19 16 13 12 10 4 2 8 8 6 5 4 3 5 7 13 16 16 16 17 19 21 22 23 24 26 29 30 30 31 30 30
5 6 0 4 2 7 5 3 4 5 11 14 17 20 20 20 19 16 11 8 11 16 16 14 12 9 7 5 6 5 4 8 13 17 19 20 20 18 19 21 23 26 27 27 29 28 28 30 27
3 1 2 4 4 2 2 3 2 3 4 5 10 14 14 15 13 12 14 17 15 15 14 14 13 9 6 4 2 4 7 11 13 15 17 16 17 19 22 24 25 26 26 26 28 29 28 25 21
1 5 4 4 5 4 4 4 5 4 4 4 6 10 13 14 14 15 13 12 12 9 9 7 5 2 2 4 5 8 9 12 13 13 16 16 18 20 22 23 23 24 25 27 27 24 21 18 17
4 5 8 5 3 2 2 4 4 4 5 5 8 13 16 15 15 13 11 8 8 8 7 5 2 4 8 8 9 10 13 15 15 15 15 18 20 20 20 20 22 24 25 26 25 23 20 16 14
6 5 3 3 2 4 3 2 5 3 5 12 17 18 16 15 15 15 13 11 9 6 9 4 4 5 10 8 9 10 11 13 14 16 16 14 14 18 19 22 23 24 25 24 22 20 18 19 17
3 5 4 4 3 3 4 3 4 5 9 20 22 20 18 17 16 13 13 12 10 8 8 5 4 7 9 9 10 11 13 14 17 18 19 17 20 23 24 24 25 25 25 22 18 18 17 16 16
2 3 3 6 3 2 2 4 3 5 3 17 23 22 19 15 13 11 12 11 9 7 5 2 4 8 9 10 11 13 14 20 23 22 22 22 23 26 25 25 24 21 20 18 17 15 15 15 17
2 5 2 3 3 3 3 4 4 5 7 6 8 19 19 14 12 9 9 8 6 4 2 4 6 9 10 11 14 15 19 22 24 22 21 23 25 25 25 22 20 22 20 17 15 16 16 18 18
2 2 5 5 3 4 1 5 4 10 11 10 15 19 14 14 11 9 9 9 6 3 3 6 10 12 12 14 13 18 20 20 21 20 23 25 23 24 25 22 24 26 24 17 17 19 16 18 19
2 3 4 4 3 2 3 5 2 2 8 12 11 13 13 13 13 11 8 4 1 4 6 8 12 11 11 11 16 20 23 20 21 21 23 22 22 22 24 23 27 25 22 19 19 16 18 17 17

GFSSGP_850_spd_045.txt.gz
Wind_Speed
6 6 4 2 3 1 0 1 2 4 3 4 4 6 8 8 2 1 8 21 23 23 21 20 19 19 18 17 16 13 12 11 10 9 8 7 6 5 5 5 4 3 3 1 1 2 4 4 5
5 5 4 2 1 3 2 3 6 6 13 15 10 9 5 4 4 8 17 17 22 22 21 19 18 18 17 16 14 12 11 10 10 8 7 6 6 6 6 6 6 6 6 5 5 5 4 5 6
5 7 3 2 2 4 3 7 16 19 11 6 5 6 3 3 7 19 14 20 21 21 20 18 17 17 16 14 12 11 11 10 8 7 7 7 7 7 7 7 7 7 7 7 7 7 7 7 7
5 5 2 1 3 2 3 14 16 16 9 1 12 7 6 8 23 14 14 23 21 21 20 18 16 15 14 13 12 11 10 7 7 7 8 8 8 9 8 8 8 8 8 8 8 8 8 8 9
5 1 2 1 2 1 1 17 9 6 11 6 6 6 7 16 18 17 23 22 21 21 19 17 15 14 13 12 11 9 7 8 8 9 9 8 9 9 9 8 8 8 8 8 8 8 8 8 9
2 0 2 2 1 2 4 14 11 10 2 8 7 14 6 11 13 19 23 22 20 19 18 17 16 14 12 10 9 8 8 8 10 10 9 9 10 9 9 10 9 10 9 10 10 10 10 10 11
1 1 3 3 3 4 5 9 10 10 14 1 12 4 6 14 17 23 22 21 19 18 18 17 15 13 10 9 8 9 10 11 11 11 10 10 10 11 11 11 9 10 9 9 10 9 10 10 11
3 3 4 2 3 5 4 8 14 2 4 8 10 6 7 21 22 22 22 21 19 18 18 16 13 11 9 9 10 10 11 11 12 11 10 9 10 9 8 7 7 6 5 5 6 7 7 8 9
3 1 4 6 6 5 9 6 2 5 7 3 4 7 13 28 25 24 23 22 21 20 18 14 11 10 10 10 11 11 12 11 11 11 8 8 7 6 5 4 3 3 2 2 2 3 3 3 4
4 2 7 6 12 9 8 5 10 1 5 2 4 8 28 26 25 24 24 24 23 20 16 13 12 10 9 9 10 11 11 12 11 9 7 5 4 2 1 1 1 1 1 1 1 2 4 5 6
4 2 6 6 16 20 32 11 6 9 6 6 14 27 28 25 23 22 23 22 21 18 16 15 12 11 10 10 10 10 9 9 9 6 4 3 1 2 3 4 5 5 4 4 5 7 8 8 10
4 3 8 16 18 4 16 12 5 9 2 5 20 33 28 24 23 24 25 23 21 19 16 14 13 12 11 10 9 7 5 5 4 3 3 2 3 2 3 3 6 7 7 7 9 10 11 12 13
3 3 8 16 11 6 15 7 3 5 1 10 23 27 27 24 22 22 22 21 19 17 16 13 12 12 11 9 7 5 4 4 5 6 7 8 7 7 5 5 7 8 8 10 12 14 14 15 16
7 5 6 10 14 8 6 4 7 3 12 15 26 25 24 23 21 22 22 21 20 17 17 14 11 11 10 8 6 6 7 9 10 11 12 12 12 13 9 8 9 10 11 14 15 17 16 17 19
12 7 5 5 11 4 10 3 2 11 18 22 23 24 23 22 20 20 20 19 18 17 17 16 15 14 11 9 5 1 1 6 10 11 14 17 17 14 12 11 12 13 14 15 16 16 17 19 21
4 4 4 1 6 5 4 5 6 12 20 18 18 19 19 18 19 19 19 19 19 19 19 20 20 17 13 11 10 9 9 13 16 14 18 16 14 15 12 12 13 14 15 16 17 20 22 23 25
7 4 3 4 3 5 1 3 8 4 9 11 13 16 17 18 17 18 19 19 18 18 21 23 22 21 18 17 12 13 8 18 18 11 6 9 11 11 10 11 12 14 16 18 20 22 25 27 30
4 5 2 4 1 7 5 3 6 6 10 9 9 12 13 13 14 15 15 15 16 18 20 21 19 17 16 13 22 20 7 2 3 6 6 8 10 13 15 17 18 19 20 21 22 25 27 28 29
4 4 4 1 2 6 4 4 6 5 9 9 8 9 8 7 5 5 7 7 7 8 9 10 9 15 7 12 7 11 7 8 6 5 7 9 12 14 16 17 19 21 23 25 26 27 27 26 28
3 6 3 3 4 4 3 6 6 7 4 5 10 10 10 12 11 8 7 7 7 5 6 4 3 6 9 9 10 10 8 4 3 9 13 16 19 18 17 18 19 22 23 24 25 25 26 26 26
5 5 3 4 4 7 3 2 2 6 8 9 10 14 16 17 19 18 14 11 19 22 20 17 15 14 12 10 7 6 4 3 8 12 15 16 18 16 16 19 20 22 23 23 24 25 26 24 23
4 1 4 5 2 2 3 2 2 3 5 8 12 13 15 17 15 13 20 21 20 20 19 17 15 12 10 7 3 1 2 5 10 10 12 14 14 16 18 19 19 19 21 23 24 24 23 21 16
4 3 4 3 4 3 2 1 3 5 6 9 11 11 14 14 14 19 19 18 17 16 14 13 11 8 5 3 3 5 6 6 7 9 12 15 17 17 17 16 18 19 20 20 21 21 21 19 16
8 5 6 4 2 0 1 2 2 4 5 11 12 13 17 18 18 18 17 14 14 13 13 12 10 8 6 4 4 5 5 5 8 12 15 16 16 14 15 17 18 18 20 21 21 20 18 17 15
4 4 2 0 1 3 0 3 4 3 6 18 21 20 21 19 19 19 18 15 13 13 12 9 8 5 3 3 5 6 6 10 14 15 15 16 15 17 19 20 19 20 20 20 20 20 19 18 16
2 3 4 4 3 1 2 4 2 3 6 10 18 22 22 21 20 17 15 13 12 10 10 9 6 5 4 4 5 6 10 12 14 17 16 16 19 19 21 21 22 21 20 21 22 22 20 16 16
3 2 2 6 1 1 1 3 4 1 2 12 20 19 21 20 17 14 13 14 12 11 10 7 6 4 3 4 7 10 10 13 15 16 16 18 21 21 21 22 23 22 21 23 24 23 18 17 17
1 7 3 2 4 3 2 4 4 3 6 9 16 20 15 14 13 14 13 13 13 11 9 7 3 3 5 8 10 8 12 15 18 20 20 21 22 23 23 23 23 23 22 22 23 22 17 18 16
2 2 5 4 1 3 1 3 3 7 9 15 18 12 12 12 11 11 12 13 12 9 7 3 3 5 8 10 10 12 17 20 20 21 22 22 23 22 22 22 24 24 24 23 24 19 16 14 16
1 3 4 3 4 1 1 4 1 4 9 9 9 11 13 12 14 14 14 12 9 6 3 2 6 7 11 9 12 15 16 20 23 21 19 21 25 24 24 23 23 25 24 22 25 15 11 13 16

GFSSGP_850_spd_048.txt.gz
Wind_Speed
7 6 2 3 6 6 10 5 3 9 7 8 6 2 2 13 2 2 15 15 21 20 19 22 21 20 19 17 16 14 12 11 10 8 7 7 6 4 4 3 2 1 0 1 2 3 5 6 6
7 4 3 4 7 10 7 4 5 8 15 13 13 6 2 6 6 13 16 18 20 21 18 20 20 19 17 16 14 12 11 10 8 8 7 6 6 6 6 5 5 4 4 3 4 5 5 6 7
5 6 7 4 8 10 2 4 14 22 14 11 8 10 7 4 8 8 14 20 19 18 17 19 20 18 17 16 14 12 10 9 8 8 7 7 6 6 6 6 7 6 6 5 6 7 6 7 8
4 4 6 8 7 3 1 11 21 19 12 8 22 5 2 11 12 15 14 18 18 16 15 19 18 17 17 16 13 11 10 9 9 8 8 7 7 7 7 7 7 7 6 6 6 6 6 7 8
6 5 7 10 4 3 4 19 23 12 13 9 11 10 8 7 15 21 24 17 18 16 16 18 17 17 16 14 12 10 10 9 9 8 8 8 8 8 7 7 7 7 7 6 6 7 8 9 9
9 5 7 10 6 4 9 13 14 15 17 16 10 17 9 13 15 17 22 22 19 18 18 18 17 15 13 12 10 10 9 9 9 10 9 8 8 8 8 8 7 8 8 7 8 8 9 9 10
10 7 5 3 5 8 10 10 12 13 8 7 6 7 6 14 16 18 23 21 18 17 16 15 16 15 12 10 9 9 9 9 10 9 9 9 8 9 9 8 8 6 6 7 7 6 7 7 8
6 4 6 3 8 7 12 8 14 16 6 6 8 5 7 19 20 23 21 19 17 17 15 15 14 12 11 10 10 9 10 11 10 10 9 8 8 7 6 5 4 3 3 3 3 3 3 4 5
3 5 4 6 9 10 7 7 4 4 9 6 5 1 7 24 25 22 20 18 17 17 19 16 12 12 11 9 10 11 11 11 10 10 8 8 5 5 3 2 0 1 1 1 1 1 2 3 5
8 8 4 1 13 14 9 4 7 6 3 4 6 9 19 27 25 23 22 22 21 21 18 15 13 11 11 10 11 12 12 11 11 8 6 5 3 2 1 2 3 4 4 4 5 5 6 5 4
7 9 4 8 10 12 15 8 11 8 5 4 9 18 23 22 21 20 19 19 20 18 15 14 11 12 12 11 10 9 8 9 9 6 5 3 1 2 3 4 4 6 7 4 5 6 5 9 9
7 3 3 13 13 7 23 23 11 13 8 1 9 24 25 23 20 20 19 19 17 14 14 13 12 12 12 11 10 10 8 8 6 5 4 3 3 5 4 5 6 7 7 7 7 6 13 14 15
10 4 2 10 10 4 14 15 3 4 4 12 19 22 20 17 16 17 17 15 14 13 13 13 12 12 11 10 10 9 7 5 5 6 8 7 7 7 7 8 7 8 8 7 8 9 10 13 14
6 12 12 5 9 9 13 7 5 5 9 15 20 17 16 15 15 15 14 13 12 12 12 13 13 11 10 9 7 6 6 5 8 10 13 12 11 12 13 13 11 11 11 10 11 12 11 11 14
10 6 7 7 12 6 10 9 6 4 11 17 17 15 15 14 13 12 11 10 10 11 11 13 13 12 11 10 8 7 6 0 6 9 10 12 14 12 11 11 10 13 13 14 12 13 12 14 18
5 9 7 6 13 4 10 12 4 5 11 16 16 15 14 11 10 8 8 9 9 10 11 13 17 16 14 11 10 9 8 15 14 15 11 7 6 7 8 8 11 12 13 14 13 13 14 15 17
6 7 9 7 2 6 8 9 4 4 11 14 14 14 14 10 8 6 8 8 8 11 13 15 18 19 18 18 3 4 7 19 12 3 5 6 7 9 9 10 11 12 11 11 13 13 17 17 18
7 12 10 11 6 12 9 7 5 6 12 13 12 12 12 11 7 7 10 10 11 14 15 15 18 18 15 17 5 8 10 6 4 3 5 7 8 10 11 14 15 13 10 11 18 18 15 16 18
3 8 13 8 4 7 5 6 3 5 11 12 13 12 9 8 5 4 6 7 9 12 12 10 7 9 8 8 6 9 12 10 6 1 5 9 12 15 15 12 14 16 13 19 19 16 16 17 17
6 7 7 6 5 4 10 9 7 9 9 11 11 10 9 8 7 6 6 8 9 12 12 12 8 7 10 11 11 11 11 8 4 3 7 10 14 17 15 14 13 18 13 13 14 16 16 16 15
5 5 10 7 7 2 8 6 8 5 8 7 7 8 9 10 12 12 11 12 14 14 14 13 13 14 14 13 12 11 11 5 3 4 5 13 15 13 14 16 17 16 13 13 15 14 14 16 16
6 3 6 11 12 7 6 5 10 9 8 8 10 12 13 14 14 11 16 17 17 17 15 15 14 14 15 14 10 10 6 5 6 4 8 10 13 14 16 17 14 13 13 13 13 13 14 14 16
4 4 5 5 5 5 9 7 8 9 9 11 13 14 15 14 13 18 18 18 16 18 15 14 13 11 14 11 8 6 4 5 3 5 9 9 10 13 15 14 14 13 13 13 13 13 13 15 15
12 8 6 3 3 8 3 6 6 5 8 12 16 17 16 15 17 18 16 15 13 16 16 14 12 11 10 7 7 7 7 6 3 5 7 9 10 9 12 13 14 14 15 15 15 15 16 16 16
6 6 3 5 5 6 3 6 10 4 4 12 18 20 18 18 20 19 17 14 12 13 13 11 10 8 8 8 7 7 6 3 4 6 9 11 13 14 16 17 18 19 19 18 17 18 17 17 18
3 4 3 4 3 1 2 5 3 3 1 7 17 19 20 20 19 17 16 14 12 12 11 10 9 9 8 6 4 3 2 4 6 9 11 14 15 16 17 18 19 19 21 21 19 18 18 18 18
4 5 3 2 1 3 3 3 6 3 4 10 16 20 22 21 18 16 14 13 13 11 11 10 8 7 7 6 7 9 9 9 10 14 14 13 15 18 19 20 21 22 22 21 20 20 20 20 18
4 9 3 3 3 4 4 4 2 7 8 12 17 22 21 18 16 15 14 12 11 10 11 13 10 9 6 5 8 8 9 10 13 13 12 13 15 16 18 20 21 23 23 21 21 20 20 19 18
5 5 1 1 2 2 2 3 3 4 9 14 18 21 20 18 16 15 13 11 11 11 11 11 7 5 4 6 9 8 9 13 11 11 11 12 15 18 20 21 22 22 23 21 21 21 20 21 15
3 6 9 4 5 1 2 2 5 3 5 9 15 19 17 17 15 14 13 14 13 12 10 10 7 4 11 7 3 7 10 10 10 10 12 15 17 19 20 19 19 19 19 19 22 25 21 13 12

GFSSGP_850_spd_051.txt.gz
Wind_Speed
7 7 5 10 8 8 17 19 5 10 10 3 10 6 11 19 10 6 15 18 22 21 24 24 22 21 19 17 16 14 12 11 9 8 7 5 4 3 2 1 1 2 3 3 4 4 5 5 7
4 7 8 15 10 14 14 22 9 14 17 15 15 8 10 10 11 12 14 19 21 20 23 23 22 20 18 16 15 13 11 10 8 7 5 4 3 3 2 1 1 2 3 3 4 5 6 7 8
6 8 14 10 14 15 9 7 16 14 9 6 7 12 8 7 10 7 15 20 19 18 20 23 21 19 16 14 13 11 10 9 7 5 4 4 4 3 3 4 4 4 4 4 5 6 7 8 9
5 9 14 10 18 15 9 9 18 15 11 8 14 11 11 10 6 7 18 20 18 18 17 21 20 17 15 13 11 11 9 8 6 4 5 4 5 5 5 5 5 4 5 5 5 6 7 9 10
9 15 12 14 19 3 7 17 10 11 10 10 7 9 12 12 17 8 16 16 13 17 16 20 18 16 14 13 12 10 9 6 5 6 5 5 5 6 6 6 5 5 5 5 6 7 7 8 10
14 17 13 14 15 7 9 13 15 15 13 11 12 12 8 9 14 19 17 19 19 18 18 18 17 15 14 13 11 9 7 7 7 7 6 6 6 6 6 6 6 6 5 6 6 6 6 7 9
17 12 16 14 1 6 12 11 16 9 13 2 18 11 9 18 19 20 16 17 11 15 16 17 17 16 14 12 9 8 8 8 8 8 7 7 7 7 6 6 6 5 4 4 4 4 5 6 7
20 12 19 12 5 8 5 19 18 12 13 9 7 6 10 19 20 22 30 21 17 15 13 13 12 11 11 11 10 9 9 9 9 8 8 8 7 5 5 5 4 3 3 4 4 4 5 6 7
13 12 13 8 10 9 10 17 18 8 13 7 6 6 11 24 21 26 28 22 19 18 16 15 13 11 9 7 10 10 10 9 8 9 8 9 5 5 6 4 4 5 6 6 7 7 8 9 10
14 12 5 11 10 7 8 12 9 4 6 1 10 11 15 22 20 20 19 19 16 17 16 14 13 12 12 8 10 8 9 8 7 4 6 5 4 5 4 5 5 8 8 9 10 10 10 8 8
16 15 6 9 13 13 13 14 6 7 4 12 9 14 19 20 18 15 16 17 16 17 14 12 13 13 11 11 8 7 7 7 6 6 5 5 2 2 4 5 9 8 11 7 10 10 8 10 10
11 12 7 8 14 7 13 13 18 17 22 3 16 17 19 19 18 18 19 18 18 16 14 11 11 13 11 10 9 8 6 6 4 3 2 3 3 6 4 4 4 8 5 8 8 9 10 10 10
10 2 9 14 14 5 13 13 10 13 4 10 19 21 21 18 17 17 17 17 16 14 13 13 12 12 12 11 9 9 6 6 7 4 5 7 8 8 6 6 6 10 6 6 8 9 10 12 12
8 10 6 3 3 3 14 7 11 11 11 19 21 20 19 18 18 19 18 17 16 15 14 14 13 11 11 9 9 7 8 4 3 4 7 10 11 10 9 11 6 4 4 6 8 12 13 13 14
8 8 8 7 8 6 10 9 11 11 15 19 17 17 17 18 18 17 17 16 15 14 15 14 14 12 11 11 11 9 8 6 4 6 11 11 11 10 5 3 6 9 12 12 12 12 14 14 16
10 11 13 16 12 6 14 13 9 13 15 16 17 17 17 16 15 15 14 13 13 13 14 14 13 15 20 16 16 14 12 5 2 12 12 5 3 3 4 6 8 10 12 13 10 11 14 17 18
10 10 12 6 16 9 11 13 13 13 16 17 17 17 17 16 14 11 11 12 12 13 13 14 18 22 18 15 12 15 19 12 12 18 9 5 4 6 8 7 8 9 8 9 10 11 14 16 18
8 12 11 14 12 10 11 13 11 13 16 17 16 16 15 14 12 10 9 10 10 13 15 16 21 18 16 16 13 14 16 20 14 7 4 3 4 6 5 6 6 7 7 9 11 13 14 15 17
3 9 10 9 10 12 12 8 9 15 15 13 13 14 14 13 9 8 8 8 11 14 17 24 17 13 12 7 9 9 11 12 11 6 5 3 1 3 5 5 7 10 9 11 12 13 15 16 18
5 5 10 8 10 8 7 10 10 12 14 15 17 17 16 13 11 9 9 9 12 14 15 12 12 11 8 6 7 10 10 10 9 8 4 3 6 14 8 16 10 11 12 12 12 14 16 17 17
7 5 10 12 10 13 9 12 12 11 12 12 14 14 14 15 13 13 12 12 14 15 14 13 12 12 11 11 12 11 11 9 7 5 2 7 12 18 20 15 12 11 11 12 14 14 15 18 18
7 2 0 4 13 14 16 11 13 13 13 12 15 14 15 15 15 14 15 15 15 15 15 14 14 13 13 12 9 10 8 6 7 2 6 5 12 8 9 10 10 10 12 14 15 15 17 17 21
12 3 4 7 11 12 16 8 21 17 16 16 17 18 17 17 17 17 18 19 18 17 16 15 14 13 12 10 9 9 6 4 4 4 6 9 9 11 10 9 11 13 15 16 18 19 18 19 21
5 4 6 7 10 8 14 10 8 14 12 16 16 18 19 18 17 19 19 19 17 16 15 14 13 11 10 9 8 7 6 5 5 6 8 8 10 10 11 13 14 17 18 18 19 24 21 21 21
7 7 7 6 6 9 4 4 15 9 3 10 16 19 19 18 20 21 20 18 15 14 14 12 12 10 9 8 7 6 4 5 4 7 9 10 11 13 13 14 16 18 19 21 22 24 23 21 21
9 9 5 5 8 6 6 7 3 9 4 5 16 19 20 19 21 21 19 16 14 13 13 12 12 11 9 8 7 5 2 3 6 9 11 13 13 13 15 17 18 20 21 22 22 26 22 19 20
5 7 5 5 3 6 10 5 7 7 8 10 16 20 21 22 22 20 18 16 14 13 13 13 13 12 11 11 9 4 5 9 9 10 12 12 13 14 16 17 18 19 20 21 22 24 24 22 20
9 3 4 5 3 7 9 7 6 10 10 11 16 20 22 22 21 19 17 16 15 14 13 13 13 13 10 8 6 10 14 7 9 10 12 12 12 13 15 17 18 20 20 21 22 23 22 20 19
7 9 7 4 3 4 4 2 8 7 9 12 16 20 23 24 22 19 17 15 15 14 14 14 14 11 9 6 13 10 4 8 10 11 11 11 12 14 16 18 18 18 19 20 20 22 20 20 21
9 8 9 6 7 5 4 4 4 6 7 11 14 18 21 22 20 18 17 16 16 16 15 14 14 12 5 12 2 5 8 10 10 11 11 12 14 15 17 18 18 19 19 19 19 19 18 18 16

GFSSGP_850_spd_054.txt.gz
Wind_Speed
6 4 4 10 6 8 16 19 21 6 6 11 13 13 20 22 7 6 15 25 19 23 28 25 23 22 22 20 19 16 13 10 9 8 7 6 5 4 5 6 6 6 7 8 8 9 9 10 11
6 11 10 10 8 13 14 7 12 13 9 22 22 6 11 9 16 18 18 22 22 22 26 26 24 21 20 19 17 14 11 9 8 7 5 4 3 4 5 6 6 7 8 8 10 10 10 11 12
7 6 11 6 12 15 17 20 16 16 14 12 5 10 7 6 8 6 21 22 24 26 26 24 23 21 19 18 15 13 11 9 7 5 3 3 3 4 5 5 6 7 8 9 10 10 11 12 13
5 9 12 9 18 21 21 15 21 9 14 15 17 10 7 4 13 18 21 18 23 25 24 24 21 21 19 16 13 12 10 8 6 5 3 3 4 5 5 6 7 7 8 8 9 10 11 13 15
12 13 11 14 16 21 4 19 22 17 10 11 14 8 10 13 19 23 25 17 20 21 24 21 19 18 17 14 12 11 9 6 5 5 4 4 5 5 6 7 7 7 8 8 9 10 11 12 14
17 16 13 15 20 15 0 26 28 19 17 13 16 12 7 14 21 24 23 21 15 19 21 19 18 17 16 14 12 10 8 6 5 5 5 5 6 6 7 8 8 8 8 8 8 9 9 11 12
14 12 16 19 17 10 9 28 25 13 8 2 11 10 12 13 10 17 20 17 16 27 20 19 19 17 15 13 10 9 7 6 6 7 7 7 8 9 9 9 8 8 7 7 7 8 8 9 10
18 13 21 19 17 18 21 10 3 10 4 5 8 6 11 17 17 18 18 20 23 18 20 18 16 14 13 12 10 8 8 7 8 9 8 9 9 9 8 9 8 7 7 7 7 7 8 10 11
18 11 14 18 15 5 24 16 21 12 6 8 16 15 19 19 22 17 18 20 21 24 19 17 16 12 11 10 9 9 8 9 10 11 12 11 11 9 6 10 9 9 10 9 9 9 9 9 10
13 11 16 16 7 7 7 12 9 3 11 26 24 25 27 26 25 26 19 18 18 19 23 22 17 11 10 9 10 10 11 11 11 12 11 7 6 3 7 8 9 9 12 10 10 12 9 7 10
16 14 13 17 21 14 12 7 29 6 13 3 15 26 27 23 21 20 33 23 26 19 18 18 17 19 14 9 10 13 11 9 10 8 7 3 4 4 3 6 7 12 9 8 8 11 6 8 13
15 17 6 15 12 9 11 22 17 4 4 0 23 24 25 25 20 26 24 27 28 21 18 17 18 20 14 15 13 10 9 9 5 5 6 4 5 4 6 6 2 2 2 7 6 4 11 7 10
10 7 13 7 14 3 14 25 8 13 12 20 23 21 23 21 22 25 24 28 24 19 15 14 17 16 20 15 15 15 16 13 10 7 7 5 5 6 5 6 4 9 9 7 9 9 12 11 11
6 2 15 14 10 17 6 23 10 14 4 18 19 20 20 25 10 12 22 20 19 20 17 15 16 18 18 17 17 15 15 13 11 7 5 4 5 3 3 4 6 9 11 11 12 13 16 16 16
10 5 6 14 25 15 12 14 9 17 18 16 16 17 12 15 27 18 19 18 19 17 16 16 17 19 16 14 17 20 16 8 6 4 6 8 6 4 2 4 5 7 9 12 13 13 12 13 16
11 3 2 7 7 16 13 6 13 17 18 16 16 16 16 15 18 18 17 17 16 18 17 17 16 21 19 21 18 10 10 6 10 8 9 8 7 3 2 3 5 8 11 11 16 14 16 18 19
3 5 14 13 12 12 14 9 17 18 16 17 17 17 17 15 17 16 14 15 16 18 18 21 22 21 22 15 11 16 15 21 20 17 14 9 3 4 7 11 12 10 6 10 13 19 20 19 19
13 15 14 12 10 11 13 6 13 20 23 21 17 17 18 17 16 13 13 13 15 18 21 24 22 12 19 14 11 10 13 18 21 15 6 1 2 5 6 10 14 12 6 12 18 18 20 17 18
10 7 15 13 11 8 9 15 13 15 19 18 25 23 21 16 14 14 13 14 13 17 24 23 18 14 11 10 10 9 8 11 14 13 11 1 2 5 7 3 8 13 15 13 13 16 20 20 19
14 4 7 8 9 10 11 11 11 15 13 16 18 18 20 20 15 13 14 14 14 18 23 19 12 13 10 6 5 6 10 9 8 8 7 7 5 6 3 14 14 13 17 16 13 19 23 22 16
5 6 11 4 8 8 8 11 14 11 10 11 16 20 20 21 16 15 14 14 18 20 20 15 13 11 13 11 11 8 11 12 14 9 4 5 8 6 12 15 18 18 17 13 16 18 16 18 24
12 6 17 9 16 7 7 1 3 13 15 16 23 26 26 22 20 18 19 18 16 16 14 16 11 11 12 14 13 14 11 9 10 8 9 1 10 13 18 16 18 14 13 14 15 15 21 25 18
1 11 13 12 7 7 7 7 16 15 15 14 14 15 17 18 18 16 16 10 15 16 15 18 17 16 16 13 13 12 8 8 10 7 6 6 11 12 14 15 11 13 15 17 20 21 19 20 25
6 6 14 9 9 6 13 13 4 10 12 14 17 17 17 16 17 17 18 20 21 21 20 20 18 16 16 15 14 13 13 11 10 10 10 8 9 10 10 10 11 13 15 18 19 23 27 28 28
11 9 4 6 6 5 7 13 8 20 17 26 18 21 20 20 21 22 24 22 21 21 22 21 18 16 14 13 12 14 16 14 11 7 6 10 12 12 14 17 18 19 22 22 23 25 27 28 30
17 8 2 2 5 5 13 5 7 11 9 17 20 20 21 22 23 25 25 24 20 19 18 17 17 15 14 13 12 12 11 6 7 9 10 13 13 14 15 18 19 20 22 23 23 23 25 26 27
8 3 5 6 5 2 5 11 5 10 10 13 18 21 22 23 25 25 25 23 20 19 18 17 16 17 16 15 14 13 10 7 14 8 12 12 12 14 14 18 20 18 21 22 22 23 23 22 23
6 7 4 2 2 5 10 13 6 10 10 10 14 18 22 22 24 25 24 21 18 19 17 17 15 17 20 20 17 10 8 7 4 12 11 11 14 14 15 16 18 20 20 20 21 21 24 23 28
6 8 8 10 4 2 3 4 8 10 11 10 13 19 22 23 24 23 22 21 17 20 21 19 16 19 18 18 13 6 6 6 11 9 11 13 13 14 15 18 19 18 19 19 20 20 19 18 18
10 10 9 4 7 2 3 6 3 3 8 11 12 17 20 23 24 23 21 20 19 15 16 17 18 14 18 14 8 12 7 7 10 10 12 13 14 15 16 17 18 18 18 19 22 24 22 21 23

GFSSGP_850_spd_057.txt.gz
Wind_Speed
6 2 4 4 2 2 5 9 4 6 6 8 20 21 15 23 5 3 21 23 26 28 25 24 24 25 24 23 22 20 18 15 14 12 10 9 9 9 10 9 11 12 12 12 13 14 15 15 16
5 4 7 5 3 1 6 10 6 3 6 6 16 12 15 8 7 19 24 25 20 35 28 26 27 26 23 22 20 18 16 14 13 10 9 9 9 9 10 11 12 12 12 12 13 15 16 16 16
5 8 4 4 3 7 6 3 6 5 8 8 7 16 6 7 13 9 18 21 31 34 33 27 27 26 23 21 18 16 15 13 11 9 9 10 9 10 11 12 11 11 12 13 15 17 18 18 18
2 4 6 1 11 17 13 6 11 7 11 11 20 8 7 5 13 18 24 28 33 33 32 27 27 25 22 19 16 15 14 12 10 9 9 10 10 11 11 11 11 11 13 14 15 17 18 19 20
7 7 2 4 12 9 2 10 5 6 7 6 11 5 4 5 16 25 23 25 30 31 27 29 26 23 19 17 15 14 12 11 10 9 10 11 11 11 11 11 12 12 13 13 14 15 15 17 17
6 3 2 6 12 6 13 22 23 16 20 16 10 9 4 9 17 19 19 23 28 31 25 23 22 21 20 16 15 12 11 10 10 11 11 11 12 12 12 13 12 11 11 11 12 13 13 13 14
8 2 7 11 12 3 4 8 6 5 3 3 21 5 11 14 17 17 16 20 27 34 22 18 19 18 18 15 13 11 10 11 11 12 12 13 14 13 13 12 10 10 10 9 9 9 9 10 11
20 4 8 9 7 3 2 2 6 14 6 9 6 6 8 20 19 18 17 18 28 28 29 19 18 16 15 13 11 10 11 11 12 13 14 15 14 13 13 11 10 9 9 8 8 8 8 8 8
19 2 7 9 2 5 3 2 7 3 6 13 18 10 18 26 23 22 26 29 26 23 27 19 18 16 14 11 10 11 13 13 14 15 16 13 12 12 10 9 9 11 10 8 10 10 7 5 6
2 2 6 0 6 5 9 9 8 2 4 9 20 2 21 25 28 29 29 31 28 30 27 19 18 16 14 13 12 13 15 15 18 16 13 10 8 6 6 4 7 10 9 8 9 8 5 6 7
16 8 4 6 13 17 8 7 4 11 2 9 24 30 27 28 28 29 30 30 26 27 23 23 18 16 14 13 15 17 17 18 18 13 14 9 6 4 2 1 4 5 5 7 5 5 3 2 6
7 5 12 6 7 10 4 1 3 12 7 13 28 29 24 26 33 32 28 26 28 24 25 24 19 16 11 19 18 15 15 13 14 12 14 13 13 9 4 2 2 4 4 4 3 4 3 6 6
10 9 17 11 6 17 10 9 4 7 19 19 24 27 25 23 23 22 23 26 24 24 21 22 25 20 18 19 18 19 18 19 17 14 11 9 8 6 6 8 6 7 8 9 8 10 11 12 13
10 22 22 11 14 16 5 5 7 17 19 11 27 26 23 31 38 20 28 30 28 21 20 24 21 25 20 23 22 23 20 17 14 10 7 4 2 2 4 5 6 5 6 7 9 11 13 14 14
13 6 5 11 13 2 3 8 6 9 26 24 29 21 23 38 32 42 34 34 24 21 21 24 27 25 22 25 22 19 18 15 11 11 7 3 4 1 2 3 3 3 6 8 10 11 11 13 16
5 4 1 11 19 6 4 7 4 16 15 23 27 27 41 40 37 34 36 32 27 19 19 24 29 24 22 21 21 17 15 13 13 9 4 4 3 3 4 2 1 4 8 10 14 15 17 16 16
5 1 3 5 19 13 6 5 6 15 13 18 21 29 30 26 29 35 36 31 25 17 21 26 25 25 23 15 16 15 16 15 11 10 9 5 3 3 1 3 7 8 8 11 14 17 18 19 19
3 3 5 8 8 13 7 8 7 21 19 20 20 23 25 26 28 26 25 25 25 26 24 27 23 20 20 16 16 11 18 13 13 12 10 3 4 1 5 6 9 10 10 12 17 19 22 22 21
9 8 11 10 10 9 9 10 13 18 19 13 12 21 21 25 26 25 21 25 27 27 27 27 22 21 20 20 14 15 12 11 13 11 9 8 5 3 0 4 9 13 16 17 18 18 21 25 28
12 6 24 16 6 6 8 8 10 14 17 18 20 15 25 26 25 24 22 20 25 28 27 26 21 15 14 14 10 8 10 8 9 9 9 6 4 5 7 7 12 17 17 17 19 21 23 25 24
5 4 2 5 6 2 3 3 6 7 19 21 29 27 33 30 26 23 20 21 14 26 27 23 16 13 13 14 10 6 10 13 13 10 6 8 7 9 12 17 20 18 20 19 21 21 22 22 23
1 5 5 6 4 2 4 3 3 6 6 16 24 29 32 29 24 24 23 21 17 21 20 14 8 18 18 16 15 15 15 15 12 9 9 6 7 14 16 19 20 21 19 19 18 17 20 24 25
6 8 5 4 6 3 3 6 6 5 3 7 13 25 32 32 27 27 24 20 20 18 17 12 19 18 18 19 14 15 11 15 16 15 12 7 6 9 12 16 14 11 12 14 15 17 18 22 25
6 4 2 5 2 2 9 5 5 8 12 5 14 22 27 31 29 28 22 20 15 17 21 20 17 18 23 16 17 17 15 20 18 15 12 11 8 10 10 9 9 10 14 17 21 24 25 26 28
6 3 3 5 6 4 5 4 8 4 13 13 15 21 24 28 26 24 22 22 20 18 18 23 24 25 23 20 21 21 18 19 17 15 13 13 15 15 17 18 19 21 24 27 26 25 24 24 24
3 3 4 4 2 5 4 5 4 7 15 28 27 23 24 25 26 25 26 27 27 25 25 24 23 23 22 23 23 23 21 17 13 10 13 13 15 19 19 22 23 25 25 26 24 24 26 26 23
1 4 6 2 2 3 4 3 6 6 3 15 18 26 28 28 27 29 30 29 26 26 25 24 18 19 20 21 23 22 18 14 12 13 12 18 19 19 19 21 22 23 22 23 22 22 23 23 23
7 12 3 3 1 3 4 3 4 6 6 9 10 23 27 27 28 30 31 29 26 21 20 21 21 23 24 24 23 20 15 13 12 16 21 14 18 18 20 20 21 21 21 19 19 20 20 20 21
1 3 3 4 5 5 1 5 5 10 9 9 15 28 30 30 31 29 32 30 26 23 20 25 22 24 25 25 23 17 12 11 12 11 13 15 18 19 19 21 22 22 20 20 20 22 24 26 25
6 5 5 5 5 3 5 5 2 8 10 19 22 32 33 32 31 30 29 30 29 31 30 30 25 23 24 22 16 10 8 5 7 9 13 14 15 17 19 21 22 23 20 21 24 26 30 27 26

GFSSGP_850_spd_060.txt.gz
Wind_Speed
3 3 3 2 4 5 4 7 4 6 2 4 7 11 10 7 1 4 21 20 33 31 29 32 30 27 25 23 22 20 18 17 15 13 13 13 13 14 14 15 16 17 17 18 18 19 19 20 19
3 3 1 2 4 3 6 5 3 4 5 11 15 11 6 4 4 14 27 30 32 31 30 32 33 27 25 23 22 19 16 15 13 13 14 14 14 15 16 16 16 17 17 18 20 20 20 19 18
2 4 1 4 4 5 4 4 3 2 4 4 6 11 5 5 13 19 23 33 34 31 30 32 33 31 27 23 21 17 15 13 11 13 14 14 15 16 17 17 16 16 18 19 21 22 22 20 16
2 4 3 3 5 6 5 5 0 3 1 4 12 8 7 5 10 19 27 33 32 34 32 32 33 30 27 24 20 15 13 11 11 13 14 15 16 16 16 16 16 16 18 19 20 21 22 22 19
2 1 0 4 3 1 5 9 3 2 1 7 1 3 5 6 11 20 26 29 33 30 26 28 29 27 24 21 17 15 12 10 11 13 14 15 16 16 16 16 16 16 16 17 17 18 18 19 18
1 1 2 1 2 0 2 7 2 6 8 5 9 6 4 7 16 25 27 31 31 32 34 24 25 24 22 17 16 13 11 11 12 14 14 15 16 17 16 15 14 14 14 14 14 14 13 13 13
4 3 4 4 3 4 3 1 1 1 11 12 4 4 6 11 14 17 26 33 34 34 35 32 25 22 19 15 14 12 11 12 13 14 15 16 17 16 15 13 12 12 11 11 11 10 9 10 12
4 4 2 4 2 5 5 3 6 12 6 7 6 4 5 16 17 17 22 33 32 33 32 31 25 17 19 18 13 12 13 13 13 15 17 18 18 16 14 14 12 11 10 11 10 7 6 5 5
6 3 4 5 6 4 9 6 8 2 3 8 4 6 19 21 18 20 26 28 29 24 26 28 28 20 18 16 14 13 13 14 16 18 18 18 17 14 14 14 13 12 12 13 10 8 6 4 5
4 3 5 4 5 4 7 5 8 2 7 6 10 17 28 25 20 25 30 27 24 24 29 24 23 21 18 14 11 13 16 17 18 16 15 16 13 12 11 11 9 9 10 9 6 4 3 1 4
3 4 7 1 5 11 7 6 4 5 1 9 19 26 28 27 28 31 28 23 29 34 29 24 22 20 18 15 14 16 19 21 18 15 13 11 10 9 5 5 7 5 8 6 4 4 3 3 4
4 9 14 14 11 8 5 12 3 3 7 7 9 24 29 33 31 29 30 21 28 26 24 23 20 18 16 17 17 20 21 21 17 14 13 9 7 5 4 5 4 5 4 2 4 4 3 5 6
6 5 9 15 13 8 7 6 6 5 3 8 17 22 28 28 27 33 17 22 27 25 23 22 20 16 18 20 20 22 22 20 17 12 11 8 7 5 4 5 6 5 5 6 7 7 9 11 12
2 10 16 8 11 7 2 4 10 3 9 23 19 19 28 29 30 19 20 28 27 23 26 24 20 19 21 21 21 20 18 17 15 12 10 7 7 6 7 7 7 6 6 6 7 9 11 12 12
9 6 5 7 8 1 6 5 4 20 15 26 22 23 33 35 31 32 30 29 24 25 26 26 25 24 22 18 17 16 15 16 14 11 8 6 6 4 6 8 6 5 4 6 9 10 10 11 11
3 4 4 3 1 4 8 2 4 20 27 22 25 27 34 37 26 25 28 33 26 24 25 29 27 25 20 19 19 21 18 16 13 11 9 5 2 6 7 6 4 3 5 7 9 11 13 12 14
5 1 6 1 8 2 5 3 4 26 21 23 29 35 39 35 29 30 34 35 33 27 27 31 30 27 23 22 21 19 17 16 13 9 5 4 7 10 7 6 4 3 7 10 12 14 14 17 18
3 2 3 5 5 4 3 6 6 25 22 26 30 37 37 34 38 33 39 38 33 24 26 29 29 25 25 21 21 21 18 16 11 9 6 8 10 8 6 3 4 8 11 12 13 14 17 19 21
6 11 10 10 8 4 8 6 10 15 23 25 29 34 37 37 35 36 37 33 34 30 29 28 30 28 27 24 21 22 17 18 12 9 10 9 6 6 4 5 8 10 12 12 13 15 18 20 23
5 8 17 16 6 10 5 7 6 9 19 32 35 32 34 32 32 37 37 41 39 34 31 29 26 25 25 23 19 18 17 16 10 10 10 10 9 5 4 6 10 13 13 14 14 17 19 22 23
10 8 6 7 3 6 5 3 2 3 2 15 25 37 41 41 40 42 45 43 40 36 33 30 26 25 22 21 20 16 16 15 15 14 11 10 8 7 8 13 15 18 20 18 17 19 21 21 21
7 7 5 2 3 5 2 4 4 7 10 5 15 25 34 40 38 35 38 37 36 34 33 32 31 25 20 22 21 16 17 16 14 11 10 10 10 10 14 15 18 20 23 20 20 19 19 20 22
10 3 4 2 4 4 2 4 6 5 9 14 20 30 33 43 41 39 36 31 24 27 31 31 22 19 22 23 20 14 14 13 13 16 15 13 12 10 12 14 16 17 18 18 18 19 21 24 26
8 3 7 7 3 3 2 5 5 5 12 9 13 30 35 41 39 36 29 24 23 22 26 20 19 23 22 21 18 20 18 17 18 20 18 14 12 10 14 15 15 17 18 18 20 23 27 26 26
4 6 3 4 4 4 6 3 8 6 9 8 11 25 33 41 38 35 31 25 26 21 19 22 24 22 24 24 24 23 21 20 20 22 20 18 16 14 11 13 20 18 19 21 23 25 26 24 24
4 4 5 3 3 5 3 5 5 7 14 8 22 24 31 37 37 36 32 22 22 23 25 26 25 23 25 25 25 23 23 21 20 19 15 11 10 13 22 23 21 23 24 25 25 26 26 26 25
2 2 7 4 1 1 3 5 7 4 3 2 12 21 27 36 36 33 29 27 27 26 25 27 26 30 27 23 22 21 20 19 20 18 11 11 17 21 17 19 21 25 24 25 26 27 26 25 23
5 6 3 3 2 3 4 4 5 4 3 3 8 19 29 31 33 32 31 30 25 22 25 26 28 26 23 21 21 20 20 20 17 12 15 19 17 18 19 21 23 24 26 26 26 24 23 23 24
3 2 1 4 4 4 1 5 5 8 7 9 13 27 35 35 34 34 33 31 26 25 28 29 28 26 24 25 24 23 23 19 12 13 17 15 16 20 21 24 25 26 28 27 25 22 25 27 28
4 5 6 5 4 1 4 5 4 10 10 19 23 29 34 35 35 34 34 34 33 30 28 30 31 26 27 30 27 23 21 14 14 7 11 15 16 18 21 22 25 27 26 25 22 24 27 29 32

GFSSGP_850_spd_063.txt.gz
Wind_Speed
3 0 1 3 3 5 3 5 3 8 5 4 3 3 9 6 2 2 14 30 25 30 32 33 32 30 28 27 27 24 20 17 14 12 13 14 15 15 17 18 20 21 22 22 21 20 21 20 18
1 4 3 1 4 1 5 5 4 4 1 12 7 5 8 3 2 4 27 25 31 31 32 33 30 29 29 28 26 20 18 15 12 13 15 16 17 19 20 20 20 21 22 23 22 20 20 18 18
2 3 3 3 3 3 4 4 3 4 2 2 2 9 3 4 1 19 18 29 33 31 32 31 30 29 28 27 24 21 17 13 12 13 15 17 18 20 21 20 21 22 23 24 23 20 19 16 16
2 3 3 3 3 5 4 8 5 3 4 6 6 5 4 3 10 13 17 31 31 31 31 31 29 30 29 27 24 20 16 11 12 14 16 18 19 20 21 20 21 22 23 24 24 20 18 15 16
3 3 3 1 4 2 3 6 1 2 2 6 1 2 3 2 8 20 26 29 29 29 29 30 28 26 27 24 22 19 11 11 13 14 16 18 19 20 21 20 19 20 21 22 21 20 17 13 14
1 2 3 2 4 3 3 2 2 1 4 5 8 6 1 6 11 21 28 28 26 27 30 30 30 25 23 21 19 9 10 12 14 15 17 18 19 20 20 19 19 19 19 18 17 15 13 11 10
5 4 4 2 4 4 4 4 2 1 4 3 12 5 5 9 16 23 25 24 25 28 31 28 30 25 19 18 14 12 12 14 15 16 17 18 19 19 19 17 17 16 15 14 13 12 10 7 6
4 4 1 4 4 5 3 5 3 1 2 5 4 4 7 14 15 16 22 27 28 29 28 29 28 28 17 15 12 11 13 15 16 18 19 19 18 18 17 16 16 15 13 11 10 9 7 5 4
6 4 3 5 3 4 4 2 2 2 2 3 3 6 18 19 18 21 24 25 25 22 26 31 34 30 23 17 15 15 16 17 19 20 20 19 18 17 16 15 14 14 12 10 9 7 3 3 2
4 4 7 5 3 4 4 4 2 2 1 5 11 15 24 21 18 23 28 26 23 22 32 34 23 19 19 17 16 17 18 18 19 20 20 16 16 14 14 13 13 11 9 7 4 1 1 2 3
6 5 6 6 11 3 6 5 5 3 3 6 16 26 26 21 28 28 25 21 31 25 24 34 27 21 22 19 18 18 19 21 21 19 17 14 12 11 9 8 7 7 7 4 2 4 4 3 5
2 14 6 6 6 6 7 9 2 6 4 1 16 25 24 22 25 24 21 26 32 32 37 23 21 21 18 17 19 20 21 22 19 18 15 10 9 7 5 6 4 6 5 4 3 3 4 4 8
2 2 3 10 10 5 8 4 3 3 8 10 25 23 23 22 24 23 25 34 37 40 36 26 21 20 18 19 20 22 22 19 16 14 11 9 7 4 3 5 6 6 6 5 4 4 6 8 9
1 9 5 7 10 11 6 1 4 6 15 19 24 22 17 26 28 20 25 34 34 35 26 21 18 19 19 20 22 21 21 18 14 10 9 6 5 5 5 6 7 6 6 5 5 5 6 7 9
9 5 5 1 4 4 12 4 1 16 18 21 19 19 25 30 31 29 27 28 30 28 23 23 20 19 21 22 20 19 17 15 13 11 8 9 8 7 8 8 7 6 5 3 4 5 7 10 11
5 4 1 5 2 5 3 3 4 19 21 21 22 24 25 37 27 25 27 27 26 23 24 24 24 21 21 21 18 16 15 14 13 11 11 10 8 7 8 8 7 5 2 4 7 10 11 11 12
2 3 1 6 3 2 4 3 5 19 21 21 23 29 30 36 31 27 29 25 26 24 25 26 25 22 23 19 17 15 15 14 14 13 12 9 8 10 10 9 7 3 4 8 10 11 12 12 12
2 3 2 4 4 2 2 1 4 23 21 23 26 27 32 33 31 32 31 28 27 26 25 26 26 24 23 20 18 19 20 18 15 14 11 9 13 12 10 7 3 4 9 11 12 12 13 13 15
3 4 4 6 6 5 7 5 8 19 12 15 22 27 32 35 29 30 31 32 33 30 28 31 29 29 25 25 25 24 21 18 16 13 11 13 13 12 8 4 5 9 11 12 13 13 13 15 18
3 3 7 9 7 8 6 5 3 9 15 28 31 30 36 36 32 33 32 34 35 32 31 35 31 31 30 25 23 20 20 17 14 13 13 12 12 9 5 6 10 11 12 14 15 14 15 17 20
5 4 6 9 2 2 5 0 6 6 9 18 25 37 39 39 38 39 36 40 36 36 34 34 31 31 26 26 25 22 21 17 19 18 16 12 8 6 8 9 10 11 12 13 17 18 18 18 20
4 4 7 5 2 3 2 3 5 8 12 9 23 30 39 41 40 40 40 42 40 39 37 33 32 32 30 29 29 24 22 24 22 17 13 11 10 10 11 11 8 10 13 16 19 19 18 19 21
7 5 4 2 1 3 1 3 5 7 9 15 20 31 37 43 44 44 43 40 36 37 40 36 33 33 28 27 25 20 19 16 15 15 16 14 14 14 10 9 8 10 13 19 19 17 19 23 24
3 2 5 5 2 2 2 4 4 6 16 17 22 30 39 41 40 40 41 39 39 36 37 38 37 32 26 27 26 23 17 15 16 18 19 18 18 16 15 11 11 16 27 20 18 21 23 25 25
4 5 3 4 4 4 1 2 8 7 5 9 19 33 38 45 42 42 43 40 40 38 33 29 34 31 29 25 26 23 19 18 18 20 23 24 23 20 13 9 19 24 17 18 21 24 24 25 24
3 5 5 3 3 4 2 4 6 3 13 7 22 31 36 41 47 46 42 37 34 25 20 22 26 26 27 28 26 22 22 23 23 24 27 26 22 16 16 17 21 11 16 20 21 23 24 23 21
1 1 1 5 3 2 3 6 9 7 4 4 7 16 28 37 44 46 39 33 30 22 21 21 25 27 25 24 24 23 26 26 26 26 24 22 14 14 18 13 11 15 18 20 24 24 24 20 19
3 7 3 2 3 3 4 4 5 7 5 3 4 14 24 30 34 39 39 35 28 22 19 25 27 26 23 24 25 25 25 24 25 26 25 16 13 14 10 11 15 18 20 24 26 26 22 20 22
2 2 1 4 4 4 1 5 6 7 6 7 11 21 25 29 33 36 37 33 26 26 26 28 29 27 27 26 23 22 24 26 26 24 17 15 16 10 13 15 17 20 23 25 25 25 22 22 24
4 7 6 4 4 2 4 6 4 9 8 9 10 16 23 27 30 33 34 34 34 32 31 30 31 33 31 30 27 28 30 28 24 13 20 10 8 11 14 16 19 21 22 24 25 23 22 23 24

GFSSGP_850_spd_066.txt.gz
Wind_Speed
1 3 3 2 4 5 4 5 3 6 4 2 7 2 1 4 3 2 6 26 30 32 34 33 30 28 27 26 25 23 21 18 15 15 14 14 16 18 21 22 21 20 22 22 22 21 21 19 19
4 6 4 3 4 2 5 4 4 3 4 1 6 1 5 2 4 1 20 20 30 30 35 34 31 28 26 25 24 22 19 16 15 16 16 16 19 22 24 23 23 22 23 23 21 21 20 20 21
5 4 2 4 3 4 4 4 3 5 4 3 3 6 2 3 3 11 15 22 28 29 34 33 30 28 28 27 25 21 18 15 16 17 18 20 22 23 24 25 25 24 24 23 21 20 19 18 18
5 3 5 4 2 6 5 5 5 1 1 3 7 5 3 3 4 11 16 24 27 30 31 30 29 29 28 26 23 21 16 16 17 18 20 22 23 24 25 26 27 24 23 23 21 19 18 16 16
5 3 4 2 3 4 4 6 6 3 4 3 7 6 3 1 4 13 22 24 25 28 29 30 28 29 28 23 21 17 16 17 15 19 21 22 23 25 25 26 26 23 21 21 19 17 16 15 14
4 3 4 2 4 4 4 5 3 2 1 3 4 4 3 2 4 15 19 25 25 27 29 29 27 26 28 24 18 13 13 8 14 18 21 22 23 24 24 24 24 23 20 17 15 14 14 13 12
5 4 2 3 4 5 4 6 2 2 1 3 6 3 3 9 9 17 24 24 24 24 29 31 31 31 30 28 18 12 11 14 18 19 21 22 23 23 23 22 20 19 17 15 11 10 9 11 11
4 4 3 4 2 6 1 2 1 2 2 3 2 4 4 13 13 19 22 19 18 20 31 31 30 30 30 25 17 14 14 17 20 20 22 23 22 21 20 19 16 14 14 12 10 6 7 7 7
3 4 2 4 3 4 3 2 2 1 1 2 2 8 13 17 17 20 21 22 21 21 23 27 27 30 35 21 16 15 16 18 21 22 22 21 20 19 17 16 14 13 11 10 9 6 4 4 5
5 3 7 6 4 2 2 4 2 1 2 3 7 11 18 18 18 21 22 24 25 26 26 32 34 39 27 18 18 17 18 20 21 22 20 19 18 17 16 15 12 10 8 7 5 3 2 2 4
5 6 6 7 4 3 3 2 0 1 2 5 13 19 20 20 20 23 25 27 21 25 37 34 40 28 17 16 17 18 20 22 21 22 19 17 15 14 12 11 9 6 5 4 1 1 2 3 4
2 9 6 1 5 5 5 4 2 2 4 3 14 22 23 19 20 24 22 27 36 33 37 34 37 29 19 14 14 17 21 22 21 20 16 13 11 10 8 8 6 6 4 4 2 4 4 5 7
3 3 3 6 8 6 6 2 3 7 7 10 21 21 20 19 17 22 27 22 31 29 24 32 35 22 17 18 19 20 22 20 19 17 14 10 8 7 7 5 5 6 5 4 3 5 6 8 8
1 5 3 7 7 6 3 2 3 4 12 14 14 14 14 18 21 23 27 32 39 40 39 34 22 16 16 17 19 20 21 20 16 14 11 8 8 5 5 6 6 6 6 5 4 4 6 7 8
3 4 5 1 3 3 6 3 4 15 20 15 18 12 15 10 22 30 37 39 40 34 29 23 20 19 17 18 19 20 20 17 13 12 10 7 5 4 6 5 5 6 5 3 3 5 7 8 8
4 5 3 3 4 1 4 1 4 17 23 14 13 17 16 20 25 28 31 31 33 29 20 17 16 14 17 18 18 18 18 15 14 11 7 8 8 8 6 5 6 6 4 2 5 7 8 8 9
6 1 1 6 4 3 3 2 6 17 18 17 17 17 18 25 23 29 30 27 27 22 19 19 18 17 18 20 19 18 16 16 14 10 10 10 10 9 8 8 8 6 1 5 7 8 9 10 11
4 2 3 5 3 3 1 3 5 17 16 20 21 18 20 28 30 29 28 25 24 21 20 21 21 20 20 20 19 19 19 17 13 12 13 11 8 9 10 9 6 2 4 6 8 10 10 11 13
5 2 3 5 5 4 6 4 10 18 12 15 22 24 26 31 29 27 29 28 25 25 22 22 24 24 23 24 23 22 20 17 14 13 13 11 11 12 10 7 5 3 5 6 8 10 12 14 15
2 1 6 8 3 5 3 6 5 15 20 24 27 28 30 31 31 34 31 30 30 28 25 24 24 23 25 25 22 21 19 18 16 16 14 13 13 12 10 8 6 6 5 6 11 14 14 14 16
3 3 4 7 3 1 5 3 5 5 12 22 23 32 30 33 34 31 32 32 31 31 29 27 26 26 27 26 25 24 24 20 21 19 17 15 13 12 11 9 7 6 5 9 15 17 15 15 15
3 6 3 3 2 2 0 4 5 5 10 9 23 30 36 36 37 37 35 34 34 32 31 30 29 30 30 30 28 30 25 24 22 18 15 15 16 16 12 10 9 8 10 13 17 17 13 14 18
8 2 1 2 3 2 1 3 6 1 6 13 18 32 38 39 40 40 41 38 36 35 35 33 31 33 33 31 32 27 23 19 18 17 18 18 18 17 15 14 11 9 8 16 22 15 16 18 18
3 2 6 5 3 1 2 4 5 5 10 10 16 26 38 42 42 40 38 38 37 36 36 34 34 34 33 34 33 27 23 17 16 17 20 21 20 17 17 16 14 13 14 21 20 16 19 19 19
4 4 3 4 4 4 1 2 8 4 6 8 13 30 39 42 42 41 41 39 39 36 34 30 34 35 34 34 35 28 17 17 14 17 19 20 21 21 20 18 10 13 19 17 15 17 18 19 18
4 5 5 2 2 4 3 4 5 5 7 13 16 27 32 39 41 41 43 44 41 36 31 31 31 36 38 34 28 22 20 20 16 18 18 22 23 23 20 16 13 19 14 14 15 17 19 19 18
3 2 5 6 2 2 3 7 9 3 0 2 5 11 24 31 39 41 40 40 38 32 28 31 31 31 32 32 29 23 22 20 22 23 24 26 28 26 21 13 22 15 13 14 17 19 19 19 16
2 6 3 3 2 3 4 5 5 8 9 2 3 9 18 25 34 39 41 40 33 31 27 25 25 24 27 27 23 23 21 24 25 26 29 29 29 19 12 25 12 11 12 16 19 20 20 17 17
2 0 4 4 5 4 1 6 7 6 6 7 7 9 13 22 29 36 41 41 36 34 29 19 20 21 24 23 22 22 24 27 28 28 30 30 21 17 15 10 8 12 17 18 18 19 18 18 18
4 7 6 4 4 2 4 6 5 8 6 6 8 7 9 16 22 27 32 37 39 36 24 25 23 25 27 29 28 30 29 28 27 26 17 10 17 17 9 8 11 18 17 18 20 19 19 21 21

GFSSGP_850_spd_069.txt.gz
Wind_Speed
3 3 5 4 3 0 2 2 2 2 4 4 4 2 5 5 3 0 4 26 31 32 33 31 31 32 32 30 30 29 27 23 20 18 15 15 16 17 20 21 21 22 22 23 22 22 21 21 20
2 5 3 3 1 3 2 2 4 5 6 1 2 1 2 1 3 1 16 23 32 33 34 32 31 30 30 30 29 27 24 20 17 18 17 18 20 21 21 22 23 23 23 23 22 22 21 20 20
5 3 2 3 2 3 2 3 5 8 6 4 1 4 2 0 3 5 16 26 31 32 34 33 31 30 30 29 27 23 20 17 19 20 21 22 23 23 22 23 23 23 23 23 21 21 20 20 19
2 1 4 1 3 4 4 2 3 4 1 3 2 1 3 4 2 8 22 27 31 33 34 33 32 32 30 29 27 23 20 20 20 21 24 24 25 24 23 23 24 24 23 22 20 19 18 18 16
2 2 1 1 4 4 6 2 0 2 4 1 1 1 3 4 2 11 24 26 30 32 34 34 32 32 32 29 24 21 21 21 21 23 24 25 25 24 23 24 24 23 22 21 19 17 16 14 14
2 2 1 1 4 5 6 1 3 1 1 1 2 4 2 2 7 18 23 24 26 32 33 32 30 30 30 28 24 23 22 22 22 23 24 25 26 25 24 23 21 20 19 18 17 16 14 14 13
3 2 1 3 4 5 3 1 1 1 2 2 3 3 3 6 11 17 22 23 24 26 31 30 30 31 32 28 26 25 23 23 20 21 23 26 26 25 23 21 19 17 16 15 14 14 15 13 11
3 2 2 3 2 4 2 1 2 2 2 3 3 4 5 14 13 18 24 24 20 24 30 32 31 33 33 24 24 22 18 15 17 23 24 26 26 24 23 20 16 14 13 11 12 12 9 9 8
4 1 2 4 2 3 1 1 1 3 4 2 1 4 7 16 16 20 22 16 15 16 28 34 37 34 27 30 25 17 16 20 23 24 26 25 24 22 20 18 15 12 10 11 10 8 7 6 5
2 3 7 5 4 3 1 2 3 2 4 2 2 3 14 14 19 21 21 20 21 24 25 30 35 34 31 31 30 19 17 21 24 26 24 22 21 19 17 15 13 11 9 9 6 5 4 3 4
4 5 2 4 9 4 3 3 2 1 3 5 7 14 17 17 20 18 20 21 23 26 32 34 43 40 37 29 23 21 22 23 24 24 23 21 19 17 16 13 11 10 7 5 3 2 1 3 5
3 5 6 4 3 2 3 3 3 0 4 6 9 16 17 18 19 21 21 23 23 33 43 42 40 35 34 21 20 21 23 24 24 23 20 18 17 15 13 11 10 9 6 4 2 1 2 4 7
4 3 3 3 3 3 6 5 1 6 8 4 15 17 16 15 17 18 19 27 26 33 41 39 35 31 19 15 17 21 22 22 22 20 19 16 14 11 12 11 9 9 6 4 3 3 5 6 8
3 1 3 3 2 3 3 1 3 3 3 7 11 14 14 14 20 23 31 25 29 38 27 36 42 29 21 18 18 20 22 23 21 19 16 14 13 12 10 9 8 7 6 5 4 3 5 7 8
2 1 3 1 2 1 3 1 2 2 5 8 7 12 13 15 24 28 26 25 36 22 40 38 27 17 14 13 15 19 22 21 19 17 15 14 12 10 7 7 7 8 6 4 2 3 5 7 8
2 3 2 0 3 1 4 3 2 7 7 10 9 11 11 12 16 24 25 29 32 38 38 30 20 16 13 13 17 21 22 20 17 16 13 10 8 7 7 7 8 7 6 3 1 4 6 8 9
4 1 1 3 5 2 5 2 7 12 9 8 12 12 9 13 18 29 28 36 38 37 31 21 16 14 15 16 18 21 22 18 16 15 11 10 7 8 8 9 8 7 4 1 2 4 7 8 8
4 2 1 3 1 3 4 4 8 16 13 10 10 12 13 16 23 28 30 30 32 31 24 17 14 13 13 16 20 20 19 19 17 16 13 12 12 10 10 10 9 8 5 2 2 5 8 8 9
5 4 3 3 3 3 4 4 13 18 14 14 14 13 14 22 20 27 32 29 31 29 22 20 19 19 19 22 22 21 21 20 19 16 12 15 13 10 12 11 11 9 5 4 3 7 10 11 12
4 4 5 5 2 5 2 6 7 15 20 23 22 20 20 19 24 26 29 31 32 32 27 24 22 23 22 22 21 20 19 19 17 13 17 16 12 11 13 13 13 11 8 6 4 8 9 11 12
4 4 4 6 2 1 1 2 4 7 15 15 19 22 22 26 29 34 34 33 31 30 28 26 23 23 24 24 22 22 21 22 19 20 18 15 14 15 16 16 15 12 8 6 5 10 14 14 13
3 6 3 2 2 1 2 2 3 7 13 13 22 24 28 28 29 33 37 39 37 34 31 29 26 24 24 24 24 25 25 26 24 19 17 16 18 19 19 18 15 11 9 6 10 14 15 15 12
5 4 3 1 2 1 1 2 3 3 11 18 25 28 30 33 33 34 36 37 36 35 33 30 29 26 25 23 25 26 27 26 18 19 19 20 22 22 21 19 17 11 9 9 13 16 14 14 15
5 3 4 3 2 1 1 3 3 4 5 5 20 26 31 35 37 36 35 34 33 30 30 31 30 28 26 26 26 27 28 26 20 21 22 24 24 23 23 21 18 15 11 10 13 14 13 15 16
2 3 0 1 1 2 4 2 8 5 8 10 11 21 34 37 37 39 39 39 38 35 33 31 30 29 29 28 28 32 31 26 20 20 22 25 24 24 25 23 20 17 12 14 20 13 16 18 16
3 4 4 3 3 2 2 5 4 4 9 14 15 13 18 29 39 40 41 39 38 36 34 30 33 31 27 34 32 31 30 26 22 19 20 20 21 25 26 24 22 11 26 17 12 15 17 17 15
3 3 1 6 2 0 2 4 9 3 7 10 11 10 9 18 27 36 39 39 39 37 35 31 27 30 31 29 31 30 28 28 25 22 22 24 25 26 25 22 14 20 16 10 12 16 16 15 16
3 7 3 1 3 3 2 3 4 5 4 5 8 11 9 9 17 23 32 37 38 36 34 28 29 30 29 28 27 28 28 24 24 25 27 27 26 24 19 11 14 15 8 9 15 16 16 17 16
4 3 3 4 2 2 2 3 6 6 3 4 6 10 9 7 10 15 20 27 33 33 30 32 29 24 25 24 23 23 23 24 29 28 26 26 25 20 10 20 23 7 10 15 18 17 18 18 17
2 6 6 3 4 1 2 6 4 8 7 8 10 9 7 6 7 11 14 19 23 26 27 31 27 19 19 20 22 24 28 29 28 24 25 21 17 19 15 17 10 11 15 18 19 19 19 20 20

GFSSGP_850_spd_072.txt.gz
Wind_Speed
4 4 3 4 7 6 12 3 4 5 8 14 10 11 10 8 1 3 4 13 27 30 31 33 32 31 31 31 31 29 27 25 23 22 20 17 14 15 18 19 19 20 22 23 22 21 21 21 19
2 2 2 5 7 10 8 3 6 1 1 7 6 10 11 3 1 1 12 14 27 30 32 33 33 32 33 33 32 30 28 26 25 22 19 17 18 20 21 21 21 22 23 22 21 20 20 20 18
3 3 7 4 6 11 7 2 5 6 6 5 9 5 7 1 1 4 8 21 31 31 32 35 36 35 34 34 32 30 28 25 23 21 20 21 22 23 22 22 23 23 23 22 21 20 19 18 17
3 3 4 8 10 3 7 7 5 4 6 9 8 1 5 4 2 6 16 23 34 32 30 38 38 37 36 35 33 29 26 24 23 22 23 24 24 24 24 23 24 23 22 21 21 20 19 17 15
2 4 6 8 8 3 4 10 9 5 1 4 4 9 3 9 2 9 21 27 37 32 29 39 38 37 37 35 32 28 25 25 25 26 26 25 25 24 25 24 23 22 21 20 20 18 17 15 14
7 5 7 6 1 2 2 9 6 2 1 2 2 10 6 9 5 15 20 26 33 32 31 36 35 35 36 33 28 25 25 25 27 27 26 24 24 24 25 24 22 21 20 19 18 17 15 13 13
10 6 5 7 5 2 3 3 5 2 3 1 2 2 6 8 9 17 17 17 20 22 29 32 31 29 29 26 26 26 27 28 27 25 24 25 25 25 24 23 22 20 18 16 15 14 13 12 10
6 5 4 4 3 3 4 1 4 4 0 1 1 2 3 9 10 16 18 16 20 25 33 36 30 31 29 27 25 26 27 29 28 27 26 26 25 23 22 21 18 17 15 14 13 12 11 10 7
5 6 3 3 5 4 2 3 2 1 3 3 2 2 2 12 12 16 18 17 19 23 29 33 32 33 38 30 25 24 24 26 27 27 26 27 25 22 18 17 15 14 14 12 11 10 8 6 5
8 5 0 3 7 9 6 3 3 5 4 5 4 2 9 14 14 18 20 20 17 19 29 35 38 33 37 31 27 25 24 24 25 25 28 27 24 18 18 16 13 12 12 11 10 9 8 6 5
3 8 7 7 8 9 5 3 2 6 6 4 5 6 13 17 16 16 15 15 17 23 27 39 39 39 38 37 37 30 19 20 24 26 26 25 23 20 15 17 15 13 12 11 9 7 6 2 1
8 5 8 9 4 3 1 1 2 6 8 10 6 9 15 14 16 17 18 23 27 28 29 35 38 36 30 31 35 36 21 23 24 25 24 23 20 20 16 15 15 13 11 9 6 3 2 2 5
9 7 6 4 3 1 1 3 3 5 9 7 8 12 14 11 16 16 19 20 27 32 38 42 41 39 34 29 24 21 22 20 22 24 22 20 18 17 17 16 14 12 10 8 5 3 1 3 5
2 6 2 3 4 3 4 1 5 6 5 4 3 5 9 10 14 16 18 22 26 34 23 27 32 33 35 36 27 24 23 25 24 23 20 19 16 16 14 13 12 11 9 8 4 2 1 4 6
2 6 6 4 2 1 6 9 1 5 2 5 5 5 7 10 14 19 23 30 37 29 30 32 36 27 24 21 22 23 26 25 19 19 19 17 15 14 13 11 10 11 9 6 3 1 3 4 6
6 6 7 5 4 2 5 7 6 7 5 8 12 9 6 13 19 24 22 29 32 28 37 34 27 18 19 17 19 22 23 23 22 20 17 15 15 12 12 12 11 10 8 6 3 0 3 5 4
7 6 5 4 3 1 5 8 8 10 8 8 10 9 11 10 22 20 19 27 20 29 35 29 18 14 16 15 16 16 19 23 20 18 17 15 14 11 11 11 11 11 9 7 4 1 2 3 2
6 8 4 7 4 6 9 10 6 12 10 9 8 11 10 15 20 19 21 22 25 30 28 21 16 13 13 14 16 19 20 22 18 17 18 17 16 13 13 12 13 12 10 8 5 1 2 3 5
9 7 7 6 3 7 8 10 8 14 13 11 12 11 13 16 19 22 23 25 26 28 25 21 16 14 14 17 18 20 23 22 20 19 19 17 15 16 15 15 15 14 11 9 5 3 4 3 9
9 9 12 7 2 4 8 9 6 14 16 15 15 15 16 19 22 26 26 26 28 27 24 21 18 17 16 15 17 16 18 21 21 20 20 18 18 18 16 17 17 16 13 10 7 4 3 4 7
10 11 8 8 5 8 9 11 9 10 14 16 16 16 18 21 26 27 29 29 28 28 27 23 20 19 19 17 16 15 17 18 20 21 21 20 20 18 20 20 19 18 13 10 9 6 4 5 6
10 8 10 7 6 5 3 3 7 10 13 15 19 22 22 24 25 28 30 31 31 29 26 25 22 20 19 21 20 21 18 17 18 21 20 22 21 22 22 22 21 18 14 12 12 8 5 7 7
7 3 7 6 7 6 9 6 7 4 10 14 22 25 26 26 28 30 32 32 30 28 27 24 22 22 21 24 24 23 19 17 23 19 18 23 22 22 23 23 21 18 15 16 14 8 9 8 8
2 6 4 5 5 7 2 5 2 5 3 3 5 22 27 28 29 30 30 29 30 30 27 27 26 25 26 25 25 26 22 24 24 22 22 26 25 25 25 24 23 22 20 18 10 15 20 15 10
9 8 6 6 6 5 4 5 9 8 4 5 8 7 17 28 28 29 29 30 29 30 30 29 28 26 26 27 28 26 25 26 25 22 24 23 24 26 27 27 27 24 22 10 13 21 12 13 10
14 11 5 6 5 4 3 5 2 3 5 9 8 8 10 17 28 29 31 30 29 30 31 30 29 27 28 29 29 28 26 27 28 23 25 25 24 22 23 27 25 25 17 14 17 13 12 11 13
7 8 1 1 1 4 5 7 11 4 4 6 4 4 6 11 19 25 28 29 28 29 33 33 30 26 29 29 27 25 28 28 28 25 25 21 19 19 27 26 28 22 14 19 14 11 11 13 12
5 11 5 4 5 7 6 8 7 5 1 1 4 5 2 2 9 15 21 26 27 27 28 31 27 26 23 27 30 27 26 27 25 27 25 21 22 26 24 24 19 14 14 17 11 12 12 13 13
6 7 4 3 3 4 4 4 3 6 3 5 4 5 5 2 4 9 13 18 21 22 24 27 28 24 21 24 24 22 21 23 25 27 30 28 24 24 20 16 11 21 16 12 13 13 14 14 15
10 12 13 6 7 3 4 8 7 10 5 6 8 9 5 4 5 8 11 13 17 20 21 22 24 24 22 19 18 17 20 24 27 27 24 24 20 16 14 15 15 12 10 12 13 16 16 16 17

GFSSGP_850_spd_075.txt.gz
Wind_Speed
6 6 5 10 8 8 17 18 2 5 8 7 15 19 22 28 6 12 14 17 23 26 30 31 29 28 32 33 33 30 27 25 23 21 20 17 15 14 16 18 20 22 24 23 22 21 20 19 19
3 6 8 15 8 14 11 5 0 6 7 5 11 23 18 16 19 8 7 13 24 27 29 30 31 30 33 35 34 31 28 26 24 22 19 16 15 17 19 21 23 23 23 22 21 20 19 19 19
4 7 15 10 13 15 10 4 6 5 3 8 15 20 12 8 4 8 4 17 26 28 28 30 32 32 35 35 34 31 29 26 24 21 18 16 18 21 22 23 23 23 22 21 20 19 18 18 18
5 11 12 9 17 13 6 12 9 12 16 14 11 11 7 6 8 10 4 20 27 31 32 35 35 35 36 36 33 31 28 25 23 21 19 20 22 23 23 24 24 22 21 20 19 18 17 16 16
8 13 11 15 13 5 7 17 20 19 7 19 11 12 6 10 10 9 9 20 31 30 33 33 34 34 35 35 32 29 27 25 23 23 23 24 23 23 24 24 23 22 21 20 19 18 16 15 14
15 8 13 12 4 2 15 12 19 22 8 9 8 4 5 10 17 16 14 20 24 31 33 37 34 34 34 33 31 29 26 24 24 25 25 25 23 23 22 22 21 20 19 19 18 16 14 13 11
12 11 15 10 8 16 8 8 9 19 12 9 9 14 11 12 7 20 16 17 24 27 36 40 35 33 31 31 29 25 24 23 24 24 24 24 22 22 21 21 19 19 18 17 16 14 12 11 9
11 9 19 7 6 6 2 2 6 13 20 11 6 6 6 10 12 14 6 11 15 13 16 32 31 31 28 26 25 26 26 27 27 27 27 24 24 23 21 20 18 17 16 15 13 11 10 9 7
10 12 11 2 6 3 5 8 2 7 15 6 8 10 7 11 12 9 9 7 13 23 33 39 32 33 35 30 24 23 23 24 25 26 26 25 26 24 22 18 16 15 14 12 11 11 9 7 5
10 13 5 9 10 12 9 4 7 6 7 8 1 2 4 10 10 12 13 12 15 18 28 34 33 42 37 36 29 23 22 23 26 26 24 27 26 21 21 19 15 13 12 12 11 10 8 9 6
14 12 6 8 9 12 9 10 4 9 14 17 14 4 9 10 11 14 11 12 18 24 30 30 31 35 38 35 39 30 27 20 24 22 19 21 21 18 19 18 15 14 14 12 11 10 7 8 5
10 14 6 11 7 9 9 9 10 5 11 13 13 4 11 10 7 11 12 15 19 30 32 32 32 42 44 46 43 39 33 26 24 23 19 23 19 16 17 15 15 15 11 11 10 9 6 3 1
12 14 7 8 7 7 5 5 6 5 8 12 7 3 7 8 9 12 14 20 23 28 33 37 42 43 45 38 39 34 28 29 24 25 23 19 16 16 15 15 13 13 13 10 8 5 4 2 1
11 10 10 7 9 7 10 4 9 10 4 9 8 6 4 6 9 12 14 22 27 30 34 34 35 37 38 30 32 30 24 21 24 19 17 19 17 17 16 19 15 12 10 9 8 6 4 4 1
13 14 14 13 11 10 5 10 30 6 4 9 6 3 2 2 5 9 11 21 27 30 34 32 26 33 41 31 33 30 24 20 22 24 22 19 16 17 15 15 13 12 14 14 10 8 4 3 2
14 18 9 6 20 4 8 6 34 8 4 12 11 8 6 6 12 16 22 31 30 26 19 31 31 23 26 30 31 22 16 20 22 22 20 19 16 14 15 13 14 15 11 10 9 7 6 4 2
16 6 16 15 3 4 7 5 2 7 3 10 12 12 9 14 18 17 22 24 21 21 26 34 33 28 23 21 18 17 19 25 24 21 17 18 17 16 14 14 15 13 12 11 9 8 6 3 1
4 15 5 10 8 8 12 12 6 9 6 6 14 17 20 23 20 19 22 16 19 23 31 28 20 20 20 18 17 17 18 22 20 20 19 17 16 16 15 14 14 13 12 11 10 8 5 4 4
10 12 9 8 5 5 13 13 7 11 9 10 9 20 21 18 20 22 23 21 22 27 29 25 18 17 19 19 18 18 19 21 22 19 18 18 16 18 16 13 14 14 12 12 11 9 6 3 4
11 14 11 12 4 3 12 13 7 13 13 16 14 15 19 23 23 22 23 23 27 30 28 22 18 15 17 14 16 17 17 18 19 16 20 21 19 19 16 15 14 15 13 14 12 9 7 5 5
14 13 11 15 5 10 13 13 12 14 14 15 17 16 20 22 27 27 27 28 28 29 26 23 20 18 18 16 16 16 18 16 19 17 18 21 20 20 19 17 16 16 14 13 13 10 7 5 5
15 10 9 12 10 3 12 6 16 15 14 16 19 20 22 25 25 27 28 29 30 30 27 25 22 21 19 20 17 18 19 16 16 17 22 20 22 22 19 18 17 18 14 13 12 9 7 6 3
13 1 8 11 12 15 9 8 11 11 14 17 18 23 24 26 28 31 32 32 31 30 29 27 24 21 19 20 23 21 20 16 16 19 22 20 20 23 20 19 19 17 15 15 13 15 9 6 13
3 7 10 11 12 10 11 10 9 7 6 4 13 24 25 26 29 30 31 31 31 33 30 28 26 25 23 25 24 24 22 19 22 27 20 23 23 26 25 21 20 18 16 19 20 14 13 16 14
11 11 8 6 7 10 7 5 7 11 4 1 4 5 19 27 28 29 31 33 33 34 33 31 28 28 26 26 27 27 26 25 28 24 23 27 27 26 24 23 22 21 23 20 15 12 12 14 11
16 15 7 6 3 6 5 6 8 4 2 5 6 7 8 16 29 31 32 33 33 34 35 32 31 29 28 28 29 29 27 28 29 25 22 26 23 25 22 25 23 21 21 21 11 11 13 13 13
13 16 13 9 4 7 8 8 10 8 4 4 7 4 9 12 18 28 32 32 32 33 34 36 32 29 29 29 28 29 28 29 26 22 25 23 22 24 21 22 23 22 28 22 11 11 12 11 12
9 13 9 8 10 10 11 12 9 9 7 5 4 4 1 3 10 19 26 30 31 30 31 31 30 29 28 27 27 29 26 25 25 27 25 24 24 21 23 24 25 32 21 17 15 18 10 12 14
12 11 10 11 9 6 9 5 10 4 2 4 4 2 2 1 4 9 16 22 27 28 28 29 29 28 26 26 24 26 26 23 23 23 23 20 21 26 27 27 24 16 11 17 17 11 12 14 17
18 19 18 10 13 8 11 12 15 9 11 6 7 7 6 3 4 7 10 14 20 26 27 27 26 27 26 22 23 26 20 22 25 24 23 24 27 26 21 14 15 15 17 11 12 13 13 16 18

GFSSGP_850_spd_078.txt.gz
Wind_Speed
7 7 6 12 7 8 17 20 16 17 11 3 3 12 7 6 2 9 26 18 17 37 41 36 36 37 36 35 33 32 29 26 24 21 20 17 15 15 19 21 23 24 24 24 24 23 24 24 25
6 9 11 15 11 14 8 9 9 11 12 15 11 10 14 5 4 10 20 17 54 22 37 36 36 37 37 36 34 32 29 26 24 22 19 17 15 19 22 23 25 25 23 24 24 22 23 23 24
6 6 13 12 13 15 16 4 9 6 3 4 8 16 15 10 3 8 13 7 38 19 29 33 33 36 38 36 34 31 28 26 25 22 19 17 18 22 23 24 25 25 22 23 22 21 21 22 25
5 14 14 13 15 15 15 9 14 17 18 20 22 24 7 1 2 9 10 17 17 21 22 29 30 32 33 33 32 29 26 25 24 21 19 19 22 24 25 25 24 24 22 22 21 21 20 20 22
13 16 12 15 18 18 9 18 19 9 5 26 29 23 1 8 3 4 8 20 21 22 25 28 30 32 33 33 31 28 27 26 24 20 19 22 25 26 25 24 23 22 21 21 20 19 18 17 18
18 22 14 13 15 5 10 22 21 15 34 35 31 29 14 3 3 7 9 16 21 31 32 37 33 35 35 33 32 30 28 25 22 20 22 24 25 25 24 24 23 21 20 19 18 17 16 15 14
16 12 16 17 16 6 4 7 9 20 19 21 19 6 12 18 6 5 4 8 14 16 35 37 34 34 33 33 29 28 27 24 20 20 23 25 26 25 24 23 21 20 19 17 16 15 14 12 11
18 11 20 16 14 5 4 12 7 8 7 9 18 6 8 6 4 7 5 8 10 29 34 32 31 34 33 30 30 29 26 23 23 24 25 25 25 24 22 22 20 19 17 15 14 13 11 10 9
14 11 12 14 12 7 8 8 11 3 12 17 21 6 7 7 4 3 4 5 6 15 19 4 8 26 28 28 27 25 24 24 26 26 26 27 26 25 23 22 20 18 16 14 13 12 9 8 6
12 11 7 17 10 12 15 14 13 9 19 16 31 18 10 12 5 4 8 12 8 20 24 33 30 30 29 27 27 27 26 24 26 26 24 25 25 23 22 20 18 16 16 14 13 11 9 10 8
16 15 13 12 12 13 17 15 18 15 9 5 11 8 5 10 10 8 7 11 13 16 23 34 35 35 38 38 35 30 32 26 26 27 23 26 22 22 22 20 18 17 16 15 13 13 9 8 10
15 14 21 12 13 10 15 5 16 14 14 10 12 10 4 7 12 10 14 17 23 28 33 32 33 41 40 45 43 43 35 34 30 25 21 24 20 17 19 19 18 17 16 14 12 11 9 10 6
11 14 19 13 9 13 13 15 10 33 23 15 10 10 12 10 10 11 14 19 26 31 33 32 38 40 42 40 40 39 32 34 30 24 24 20 17 17 18 15 17 13 11 14 12 8 8 5 3
19 18 17 18 12 16 10 11 5 17 19 12 12 11 7 9 9 10 16 21 22 32 34 35 35 36 34 33 34 35 36 30 25 22 22 18 17 15 16 14 17 19 16 11 9 9 5 3 2
16 15 13 17 27 6 10 7 7 13 17 7 8 5 4 4 8 11 17 20 24 31 35 39 39 37 45 40 37 34 31 28 24 23 19 14 18 20 20 20 17 14 12 13 14 12 11 8 6
17 17 3 16 17 22 13 5 2 17 13 8 7 8 6 5 6 9 17 21 24 26 25 28 30 33 36 34 37 37 29 26 24 24 17 21 20 20 16 18 15 15 19 20 15 12 8 6 5
15 12 17 14 17 20 11 2 7 18 18 16 12 14 13 14 14 17 22 26 29 24 26 27 31 18 25 32 38 30 32 28 20 22 23 21 19 16 15 14 17 21 19 16 12 12 7 8 7
0 10 13 16 12 8 12 10 15 32 10 25 20 21 16 16 17 20 25 26 19 24 28 33 30 35 31 31 30 20 19 22 22 22 20 18 18 16 17 16 21 18 15 16 13 13 14 7 10
12 17 14 13 7 8 12 13 8 11 9 19 25 23 22 16 17 22 22 18 20 27 37 39 37 32 27 27 24 23 23 22 23 23 21 21 18 19 19 19 19 18 15 16 18 16 14 12 9
11 13 15 15 6 9 11 16 9 11 13 19 25 25 22 21 22 22 22 23 23 40 33 29 24 24 24 23 23 21 21 20 24 22 23 20 22 20 22 20 19 20 20 20 18 16 10 8 11
12 14 14 15 14 11 8 14 9 8 12 22 17 28 29 27 27 27 25 27 29 30 26 22 19 19 22 20 19 19 18 18 22 21 21 24 22 23 22 21 20 20 21 22 19 17 14 7 9
14 14 15 9 12 7 3 8 13 13 9 16 22 21 28 32 31 31 30 33 35 35 33 27 23 22 20 23 23 24 25 25 22 25 23 23 24 22 23 20 23 22 23 22 19 17 15 18 9
14 7 9 10 13 11 13 9 8 12 14 16 15 24 28 29 33 35 35 35 38 34 37 32 28 27 20 27 25 25 27 26 22 23 26 28 22 25 27 27 26 26 23 19 19 19 21 18 14
14 9 10 11 11 10 15 9 7 3 12 11 18 26 27 34 34 35 35 34 36 35 35 30 33 30 26 24 25 29 28 23 24 26 27 27 23 26 25 28 25 26 24 23 24 25 23 17 15
13 9 7 2 7 9 2 4 6 14 13 8 1 25 31 32 38 39 39 39 39 40 40 37 36 33 31 30 32 27 31 31 28 31 31 27 23 26 28 28 29 28 25 28 29 26 19 14 14
13 15 8 5 3 4 13 6 2 13 10 6 4 5 16 29 33 38 42 44 42 43 43 42 40 36 34 34 34 32 34 32 32 33 32 26 27 28 27 28 32 28 28 31 29 21 14 13 12
15 15 17 17 4 8 9 5 17 9 3 4 6 7 10 11 20 32 33 43 45 44 44 46 42 39 36 35 36 34 34 34 35 34 32 25 25 23 24 28 31 29 31 30 25 17 9 12 17
17 12 12 8 7 9 7 11 5 7 12 8 6 8 7 1 6 14 32 36 41 43 44 45 43 40 37 37 36 37 33 34 35 31 26 24 20 19 25 29 31 32 30 30 28 12 9 16 10
13 13 10 14 9 6 4 3 11 8 4 5 1 7 5 1 6 8 13 21 35 37 38 40 40 38 35 36 36 37 36 32 33 30 27 26 24 23 26 29 31 30 29 24 25 19 21 8 15
17 17 17 9 9 6 6 9 7 2 4 8 2 5 5 8 3 6 7 10 15 27 34 36 38 37 35 34 34 37 33 33 32 34 33 30 27 27 33 31 29 28 20 15 18 20 18 14 12

GFSSGP_850_spd_081.txt.gz
Wind_Speed
5 5 5 5 3 3 7 12 14 14 5 15 18 15 6 7 3 3 9 6 6 20 22 27 36 36 35 35 34 32 31 29 28 27 24 22 21 25 27 27 27 28 30 28 28 29 30 33 32
5 5 9 6 2 3 9 12 7 17 19 32 22 28 15 0 6 6 5 6 23 20 19 16 30 33 33 34 34 31 29 27 25 25 22 21 23 27 28 28 27 28 30 29 29 30 31 31 28
4 3 4 3 4 9 7 10 14 16 31 22 14 13 8 13 11 1 5 6 7 13 26 39 30 34 35 35 34 32 28 27 25 23 20 20 25 28 29 28 27 28 29 29 29 29 31 29 28
4 3 6 1 13 19 7 2 9 9 9 20 13 5 6 12 12 12 7 6 6 15 33 45 35 37 37 37 35 33 30 28 26 23 20 22 26 28 30 28 27 27 28 27 27 27 29 28 25
7 6 2 5 15 22 3 6 13 3 1 7 11 8 4 2 11 18 9 5 5 19 24 29 45 44 40 37 35 32 30 29 27 23 21 25 27 29 29 28 26 26 26 26 24 24 25 25 23
6 4 4 12 18 8 3 4 1 5 2 9 9 8 4 3 17 17 9 5 14 17 15 34 39 44 42 40 37 33 30 28 25 22 23 26 28 29 28 27 26 25 24 23 22 21 21 21 20
8 2 7 10 12 1 3 2 3 5 4 5 12 5 16 8 11 11 6 10 9 14 4 21 40 42 44 40 36 34 31 27 24 22 25 27 28 28 27 25 25 24 23 21 20 19 17 17 18
21 3 9 7 7 4 4 7 8 9 4 13 6 1 6 16 12 5 5 9 8 6 17 34 9 47 44 39 36 33 30 26 23 25 27 28 28 27 26 24 24 22 20 19 19 17 15 14 16
20 3 7 11 9 5 3 2 16 19 12 2 12 3 10 11 9 2 5 8 10 6 9 9 15 47 44 40 36 32 28 24 26 29 29 29 29 28 26 25 23 20 19 17 17 16 13 11 11
5 3 10 11 3 4 11 12 8 9 11 2 11 6 2 9 5 5 3 4 5 8 18 11 18 28 35 36 34 31 30 29 30 31 30 30 27 26 24 24 21 20 18 17 17 15 15 13 9
18 7 13 14 15 7 6 9 17 11 9 10 13 9 10 6 2 5 7 6 10 11 16 20 24 27 27 33 35 35 33 32 29 30 29 28 26 25 26 23 21 20 18 18 17 16 13 8 7
5 20 13 14 23 4 3 2 7 21 5 13 10 7 4 5 5 2 1 4 8 11 26 29 31 34 39 38 37 37 41 36 33 32 27 26 26 25 24 22 20 18 18 17 17 12 8 7 7
8 7 11 10 11 16 15 4 4 5 1 12 9 10 5 4 6 5 7 12 17 20 23 34 39 39 39 39 38 38 41 42 32 28 28 23 22 22 20 19 18 18 18 18 14 9 8 10 9
19 20 16 11 13 8 4 3 1 2 6 9 7 7 5 4 7 10 15 17 24 28 29 31 40 40 39 39 39 36 37 35 33 28 24 21 18 19 18 17 18 18 17 14 10 10 9 7 5
20 9 10 9 8 3 4 0 2 3 8 8 11 7 5 6 11 16 17 21 19 27 33 31 32 35 37 43 36 35 34 32 28 30 27 20 19 16 20 19 20 16 15 13 12 10 8 6 4
9 7 5 5 6 7 6 8 4 13 13 6 8 12 10 8 12 17 18 21 25 28 29 33 34 36 40 35 37 41 38 31 34 32 24 22 21 19 16 15 19 20 19 15 12 10 10 8 5
5 8 6 8 9 5 4 4 7 13 16 14 19 17 13 11 12 17 19 19 27 28 28 27 30 35 36 37 35 36 40 37 33 21 24 22 20 18 19 21 20 22 19 17 14 14 13 10 8
7 6 5 5 4 6 12 5 7 16 16 21 17 15 15 15 14 19 21 22 21 23 24 25 34 36 34 38 38 36 35 33 26 22 25 30 20 19 21 20 23 21 19 20 20 17 14 11 13
14 16 7 9 7 10 10 7 12 19 18 21 21 24 21 21 20 19 24 23 23 27 28 32 34 30 30 36 37 33 32 29 34 35 32 26 21 20 22 22 21 20 20 21 18 18 18 18 16
17 9 6 7 8 12 7 8 10 10 23 33 30 27 26 27 25 28 26 21 26 24 32 29 30 31 32 32 34 30 35 32 29 27 26 25 25 24 25 23 21 20 21 19 20 21 21 20 17
7 5 6 9 8 6 1 6 4 7 25 24 29 32 31 31 31 30 27 25 27 33 36 34 30 30 34 33 32 27 25 24 26 28 29 29 27 25 25 26 24 23 24 23 21 21 21 20 16
3 9 11 6 3 4 2 5 4 5 14 19 25 29 34 33 31 30 29 30 37 39 38 34 29 28 26 27 28 28 29 31 32 30 30 28 27 24 25 27 27 25 26 26 25 21 22 21 20
7 8 3 3 6 4 4 0 7 7 9 16 21 32 35 37 34 35 35 35 38 39 38 32 28 25 23 26 28 29 31 29 28 26 30 30 30 32 29 29 29 26 28 28 26 23 26 26 22
6 4 5 2 2 5 8 3 7 5 15 17 23 34 38 40 38 34 35 37 38 39 35 31 29 27 25 24 30 31 34 32 29 28 29 33 31 26 28 32 33 29 28 29 28 26 27 27 24
5 4 2 4 2 5 9 6 10 8 8 8 24 32 40 44 43 40 37 38 39 41 41 37 35 36 33 31 33 34 36 33 31 29 29 29 30 28 27 32 35 33 32 31 29 30 29 26 25
7 10 5 6 3 3 13 5 6 5 9 17 16 35 40 39 45 46 44 41 43 42 41 40 39 40 40 37 35 36 37 37 34 32 32 30 27 25 25 28 33 33 33 33 34 33 32 28 26
4 5 9 6 1 2 5 7 1 4 5 5 8 12 33 41 43 49 48 46 46 44 44 44 44 42 42 40 37 37 39 40 37 35 34 31 29 28 26 27 31 33 35 35 37 32 27 24 20
10 3 2 1 7 6 4 5 3 3 4 4 5 13 15 22 40 44 48 50 50 48 47 45 43 44 43 42 42 38 40 39 40 41 39 35 31 28 24 26 30 34 35 35 29 21 25 17 13
4 8 4 9 4 5 3 5 5 7 4 2 2 14 14 10 7 17 38 46 51 49 48 48 48 47 46 39 42 39 39 40 39 40 36 34 31 25 24 27 29 32 39 29 31 30 29 21 26
16 12 10 5 5 4 5 5 5 8 10 11 12 14 16 16 16 11 8 9 43 52 51 49 48 49 48 41 44 42 39 38 38 35 36 35 29 24 22 21 26 32 34 30 32 29 21 26 21

GFSSGP_850_spd_084.txt.gz
Wind_Speed
2 4 3 2 4 5 5 5 4 6 8 2 4 6 4 5 2 4 13 10 15 27 35 36 33 34 35 34 35 33 31 31 30 28 24 22 25 27 28 29 31 32 31 31 32 32 30 28 25
2 4 2 1 4 1 5 5 3 6 6 10 3 3 4 3 4 7 4 10 20 34 31 29 39 31 32 33 36 34 32 32 30 27 24 24 27 28 29 31 32 32 32 32 32 30 29 26 22
3 3 1 4 3 4 4 5 6 7 2 1 2 5 3 1 3 6 10 10 15 24 23 32 39 31 28 35 35 34 32 32 30 27 24 27 29 31 31 33 33 32 32 31 31 30 28 25 20
1 1 1 3 7 7 8 13 9 4 5 9 3 5 9 7 2 1 4 14 15 19 26 33 29 29 39 39 37 35 34 33 30 27 26 29 31 32 33 33 33 32 31 31 32 29 26 20 14
4 0 3 3 8 7 8 20 7 4 3 4 4 2 2 8 9 8 6 8 14 19 30 30 31 41 44 46 40 37 35 33 31 28 27 31 31 32 32 33 33 32 31 31 31 29 25 19 16
1 1 2 3 8 7 6 14 8 3 2 2 0 6 5 6 10 14 9 9 9 20 24 28 30 31 43 54 44 40 37 34 31 28 31 33 33 32 32 32 31 30 29 30 28 27 24 19 17
6 3 5 6 15 9 6 7 5 6 2 4 2 3 3 17 9 12 12 9 8 14 22 14 24 27 44 35 47 43 39 34 30 30 33 35 35 32 31 31 30 29 28 26 26 23 22 19 14
4 4 4 5 5 11 6 2 4 6 3 3 0 3 4 22 6 4 11 8 8 14 18 18 23 21 39 55 48 43 37 33 30 31 34 35 34 32 31 30 28 26 25 23 22 21 19 18 14
5 2 5 7 5 7 11 0 9 10 8 2 3 2 6 10 9 4 8 8 10 8 14 20 13 42 33 61 48 41 37 33 32 35 35 36 33 31 29 28 26 24 22 21 19 18 16 15 13
4 3 7 9 10 7 6 2 11 5 5 2 4 7 13 7 7 8 6 9 9 15 15 10 11 48 59 46 44 42 38 35 36 36 35 34 33 31 30 27 25 23 22 20 18 16 14 13 12
4 6 12 22 23 14 5 3 3 12 2 2 2 4 12 7 6 4 2 3 11 20 12 14 14 23 44 43 42 39 36 37 37 37 36 35 32 29 28 27 26 24 21 19 18 14 14 12 9
1 13 15 12 4 3 2 5 5 6 5 2 4 4 10 8 5 5 9 8 11 12 15 18 23 27 22 35 35 37 39 38 38 36 35 34 29 30 28 28 25 23 20 19 16 14 10 10 7
6 5 13 8 4 2 3 1 5 13 12 7 3 7 7 3 6 6 8 9 11 17 21 24 24 31 33 37 38 35 37 37 36 36 35 31 30 27 29 26 24 22 20 18 15 12 10 7 4
7 12 18 9 12 3 2 2 5 10 15 10 4 4 4 2 6 7 7 9 15 18 17 23 25 27 34 38 41 43 42 39 37 38 33 31 28 29 26 25 23 21 19 17 14 11 9 8 6
10 7 9 10 7 4 2 4 5 9 15 11 7 4 2 1 6 9 11 11 16 22 20 27 33 36 40 40 40 41 41 40 37 33 30 27 27 26 23 22 20 20 19 17 15 13 12 9 9
6 3 3 6 4 4 8 9 8 7 14 13 10 8 4 2 7 11 13 16 19 27 34 33 38 41 43 42 43 41 36 35 36 30 27 22 22 23 22 22 20 20 20 16 14 15 12 11 9
2 6 6 9 9 4 5 8 7 11 14 18 15 11 7 3 6 12 14 16 19 21 28 34 36 38 40 41 45 39 40 36 35 35 30 30 22 22 22 20 21 21 19 16 17 14 11 10 11
6 4 4 7 4 5 4 11 3 13 15 18 18 12 8 9 11 13 14 15 18 19 22 32 37 38 38 39 39 40 42 37 34 35 35 25 30 21 23 20 17 18 20 20 19 15 13 13 12
9 10 12 10 12 6 7 9 9 15 14 14 16 14 14 14 15 14 14 15 17 19 18 23 32 32 38 37 39 43 41 38 36 33 30 30 26 23 20 19 21 24 24 23 22 20 19 18 17
14 15 17 12 7 6 5 10 7 12 20 29 28 21 19 19 18 18 15 18 20 21 22 23 27 31 36 35 35 41 37 38 34 34 33 29 27 21 20 24 23 27 27 26 26 25 25 23 22
17 15 15 8 5 4 4 5 4 6 11 15 19 25 25 26 22 23 27 23 19 21 25 27 28 33 32 31 34 35 36 34 36 35 32 31 33 27 24 25 26 27 29 29 28 27 27 25 26
13 12 7 5 2 2 2 5 4 5 9 14 21 26 29 27 22 23 27 25 28 27 27 32 33 32 33 33 37 35 38 36 36 37 34 35 31 28 26 28 30 29 31 29 28 28 27 27 29
14 19 6 4 3 3 6 1 6 8 8 13 18 27 34 34 31 30 30 30 34 34 36 33 32 33 36 36 36 33 36 37 34 36 35 33 31 29 27 30 31 34 32 30 29 30 29 29 31
19 4 4 4 2 2 3 1 6 5 10 19 21 29 37 41 37 35 32 32 37 40 39 37 35 34 35 38 37 37 36 37 37 36 33 34 32 32 33 33 35 34 34 33 30 31 31 31 32
6 5 1 3 2 5 3 3 8 10 6 19 24 34 39 44 45 42 41 41 42 46 44 43 39 37 36 36 36 37 37 35 33 32 33 33 36 38 36 34 36 38 37 34 32 32 34 33 33
8 9 6 6 4 4 4 5 6 5 17 18 29 37 40 40 45 48 47 45 45 47 47 45 43 40 39 38 37 38 37 36 33 33 34 34 34 36 37 36 36 39 38 35 33 36 36 33 32
7 5 9 6 0 3 3 5 8 6 4 2 13 27 32 40 45 49 47 46 47 47 50 50 47 43 41 41 39 38 38 40 39 38 39 37 34 33 32 33 31 33 38 38 37 37 37 36 37
13 8 4 1 7 4 4 5 5 5 4 4 6 21 32 42 44 45 46 47 47 47 47 50 49 48 46 43 41 40 40 39 42 41 42 43 39 36 33 32 30 31 38 39 37 38 39 35 29
3 4 3 6 6 6 3 6 6 9 4 5 7 22 36 36 41 45 46 46 47 48 47 47 48 50 49 47 45 44 43 44 44 47 46 46 43 38 33 34 34 35 36 35 36 41 34 34 33
4 10 10 5 5 3 5 6 4 9 8 9 9 14 21 30 34 36 36 33 44 48 47 48 47 47 48 44 46 46 46 45 45 45 51 50 42 36 35 35 29 29 33 37 35 39 37 35 33

GFSSGP_850_spd_087.txt.gz
Wind_Speed
3 1 2 1 4 5 2 6 3 4 6 6 9 5 5 6 1 2 5 5 11 23 39 38 39 35 30 33 37 36 32 27 28 27 25 24 26 27 29 31 31 31 30 30 29 28 27 28 28
2 1 1 2 5 3 5 5 6 6 4 15 6 5 4 2 4 3 3 6 16 25 37 36 36 35 33 29 30 32 29 30 26 24 24 25 27 30 33 34 34 31 32 31 30 27 25 25 24
2 2 1 4 3 3 4 5 7 4 8 5 3 2 0 2 4 3 4 6 14 31 36 34 33 35 35 33 24 28 31 29 28 27 27 29 30 33 35 35 34 34 33 31 28 25 22 23 22
2 2 4 4 5 7 7 9 10 3 4 8 3 1 2 6 4 3 6 7 18 24 26 30 35 36 36 39 29 23 32 33 31 27 28 30 34 37 37 36 35 35 33 31 28 24 19 19 17
0 2 3 1 5 4 6 15 10 5 3 3 4 4 4 6 9 8 11 11 16 22 24 27 36 37 39 31 42 34 33 36 33 29 30 32 35 38 39 37 35 33 32 29 27 21 18 16 16
2 2 3 2 4 5 7 11 6 3 3 6 3 5 5 6 6 8 11 16 20 23 25 29 34 45 40 30 44 47 33 37 33 31 33 34 36 38 38 38 35 34 32 28 25 20 17 19 19
5 3 4 3 5 6 5 3 4 6 6 5 3 3 4 8 5 4 5 15 16 19 26 33 35 40 38 36 53 49 43 38 32 34 35 36 38 39 38 37 36 34 32 26 23 19 17 17 17
3 3 2 4 4 7 7 3 3 10 6 6 4 5 3 8 1 5 4 6 6 11 18 25 34 36 36 41 48 47 43 38 39 38 37 38 38 39 37 36 34 34 31 26 21 18 15 15 15
4 3 3 5 3 6 15 3 4 5 4 5 8 8 5 7 2 5 8 11 12 18 19 21 25 36 37 42 45 49 40 39 38 38 38 38 38 38 36 35 33 32 30 25 20 18 15 12 12
4 3 6 6 5 8 17 6 11 4 6 6 8 10 11 8 5 6 10 13 14 14 15 22 21 41 37 50 45 46 39 36 39 39 40 39 38 38 36 33 32 30 28 26 20 17 15 11 9
5 6 5 15 23 18 10 4 9 7 5 7 6 5 7 9 6 6 7 9 13 16 12 8 7 13 56 55 46 42 37 34 39 45 45 40 39 38 37 35 31 28 26 24 20 17 13 11 9
2 11 10 11 17 6 3 7 5 13 3 6 4 3 8 7 6 7 8 7 13 18 8 10 5 10 38 49 53 58 46 44 44 44 42 42 41 39 36 32 28 28 24 21 19 16 15 12 9
6 6 10 18 19 15 6 8 7 10 8 6 3 2 7 6 6 10 10 9 12 18 11 7 13 18 22 47 56 56 48 45 43 40 40 39 38 37 34 28 29 25 22 20 18 15 14 12 8
3 10 15 16 19 13 8 5 8 12 10 9 6 5 4 4 7 7 9 9 10 10 16 11 19 22 29 26 41 44 43 42 40 38 37 38 36 35 33 30 28 23 22 19 16 15 12 10 6
4 6 9 14 10 6 5 2 7 11 15 12 8 4 6 6 4 4 10 9 12 11 18 18 18 22 31 40 45 41 41 41 40 41 40 34 33 33 30 30 28 23 23 20 17 14 12 11 10
4 1 4 6 3 5 5 10 7 18 20 14 10 8 5 5 4 6 8 10 12 13 15 20 21 22 31 35 37 40 40 40 39 38 35 33 30 29 28 27 24 23 23 20 17 13 12 12 11
3 4 5 10 5 4 4 9 3 20 18 17 14 9 5 4 6 6 9 11 15 17 17 24 27 32 35 38 39 38 40 38 35 32 31 27 26 25 24 24 24 23 22 20 17 15 14 15 12
6 5 3 6 5 1 5 13 5 16 18 18 13 10 10 7 7 7 8 12 15 22 22 32 37 37 37 38 38 40 37 36 35 31 28 29 25 23 23 23 23 21 21 21 19 16 16 13 11
2 4 5 12 18 4 16 9 12 15 16 12 13 15 11 9 8 9 10 13 13 17 19 20 32 34 38 38 43 41 37 39 40 33 28 26 29 26 21 22 22 22 23 24 19 19 18 17 17
6 7 11 10 15 3 12 11 5 9 10 20 22 21 16 11 10 10 13 15 16 15 17 25 29 33 38 41 42 39 37 41 37 35 31 30 33 29 22 21 23 25 25 22 23 23 23 20 20
10 10 9 8 16 9 3 7 7 3 4 13 15 22 19 16 14 16 18 19 18 18 20 22 27 29 28 35 39 37 40 37 32 38 37 38 32 32 28 24 27 28 25 27 26 27 26 25 25
13 11 13 11 6 5 2 5 6 4 4 6 13 23 25 23 17 17 20 21 23 23 19 17 18 24 28 36 39 39 42 43 40 39 38 37 35 35 30 26 27 27 28 27 27 28 29 29 29
12 7 10 11 7 2 2 2 6 3 5 9 11 26 32 29 23 21 22 25 23 23 19 20 22 23 25 30 32 32 39 39 38 40 39 36 35 34 30 29 28 27 27 28 30 31 32 31 32
11 5 4 3 3 2 4 4 5 5 7 5 10 23 34 35 30 25 22 24 24 22 23 24 25 26 28 30 31 34 37 37 37 39 41 41 38 35 35 34 33 32 32 33 32 35 34 32 34
5 3 2 4 2 5 6 3 9 8 7 8 13 25 34 39 36 32 31 31 30 32 32 32 33 32 33 36 36 41 39 38 40 39 42 43 41 40 41 39 39 37 35 34 34 36 34 34 36
8 9 5 6 4 4 3 5 6 7 8 13 22 29 29 34 38 37 35 33 33 36 35 35 35 33 35 39 41 41 40 38 40 39 39 40 41 42 41 40 39 38 37 37 36 36 36 35 38
6 8 9 4 2 2 4 6 9 8 8 4 11 17 28 36 39 41 39 38 36 37 39 38 37 37 39 40 40 41 39 40 42 40 38 40 41 40 37 35 39 40 39 39 38 40 39 39 39
12 5 2 1 7 5 3 4 6 8 4 4 7 18 30 34 37 40 41 42 42 42 42 42 43 44 44 44 45 44 43 44 44 41 42 42 39 38 38 38 38 42 42 41 40 42 38 42 41
5 12 3 4 5 7 2 5 8 10 9 4 5 20 29 33 37 39 43 45 46 44 46 49 49 49 48 47 47 46 46 45 43 43 44 43 42 43 42 44 45 41 41 40 38 40 40 41 39
5 14 13 6 4 3 4 7 5 9 8 8 3 8 19 29 33 35 37 41 44 46 49 51 52 53 53 51 49 50 47 47 46 46 45 45 47 48 46 43 47 39 39 38 40 41 40 38 38

GFSSGP_850_spd_090.txt.gz
Wind_Speed
3 1 2 2 4 5 3 4 2 4 3 0 8 2 3 4 4 5 5 5 7 30 37 33 32 33 33 31 31 30 30 31 33 31 27 24 24 25 29 29 28 29 28 27 27 27 27 27 28
2 2 3 3 4 3 5 4 5 5 4 8 4 1 5 5 6 6 6 6 6 27 33 39 36 34 37 35 33 28 31 31 29 29 26 24 24 29 31 31 30 30 29 27 28 29 28 28 28
1 2 2 4 3 3 4 5 7 4 6 5 3 4 4 4 7 5 11 10 12 23 30 34 36 35 35 35 34 31 30 31 27 26 25 25 27 31 33 33 31 30 29 28 28 27 26 26 26
2 2 4 4 4 6 5 7 7 3 3 9 2 6 5 9 6 6 8 8 13 22 33 39 36 35 34 37 37 34 32 30 27 24 24 26 29 33 34 33 32 32 31 28 27 27 26 25 23
2 2 3 1 4 5 5 11 6 4 3 5 6 5 5 8 9 8 13 10 10 21 30 34 35 35 36 39 39 35 32 31 28 26 22 26 32 35 35 34 34 32 30 27 26 23 24 23 22
3 2 3 2 4 5 5 10 3 5 6 3 4 4 7 9 6 10 14 12 12 17 24 27 35 37 37 38 39 32 30 27 30 26 25 30 36 37 36 35 33 31 28 26 23 21 22 22 20
6 4 4 3 5 6 4 3 3 3 4 8 5 3 5 9 8 7 9 9 15 19 23 23 29 37 35 37 37 35 38 36 32 31 26 33 38 38 36 35 33 31 27 24 22 22 23 22 19
5 4 2 4 2 7 4 3 6 10 10 8 7 6 6 8 9 9 7 10 15 17 24 25 28 36 41 37 34 35 42 41 36 31 27 34 39 37 36 35 33 31 27 23 21 21 21 19 16
4 3 3 5 4 6 9 3 5 5 7 8 8 11 10 12 12 7 8 8 13 16 21 23 30 34 44 38 35 36 45 42 38 36 28 40 40 38 36 36 33 30 27 23 19 19 20 17 14
4 3 8 7 6 6 18 7 8 5 4 9 14 15 16 14 11 8 10 12 13 12 13 17 26 32 36 39 38 44 47 44 40 33 34 41 41 39 36 35 32 29 25 21 18 17 16 14 14
5 6 5 10 15 10 5 5 7 6 5 17 11 11 13 13 8 11 12 13 16 15 19 21 24 22 27 31 38 52 49 45 43 37 39 42 43 41 39 37 33 29 25 23 19 16 15 13 11
3 11 8 10 12 3 4 4 5 12 16 7 11 9 9 7 9 13 14 11 10 13 15 12 15 29 43 41 46 57 54 46 40 41 39 42 45 42 40 37 32 28 25 22 19 15 14 13 11
5 5 7 12 19 15 10 13 8 14 21 11 8 7 7 6 10 13 12 12 9 14 11 10 16 19 27 35 59 62 55 48 47 45 40 45 45 43 40 35 31 27 24 21 19 15 14 13 8
4 8 15 15 22 11 6 3 2 12 16 13 9 9 7 7 8 11 10 10 9 10 13 9 8 3 32 32 54 56 51 47 46 48 45 44 44 42 38 35 31 27 24 21 18 15 14 11 8
5 5 7 7 8 6 6 5 9 21 17 15 12 10 8 6 7 9 9 9 7 7 10 6 10 12 32 35 49 44 46 43 44 44 43 39 39 41 39 33 29 19 24 22 18 16 13 12 10
3 3 4 4 2 3 8 8 6 10 19 18 14 11 9 7 6 8 5 8 7 9 10 11 12 14 23 34 41 38 36 40 40 44 38 35 38 38 36 35 31 31 27 24 19 18 13 12 10
3 4 4 9 3 2 3 8 5 5 16 16 19 14 11 9 7 8 7 8 6 8 13 14 15 18 23 31 37 44 44 43 39 37 37 40 36 35 34 33 29 27 27 24 21 17 13 13 12
6 4 4 7 3 5 2 11 13 13 19 18 21 15 12 9 7 8 9 9 9 10 13 16 18 22 28 32 37 37 35 34 37 41 44 42 39 37 33 30 28 27 26 24 21 16 14 14 12
4 4 4 6 6 3 9 8 14 10 15 13 21 20 15 12 7 9 10 10 9 10 16 15 24 29 32 35 36 34 33 37 38 39 37 43 31 30 29 28 27 25 27 25 21 17 18 19 18
5 6 9 9 14 7 9 15 12 5 8 17 16 22 18 15 12 12 12 11 10 14 13 11 23 35 32 35 37 38 36 37 34 35 39 40 37 30 29 27 26 27 26 25 23 21 23 21 20
7 13 5 9 8 5 3 7 8 3 7 13 17 17 20 19 16 15 15 16 15 14 13 17 18 32 30 36 41 43 38 33 35 34 32 34 35 32 33 32 27 27 25 25 25 26 25 25 24
10 9 9 7 2 4 3 5 6 4 6 5 14 18 22 23 18 15 19 19 19 18 18 20 24 35 38 38 37 42 43 41 40 39 35 35 33 35 35 30 26 26 26 26 29 30 28 27 28
11 8 9 6 5 2 4 2 7 1 6 10 10 27 24 26 22 19 18 20 18 20 21 22 25 30 31 29 35 42 40 40 40 38 40 40 34 34 34 32 30 27 26 28 31 32 33 33 32
2 3 3 2 2 5 7 7 5 4 6 5 5 23 28 28 26 22 18 18 22 23 22 23 24 28 31 32 34 41 43 41 40 39 43 45 43 40 35 33 34 31 31 29 29 30 32 34 35
5 4 2 2 2 6 4 4 7 7 9 8 10 17 25 29 30 28 26 26 26 24 24 23 25 28 31 34 34 37 37 36 38 37 44 43 43 41 40 39 39 37 33 31 31 33 35 37 38
10 9 6 6 4 4 3 6 6 9 9 13 19 22 17 26 31 32 30 28 29 29 28 26 27 28 29 32 33 33 33 32 35 37 37 40 44 45 42 40 40 39 37 36 37 37 38 38 39
5 6 7 1 2 1 4 6 8 7 8 6 10 12 20 24 28 34 33 31 30 31 33 33 32 30 30 32 31 32 32 34 35 37 38 41 42 43 43 42 43 41 42 42 41 42 41 39 40
10 8 3 0 5 5 4 4 5 6 9 7 7 12 20 21 21 27 34 35 34 33 32 34 35 33 32 33 33 34 35 37 38 38 40 40 42 42 42 43 43 44 45 43 42 43 41 40 39
4 9 3 4 5 5 2 6 8 11 9 7 9 14 17 21 21 21 27 33 35 35 34 35 36 36 37 36 34 35 36 36 36 38 39 39 39 40 43 44 44 45 45 43 42 40 41 39 40
2 8 13 9 6 2 3 10 4 8 6 8 10 10 14 17 18 20 23 27 31 35 37 38 38 38 38 36 35 35 38 38 40 41 40 40 41 42 44 44 45 48 44 46 40 39 30 34 43

GFSSGP_850_spd_093.txt.gz
Wind_Speed
5 2 1 1 2 1 0 3 2 3 3 5 5 5 4 5 5 6 6 3 9 27 38 38 39 35 34 31 32 33 35 34 33 31 30 26 25 28 30 27 25 22 22 22 25 25 25 25 25
4 3 3 3 1 1 1 2 6 7 5 6 5 4 4 5 13 7 8 9 9 22 41 40 36 36 36 32 34 36 34 34 33 30 29 27 27 29 28 26 25 24 24 26 25 27 27 27 26
4 3 2 3 2 1 3 5 8 5 8 5 3 4 3 5 6 5 9 10 11 22 41 40 39 39 35 35 38 36 36 38 35 31 27 27 28 30 27 28 26 26 26 27 29 29 28 27 26
4 2 5 1 3 4 4 5 4 6 3 7 4 5 7 11 4 9 8 12 11 16 40 46 44 40 38 36 38 37 39 39 34 29 28 27 29 29 29 29 28 27 27 30 30 28 27 26 26
5 3 2 1 3 4 6 8 4 4 4 4 6 4 6 8 14 12 14 16 15 18 27 43 43 38 40 40 39 38 42 40 34 27 27 27 30 29 30 30 29 27 28 28 28 27 25 25 23
3 2 2 3 4 4 6 8 3 4 7 4 5 6 10 10 10 11 15 15 16 13 21 22 30 33 32 34 37 41 42 41 35 29 26 28 30 31 33 32 29 29 29 29 27 26 25 23 21
4 3 2 3 3 4 4 3 4 4 6 8 7 4 6 7 12 11 10 9 13 9 11 18 20 20 26 32 35 42 41 39 37 34 31 32 33 35 34 33 31 29 28 27 25 26 24 22 20
5 2 4 4 4 5 4 3 7 8 7 7 8 7 5 5 7 10 9 8 11 12 10 13 29 33 32 36 35 39 41 40 38 33 32 35 36 36 34 31 30 28 26 24 25 25 23 20 18
7 2 4 4 7 4 3 4 4 7 7 7 10 18 14 15 13 12 11 13 16 14 13 14 22 24 30 36 34 36 37 39 35 33 34 36 39 37 32 33 31 27 25 25 26 26 23 20 17
5 4 8 6 6 4 11 7 6 3 5 10 16 21 21 20 15 15 11 9 12 17 19 17 20 29 36 38 39 38 37 37 36 32 32 37 39 36 35 34 30 27 24 24 25 24 22 18 17
6 7 6 8 14 11 7 7 5 5 9 18 12 12 15 16 15 15 12 10 12 13 15 15 14 24 35 42 35 40 46 39 39 39 35 35 39 37 38 37 31 27 23 23 23 23 20 16 13
4 10 8 8 9 5 5 5 6 11 17 15 11 13 14 13 12 12 12 10 12 13 17 20 20 19 25 31 41 43 45 46 42 41 36 35 41 41 41 39 33 29 26 24 24 22 19 16 12
5 5 8 16 14 12 11 14 11 17 23 18 16 14 13 9 10 14 11 9 10 10 14 15 15 18 25 29 33 46 51 49 45 46 38 39 43 44 42 39 34 30 26 24 23 20 20 15 14
5 6 11 11 14 11 11 11 4 19 13 15 15 14 12 9 11 12 10 7 8 7 12 14 17 20 22 34 48 46 48 54 55 44 44 40 45 44 42 38 34 30 27 24 20 18 17 14 12
3 6 7 9 7 6 11 6 9 13 11 10 11 13 11 9 10 10 10 9 7 6 7 9 11 14 15 28 39 64 55 63 52 46 42 39 49 45 43 38 35 32 27 23 20 19 18 15 13
2 2 6 1 4 2 8 10 6 6 9 14 14 13 12 10 9 8 10 9 6 7 7 8 7 8 8 30 44 57 59 58 45 47 42 40 48 46 42 39 36 33 28 25 21 20 19 15 12
3 10 6 6 3 3 4 8 2 3 9 13 15 14 12 12 12 9 10 7 8 7 7 8 6 5 12 24 34 50 51 47 46 43 40 36 43 44 41 40 38 34 33 28 22 22 18 16 15
8 6 5 7 3 2 7 16 15 10 12 17 16 15 13 14 13 9 12 9 9 6 9 7 10 8 12 28 31 37 39 40 40 37 38 34 40 42 42 40 37 35 31 28 23 22 19 17 15
4 5 6 4 5 3 9 11 17 21 9 13 15 17 16 16 12 10 11 11 9 11 8 12 14 13 16 25 37 40 37 37 34 32 36 34 34 37 38 34 31 30 30 26 24 23 20 20 19
15 13 14 12 9 8 7 13 18 12 9 8 15 18 19 14 14 12 12 13 11 10 12 12 11 19 20 24 30 33 34 39 34 34 35 36 37 34 31 29 30 29 28 24 24 25 24 23 21
16 17 16 15 6 6 7 6 6 3 8 5 9 14 20 19 18 16 16 15 16 13 13 13 10 22 24 30 34 36 34 34 35 33 37 38 39 39 34 33 28 26 26 26 28 27 25 25 24
17 15 14 12 5 7 3 7 7 11 14 9 12 16 20 21 22 18 16 17 19 16 15 13 11 21 30 29 30 38 41 40 36 36 39 40 39 40 37 27 26 30 27 31 29 29 29 28 28
12 8 12 12 9 7 8 5 3 2 10 14 7 16 20 22 26 23 19 16 19 19 18 17 17 22 32 30 32 41 40 39 35 36 39 39 36 37 34 37 34 30 32 33 33 32 31 31 33
2 11 4 2 3 8 10 7 6 5 7 6 4 9 18 22 27 24 20 18 21 22 22 22 22 24 34 36 34 38 43 39 38 37 39 42 41 42 38 37 36 36 34 31 31 30 30 33 36
7 4 2 4 5 7 7 9 13 7 11 10 12 8 10 19 27 29 28 25 24 27 26 25 27 28 30 34 32 35 36 43 44 42 40 40 37 40 38 38 37 38 36 35 32 30 31 32 33
13 14 6 6 5 4 4 6 6 9 10 10 14 13 9 17 26 32 32 29 25 26 27 28 29 31 35 36 35 35 36 42 44 42 41 43 42 42 46 40 37 37 37 36 36 35 35 36 37
6 9 13 6 1 3 4 4 8 7 10 6 9 9 11 18 25 33 35 34 28 27 28 28 28 29 31 32 34 37 37 44 45 44 42 42 43 43 50 46 44 40 38 39 39 40 41 42 43
8 6 4 5 6 10 5 4 6 2 7 7 7 9 9 14 20 27 34 36 33 28 27 26 25 26 27 29 33 34 36 38 41 40 40 40 42 43 45 46 45 45 44 43 43 44 44 46 46
5 12 6 3 4 7 7 5 8 11 11 10 10 7 10 14 20 22 30 34 34 31 28 28 29 27 29 30 31 33 34 34 34 34 35 36 37 38 39 40 41 42 43 43 43 44 46 47 47
3 2 14 10 8 2 5 11 4 10 6 6 12 9 7 11 15 16 21 29 33 34 32 32 32 33 33 32 32 33 32 32 33 34 33 33 35 36 35 35 36 38 40 42 43 45 51 55 54

GFSSGP_850_spd_096.txt.gz
Wind_Speed
6 3 1 2 5 6 3 4 3 5 4 2 4 7 10 13 8 9 7 8 5 14 20 28 32 30 34 27 36 36 38 36 36 35 31 29 30 24 24 25 22 23 21 20 20 20 21 22 22
6 4 2 4 6 7 5 2 5 2 4 6 9 9 9 10 9 9 8 11 8 7 19 24 36 34 30 31 39 40 40 38 37 36 33 30 30 22 16 24 23 22 21 20 21 22 23 23 23
6 5 7 4 4 5 3 3 2 4 6 9 5 6 7 6 7 6 10 10 9 11 15 26 37 37 32 37 40 41 39 37 39 36 32 31 29 24 25 25 24 23 21 23 23 25 25 24 24
4 4 4 8 8 3 4 1 2 5 2 5 6 10 7 12 5 8 13 11 11 12 14 25 38 38 38 37 38 41 41 38 40 37 33 30 30 27 27 25 25 23 23 26 27 27 26 25 24
5 5 7 11 8 3 4 2 3 6 3 6 7 13 10 10 12 17 14 13 11 12 15 24 33 38 40 41 38 43 41 42 41 37 33 31 29 28 28 28 27 24 25 29 28 27 26 25 24
8 5 8 9 11 6 4 3 5 7 6 6 6 15 17 14 15 10 13 13 15 15 18 19 31 23 26 37 41 44 44 43 39 36 34 28 29 29 30 30 27 26 29 29 27 26 25 24 24
11 7 11 10 9 8 7 2 8 11 11 12 10 9 13 7 9 12 12 12 14 15 13 15 14 24 49 35 37 42 47 43 40 36 33 29 28 31 32 30 29 28 29 28 26 25 23 21 21
10 6 9 10 10 14 6 4 8 11 12 3 6 9 13 5 8 10 9 9 12 12 12 10 11 14 34 30 30 30 33 40 42 37 34 32 30 32 34 32 29 28 29 28 26 24 22 21 19
8 8 11 12 12 12 6 5 5 6 11 9 11 16 12 11 15 13 6 3 8 10 6 6 12 5 24 29 27 29 33 37 38 36 36 35 37 35 34 32 30 29 28 27 26 23 21 20 18
13 11 14 6 9 9 10 8 12 8 12 15 17 18 16 14 11 9 8 5 6 6 10 8 19 21 25 32 29 35 36 27 35 35 36 36 39 35 29 32 31 29 26 26 26 23 20 18 18
13 17 12 10 11 12 16 15 12 14 17 18 17 19 11 13 9 9 9 8 7 6 9 7 12 23 32 31 28 28 39 34 35 38 38 36 37 36 33 35 32 29 26 29 27 24 19 15 14
14 19 20 15 15 14 15 19 17 20 25 23 19 14 9 10 8 7 9 10 9 9 9 11 11 22 27 26 33 33 33 40 38 36 41 39 40 39 36 32 31 31 29 29 27 24 17 16 13
17 18 19 19 19 19 17 22 22 27 27 24 18 11 11 9 5 5 7 11 10 9 9 9 12 15 21 30 35 39 40 40 41 41 43 40 41 40 41 32 30 28 26 28 25 21 19 16 15
8 13 18 17 18 19 17 25 22 29 19 14 13 15 12 8 5 5 6 7 9 7 8 9 11 13 15 20 32 37 46 49 43 44 43 41 43 44 45 32 28 28 27 26 23 21 19 17 15
14 15 17 19 20 20 18 22 22 26 9 12 13 14 12 9 6 5 6 7 8 7 8 11 12 13 16 21 27 34 42 50 52 45 43 44 43 47 41 39 28 27 26 25 23 23 19 17 15
10 14 15 6 8 12 11 16 7 6 7 13 12 13 12 10 8 7 5 6 10 10 10 11 9 9 10 21 30 40 44 61 57 50 46 43 45 44 36 39 29 27 28 26 26 22 21 18 14
14 15 15 11 10 10 13 15 5 6 9 14 12 14 13 11 10 9 6 6 10 9 10 12 10 6 7 17 19 28 53 57 49 56 45 45 46 43 39 40 29 33 30 29 26 23 21 19 15
16 18 15 14 5 10 14 17 16 11 9 16 13 13 14 13 11 10 7 7 10 10 9 11 7 6 6 11 16 33 54 52 54 53 54 46 44 44 47 42 37 34 31 29 24 23 22 17 13
15 14 15 12 2 7 13 17 16 18 13 14 13 14 15 14 10 10 8 7 10 10 9 11 6 7 8 10 27 35 44 49 45 52 46 38 44 47 45 41 37 34 31 28 28 24 23 19 18
21 19 17 16 14 11 17 17 14 16 16 12 11 14 15 13 13 12 10 8 14 12 11 11 9 10 16 11 24 36 37 37 38 39 35 31 41 45 44 42 38 34 27 28 29 27 21 22 22
21 22 18 19 14 13 19 20 20 17 12 10 11 13 13 16 16 16 14 11 15 15 13 15 13 14 17 18 26 29 29 30 33 33 34 34 34 42 44 40 34 32 30 29 27 26 23 23 23
21 18 20 17 15 11 3 12 14 11 16 17 18 15 15 15 16 17 17 14 15 18 13 14 14 15 20 23 28 30 32 35 36 33 34 38 38 34 34 37 34 30 30 28 25 24 24 24 25
17 15 17 16 16 16 19 10 11 10 12 12 13 15 16 16 19 19 18 15 14 18 18 17 14 16 22 25 26 30 34 39 37 34 35 39 37 41 38 29 27 26 26 23 23 24 32 29 25
7 13 10 8 9 13 17 13 10 13 11 6 4 2 12 16 19 19 18 17 16 17 17 18 18 17 22 24 24 27 35 42 38 39 33 36 39 40 44 43 37 32 28 30 29 29 33 33 35
14 9 6 8 7 8 7 12 16 7 10 11 11 10 9 15 21 22 23 21 20 20 20 20 20 20 24 27 26 29 31 37 40 36 33 31 39 40 41 40 39 37 40 37 36 33 34 35 35
20 17 7 9 10 7 9 8 11 9 11 11 8 6 8 15 21 25 25 23 22 22 22 21 22 24 25 28 26 28 26 35 33 29 30 38 39 40 41 42 40 43 38 39 36 34 33 34 35
13 16 19 18 14 7 7 7 8 9 10 10 12 5 10 15 20 25 26 24 23 23 24 24 23 24 26 28 31 31 27 35 35 27 29 33 31 33 39 37 36 34 36 35 35 33 31 30 35
19 4 8 11 9 15 12 13 7 9 11 9 8 12 7 14 20 25 27 27 24 23 23 24 24 25 25 27 30 33 31 32 29 30 31 32 29 28 26 28 31 32 34 34 32 32 32 31 34
13 16 13 9 12 11 11 9 9 13 11 9 8 7 5 12 19 23 26 26 25 24 25 27 28 27 27 27 28 29 29 30 33 33 36 37 37 34 32 32 31 32 35 35 36 37 38 36 40
9 8 18 13 17 10 13 13 1 12 9 6 11 6 2 6 15 18 22 25 27 27 27 28 31 32 30 28 28 29 28 30 32 36 35 36 37 37 37 35 33 33 34 37 38 44 48 47 46

GFSSGP_850_spd_099.txt.gz
Wind_Speed
5 3 4 8 7 8 13 1 5 7 5 2 4 6 13 13 10 6 5 6 8 1 7 13 25 26 26 29 31 30 32 30 29 30 29 27 24 23 21 21 22 21 19 19 16 16 17 19 19
2 6 7 12 8 12 2 4 7 3 4 4 6 9 9 9 7 7 5 8 7 2 7 11 24 28 27 29 32 33 33 31 28 27 30 28 26 24 23 22 22 19 18 17 17 18 20 21 21
6 8 13 10 13 13 8 6 4 1 4 7 6 4 8 9 4 7 2 6 6 4 5 12 22 30 31 29 33 37 37 36 35 36 34 31 25 26 25 23 22 18 17 17 18 20 21 21 21
4 9 14 9 16 9 7 3 1 8 6 6 8 9 8 5 7 3 1 5 4 6 7 13 23 29 32 32 36 41 41 41 37 36 35 34 28 28 28 24 17 18 17 18 20 21 22 22 23
9 13 12 16 16 9 4 7 6 10 8 8 10 12 14 8 4 3 3 7 8 8 10 16 23 29 35 40 42 44 45 43 40 38 37 32 28 30 28 24 23 18 19 21 23 23 22 23 23
13 12 13 14 13 7 5 7 7 11 12 12 8 15 16 4 5 6 8 6 12 16 13 21 22 29 32 37 38 44 48 46 43 42 38 33 20 30 27 25 24 24 25 26 25 24 22 23 23
16 12 16 19 13 13 8 8 9 13 14 13 11 11 16 11 6 7 5 9 15 18 16 19 21 26 35 32 50 47 49 48 46 44 38 32 29 30 27 26 25 27 29 27 25 24 23 22 21
20 13 21 19 12 13 9 7 10 15 16 7 9 11 12 6 4 5 5 9 12 15 15 15 20 27 24 23 33 37 44 46 46 43 38 32 33 30 27 29 27 29 29 27 25 23 22 22 21
12 13 15 19 14 11 7 6 15 11 16 19 15 14 16 6 5 4 6 6 12 14 15 13 13 19 23 16 42 35 46 48 48 42 40 37 35 28 31 28 28 30 29 27 26 23 22 21 20
17 13 20 18 10 13 14 8 13 17 18 20 19 18 18 8 7 9 9 10 10 15 18 17 13 7 7 14 16 26 28 29 45 43 41 38 36 36 32 30 30 31 30 28 26 22 21 21 21
21 20 20 20 11 15 17 16 18 18 17 22 20 17 16 7 10 11 9 9 8 9 16 15 10 14 15 19 27 13 19 32 35 42 42 39 33 33 34 33 31 31 30 28 25 23 20 15 15
21 25 22 23 25 17 17 21 22 23 22 24 20 21 13 12 11 12 11 10 7 9 11 10 10 15 21 25 27 18 24 34 23 37 38 36 37 39 35 38 35 34 32 31 28 24 16 15 14
21 20 23 26 20 24 23 22 24 27 25 24 22 20 14 13 11 10 10 8 8 8 9 9 10 12 17 24 18 23 20 29 34 33 38 36 42 42 34 37 35 29 27 31 25 20 17 14 13
20 20 20 24 26 24 21 22 25 29 26 20 17 18 15 12 10 10 11 10 8 8 8 8 10 13 14 17 20 21 23 31 31 35 39 38 40 39 37 34 32 27 27 26 23 20 18 16 14
25 21 22 21 24 23 24 23 24 31 24 17 15 15 14 13 11 11 11 10 9 9 12 9 11 11 15 17 18 22 27 33 35 38 41 40 40 41 41 35 33 28 27 26 24 20 17 17 14
17 19 20 19 24 23 21 20 20 6 11 14 18 14 14 13 13 11 10 9 8 11 12 13 12 13 14 16 20 19 32 35 38 41 43 40 37 40 43 36 33 29 28 26 23 22 20 17 15
20 20 22 20 16 13 13 16 17 8 11 15 17 16 15 13 13 12 10 8 9 10 13 13 11 11 12 16 20 25 30 35 42 44 50 51 42 40 41 34 34 33 25 26 24 22 21 18 16
23 22 21 21 19 15 16 20 17 22 18 17 18 16 13 13 14 13 11 10 9 12 11 11 12 13 11 11 14 19 30 39 45 52 52 49 47 43 43 34 30 27 25 25 24 23 19 17 16
24 26 24 17 13 11 15 18 18 17 22 19 19 17 15 12 11 12 13 11 11 13 12 12 12 11 7 11 14 18 30 36 50 55 53 51 48 49 39 34 31 30 26 29 25 23 21 16 15
26 28 26 20 21 15 17 19 21 20 19 23 23 18 15 14 12 14 13 12 13 14 14 15 13 10 9 9 14 12 20 42 49 50 54 47 51 48 43 37 37 34 26 23 23 22 19 16 17
25 26 23 24 21 23 16 22 22 22 26 27 27 17 18 13 16 17 16 15 14 16 17 18 16 14 12 11 16 20 33 42 46 45 46 48 53 51 46 39 37 34 25 27 28 25 20 16 17
23 20 21 23 20 17 18 19 18 14 14 18 19 23 21 17 14 18 19 17 16 16 16 15 17 16 15 14 21 21 19 35 40 46 42 45 43 44 45 34 36 34 29 26 26 23 22 17 12
21 17 17 19 19 19 23 15 14 16 16 19 14 20 21 16 15 19 20 17 17 17 16 16 17 15 19 22 22 25 22 19 22 24 28 33 38 44 43 38 37 33 31 23 24 24 24 21 18
17 14 17 17 15 17 20 19 16 16 15 13 10 6 7 14 16 19 19 17 17 19 18 18 17 15 20 24 27 29 27 26 28 30 36 38 35 43 43 41 41 37 32 28 25 22 22 23 24
14 15 11 12 12 14 17 16 16 11 15 6 6 7 13 13 17 21 22 20 19 20 20 20 18 16 21 23 25 25 27 26 32 30 34 36 39 37 41 39 37 33 31 27 26 23 27 30 29
17 18 11 14 11 11 16 11 15 15 18 19 13 7 10 13 17 23 24 22 20 21 20 20 21 18 23 23 18 21 23 27 32 34 31 31 35 38 39 36 36 40 36 32 27 35 38 33 31
19 19 22 21 18 12 7 10 15 4 8 8 8 13 13 14 16 22 25 23 22 22 23 21 21 19 22 27 22 22 22 24 34 36 31 29 28 33 38 40 42 42 43 39 44 37 39 42 41
21 14 15 14 17 20 17 18 9 11 10 12 11 9 14 14 17 21 26 25 23 22 21 21 21 22 22 24 25 22 24 23 23 27 28 26 27 29 30 37 39 39 37 36 37 42 39 38 37
13 18 16 13 15 15 12 10 10 8 10 5 9 10 10 8 16 21 26 26 24 22 22 22 21 22 23 24 24 25 25 23 25 27 27 29 27 28 27 28 33 32 32 31 31 34 37 34 33
12 17 22 11 16 12 14 14 3 4 3 2 10 7 2 7 12 20 25 27 26 25 24 24 24 23 23 22 24 24 25 25 26 27 31 29 30 29 28 31 28 29 31 31 34 36 37 35 38

GFSSGP_850_spd_102.txt.gz
Wind_Speed
6 3 3 10 6 8 18 7 8 8 1 5 6 4 10 12 8 3 8 6 10 7 6 9 7 17 21 21 22 22 24 23 23 24 23 22 21 21 20 20 19 18 17 18 16 17 18 20 19
5 6 9 10 8 13 11 7 5 3 9 10 6 9 10 9 4 4 3 5 11 4 3 11 6 17 22 21 24 26 26 25 26 25 22 18 21 21 21 21 20 19 17 18 17 17 18 20 19
6 5 11 7 12 14 16 9 5 8 5 3 7 10 5 5 7 5 3 7 7 4 4 10 13 12 23 22 25 28 28 29 28 28 16 21 18 21 22 22 19 18 20 21 18 19 20 21 23
3 10 11 7 15 20 22 5 7 2 9 7 3 6 10 1 6 9 8 8 4 3 7 10 14 17 19 25 26 30 31 33 33 34 22 29 28 23 24 23 19 17 17 20 19 21 22 23 28
11 10 12 16 21 23 14 2 5 7 11 5 9 12 12 18 9 11 6 4 5 7 10 16 14 19 20 22 29 32 36 38 38 37 29 31 28 23 25 24 20 16 18 19 21 23 24 27 30
16 17 13 13 19 15 4 4 2 6 13 12 10 11 13 3 7 10 4 6 8 11 15 18 16 18 22 25 28 34 39 38 41 38 37 40 28 24 25 24 23 21 14 19 22 23 24 26 29
15 12 17 21 19 21 14 8 9 9 13 11 8 8 10 10 8 11 7 7 11 14 16 17 19 20 22 28 30 32 40 26 36 40 41 38 27 31 32 27 23 21 22 22 22 23 25 26 28
21 13 21 19 16 20 12 7 8 7 14 12 3 5 9 8 8 6 8 12 13 16 16 16 19 18 21 28 34 34 34 36 48 42 43 34 31 38 33 29 26 25 27 27 27 26 26 26 25
23 14 15 21 20 17 12 3 9 10 13 13 14 17 16 13 9 4 6 12 18 16 14 15 15 15 16 25 35 41 42 46 57 50 47 40 39 39 34 30 28 30 29 28 27 26 26 24 24
18 15 22 21 20 17 12 15 18 10 16 17 17 18 16 14 9 8 11 15 15 18 20 15 13 14 15 11 12 15 28 41 34 44 45 42 42 37 34 31 31 32 30 28 27 27 26 25 28
24 20 22 27 30 27 16 16 21 16 16 20 13 17 12 8 10 9 12 14 15 15 16 15 14 10 11 10 11 10 9 24 52 53 50 45 43 37 34 32 34 34 31 31 28 28 26 26 28
25 27 29 28 30 26 20 24 20 22 22 23 19 17 14 6 10 10 13 15 13 13 15 16 12 8 12 10 13 15 6 26 39 52 49 48 43 38 34 35 37 36 34 32 30 28 25 25 23
24 24 30 31 31 27 29 21 23 25 26 24 23 21 17 9 10 12 13 14 15 13 14 17 10 10 13 12 16 15 13 18 24 40 38 40 41 41 37 36 38 37 36 34 31 26 21 17 17
27 30 27 29 29 29 25 23 25 28 26 26 23 21 17 12 13 13 15 17 13 9 12 11 9 11 10 16 20 16 16 22 27 29 38 39 39 40 37 39 38 39 36 34 31 25 24 19 16
27 25 24 22 28 25 28 23 22 28 31 30 22 17 14 13 14 15 15 15 15 14 11 11 9 10 12 11 14 16 18 26 34 36 37 35 37 40 38 41 37 37 35 33 30 24 23 21 18
25 23 19 18 23 27 27 24 21 28 28 11 12 12 23 18 17 15 14 13 13 15 13 11 14 11 11 13 13 15 21 22 37 38 36 35 34 42 39 40 37 34 29 29 27 25 24 21 18
18 21 25 26 22 26 24 22 18 25 18 10 14 17 19 20 19 17 14 13 13 16 13 16 13 13 12 12 16 15 19 29 36 38 35 41 39 39 39 39 35 35 32 30 28 28 24 23 20
19 19 19 21 21 24 25 21 16 24 24 17 20 21 19 11 24 22 18 14 17 16 15 13 14 14 14 14 14 18 20 26 34 40 40 45 44 42 44 39 34 35 36 32 29 27 24 22 21
22 24 19 23 29 27 24 22 16 18 20 17 18 20 18 17 15 22 20 18 17 14 15 15 16 16 14 13 11 14 22 31 34 41 44 45 45 45 44 43 37 32 33 33 25 27 26 21 20
23 21 23 23 26 26 29 23 17 16 18 19 20 21 21 16 22 23 23 18 19 13 14 16 17 14 13 9 11 14 17 27 40 41 45 49 49 47 50 47 40 37 28 26 29 28 27 21 21
20 23 19 22 25 31 29 25 22 18 19 24 27 23 22 13 21 25 25 21 21 16 18 19 18 15 10 10 7 11 12 17 32 42 49 55 55 51 52 49 41 39 37 31 33 31 30 25 24
20 19 21 20 18 16 23 18 20 15 21 22 28 27 26 16 15 27 26 23 22 18 20 18 21 16 13 9 7 4 14 20 31 42 44 54 55 52 51 47 39 43 37 34 33 32 27 26 27
20 14 16 20 20 18 25 15 15 18 14 14 13 18 23 26 25 30 28 24 21 20 20 19 18 18 16 13 12 13 22 26 29 33 48 51 50 53 51 47 42 42 33 34 34 27 33 25 23
19 13 19 17 15 16 19 19 17 15 17 19 17 21 19 20 22 26 25 23 22 22 19 22 21 19 18 18 17 20 14 25 28 31 37 41 47 47 50 45 44 36 34 33 31 30 28 31 27
16 11 10 12 13 15 18 19 14 16 19 18 14 8 9 4 19 23 27 27 25 26 24 22 22 21 20 23 22 22 21 21 23 24 28 35 39 42 46 44 42 39 40 29 33 32 28 29 26
19 15 8 10 11 7 18 8 15 19 16 14 7 6 12 18 18 24 29 29 27 28 26 25 25 21 22 27 26 22 22 21 20 24 26 30 34 39 45 48 47 40 32 33 37 31 29 26 27
22 18 19 18 18 12 9 20 21 8 1 8 11 10 9 16 24 24 28 29 28 26 24 25 24 22 22 28 26 26 25 23 23 26 27 34 37 40 41 44 44 36 36 37 33 28 26 26 29
22 14 11 10 10 10 12 16 8 8 10 4 12 8 17 19 23 24 27 30 28 25 24 24 23 20 24 26 27 25 25 21 22 28 28 29 32 37 33 40 40 39 39 35 40 36 36 36 38
12 16 15 14 15 12 9 8 7 6 18 7 8 13 9 15 24 25 27 31 28 27 28 24 24 25 22 30 28 25 23 22 21 29 31 26 26 29 34 38 40 41 40 41 43 44 41 39 39
7 13 18 11 15 10 13 15 12 12 15 7 7 14 14 10 1 23 26 32 31 30 30 29 29 28 25 26 31 28 27 24 23 21 28 30 29 29 30 30 34 39 38 42 42 39 38 35 34

GFSSGP_850_spd_108.txt.gz
Wind_Speed
2 2 3 4 3 4 4 6 4 2 2 6 8 7 6 4 3 4 16 12 8 4 6 3 2 10 17 19 19 20 21 21 22 22 21 22 23 23 21 18 19 19 18 19 19 22 23 21 19
4 5 3 1 3 2 5 5 5 7 10 12 8 7 4 3 7 11 18 13 6 5 7 5 1 7 15 19 21 22 23 22 19 20 22 23 22 21 19 19 18 19 19 19 20 21 23 21 19
5 5 2 3 3 5 5 3 4 5 16 9 6 4 6 9 11 12 11 9 5 3 4 4 4 5 13 19 21 21 22 22 21 19 22 22 21 19 17 17 19 19 19 21 21 21 21 21 22
5 3 2 2 9 8 5 7 9 6 6 8 11 4 6 8 14 13 14 11 5 5 6 5 5 7 10 15 21 24 25 23 22 22 22 21 23 22 19 16 17 19 19 20 23 24 25 26 28
7 2 1 3 8 7 7 11 24 9 6 9 12 5 9 18 11 15 14 10 8 7 7 7 7 9 11 12 16 23 26 27 27 32 30 24 19 22 20 17 17 18 18 20 27 29 30 30 28
4 2 2 4 8 7 9 21 19 8 8 8 7 7 3 12 17 16 17 15 10 9 10 11 12 13 14 15 16 19 24 27 30 34 36 12 28 18 18 17 17 19 18 25 30 32 34 33 30
5 4 4 5 7 13 9 15 5 6 3 4 2 4 9 18 15 17 21 19 15 12 14 15 15 15 17 18 20 21 22 26 31 34 32 34 34 17 24 22 17 18 19 30 33 38 36 31 28
7 5 3 6 4 13 3 17 12 7 7 3 8 5 7 22 23 23 25 22 14 14 15 15 15 16 17 19 23 24 25 27 32 35 36 37 28 28 22 26 25 21 24 31 35 37 35 30 25
7 2 5 10 8 12 17 6 18 23 11 13 12 13 18 16 29 28 26 21 17 16 15 14 14 13 15 18 21 26 30 30 33 38 42 33 30 40 28 30 29 26 30 34 37 37 34 30 25
7 5 9 5 7 12 20 10 27 8 10 14 17 18 13 15 32 32 29 24 20 17 17 16 16 15 16 17 21 26 31 34 34 38 41 37 40 37 28 37 30 29 33 38 39 38 34 28 23
6 10 5 12 23 24 23 14 29 8 6 15 13 13 10 21 31 34 29 22 19 15 16 18 18 17 17 18 19 23 25 27 31 38 41 45 39 34 40 41 32 32 36 38 41 40 36 29 25
8 17 12 15 28 23 15 32 12 23 21 26 24 20 10 20 29 33 28 24 21 18 18 19 19 16 18 18 16 18 23 22 23 33 41 48 43 41 40 42 38 38 40 41 41 42 37 32 27
13 13 24 26 24 20 20 12 17 19 29 30 27 29 22 20 24 30 26 24 22 24 22 22 20 17 17 16 16 18 18 23 29 37 46 48 51 45 45 46 39 38 39 40 43 40 38 35 24
14 15 14 12 10 12 14 15 11 19 28 28 27 31 33 31 26 30 32 29 31 27 25 21 19 16 16 14 17 17 15 19 20 29 45 54 45 44 44 46 41 43 42 41 40 39 40 38 26
7 7 8 3 4 5 18 17 7 19 22 21 27 38 42 38 30 33 35 33 31 23 20 20 18 14 14 13 16 15 14 15 23 30 43 48 52 47 53 46 42 42 41 40 40 39 39 35 28
5 6 7 4 3 5 5 24 8 19 20 26 29 36 37 43 38 36 33 31 27 23 25 21 18 13 11 13 14 17 15 12 12 34 47 48 51 45 48 47 44 43 41 41 40 41 39 33 31
3 11 10 9 8 7 8 21 4 24 24 22 27 35 39 44 35 35 38 33 30 26 25 21 17 11 13 15 13 17 13 12 19 28 48 49 45 52 52 46 46 46 43 41 41 43 40 31 27
7 7 5 8 4 4 8 16 8 17 17 19 30 32 37 27 29 39 37 34 31 27 23 19 16 13 14 15 15 15 15 18 25 29 43 48 50 50 49 47 48 47 45 43 41 40 37 33 28
4 5 12 8 14 4 11 12 12 10 19 21 30 29 31 34 34 32 39 37 32 27 25 20 18 17 19 19 19 18 17 24 34 37 45 45 46 47 45 47 49 49 46 45 43 39 34 30 26
10 13 17 14 13 8 14 16 18 8 12 24 32 32 28 31 20 29 42 39 34 30 25 22 19 19 20 20 20 22 22 23 32 40 44 45 46 47 45 45 48 50 48 46 44 41 38 34 30
14 12 12 16 7 6 5 16 10 10 12 24 32 31 35 29 25 36 44 42 36 31 27 23 21 21 21 21 22 24 25 27 30 37 44 48 51 48 48 44 48 50 50 51 47 43 40 40 33
19 6 13 10 6 12 7 14 15 14 16 12 22 27 30 17 26 36 47 43 37 33 27 22 22 22 21 22 25 25 28 33 32 35 44 52 49 51 50 49 47 51 52 50 49 46 43 42 37
18 8 12 12 6 1 4 3 19 5 18 18 14 25 32 29 22 38 51 48 41 33 28 24 24 23 22 23 22 22 24 27 35 39 38 53 54 54 54 53 52 51 49 49 49 49 45 40 40
4 5 3 2 2 8 5 6 21 5 10 14 17 28 30 31 24 38 45 48 40 33 28 25 25 24 24 22 22 21 19 17 25 27 46 34 58 59 57 56 52 50 50 48 46 44 45 43 36
6 4 3 3 2 13 5 8 17 9 15 12 17 26 34 36 27 36 44 47 40 36 31 28 26 25 25 22 21 19 14 14 15 17 29 44 40 55 58 52 51 50 48 46 48 47 41 30 33
8 9 7 5 8 12 4 6 6 4 7 14 19 32 34 35 27 44 49 50 43 37 33 30 27 25 25 24 23 18 15 10 14 13 24 29 42 53 54 53 49 50 47 45 44 43 38 37 35
5 5 11 6 3 5 5 14 11 18 7 12 16 26 38 14 24 42 46 45 42 38 34 30 27 25 23 24 25 24 18 12 9 12 24 23 34 38 46 55 47 47 44 43 43 41 36 33 31
3 4 1 0 4 12 5 6 8 5 11 14 14 22 40 19 12 23 42 45 41 36 32 29 26 24 23 24 26 24 23 17 12 10 17 21 28 39 48 53 54 46 44 44 40 35 33 32 34
6 5 5 3 4 7 5 5 5 6 5 11 17 27 25 28 25 20 27 43 38 33 31 28 27 26 24 26 27 26 25 23 18 14 13 16 25 34 39 43 49 54 48 33 41 43 40 35 34
1 2 4 2 6 4 5 11 7 5 6 10 14 33 27 20 26 11 22 23 38 33 32 29 28 28 24 24 27 30 26 26 23 20 18 18 18 22 26 36 32 34 39 38 38 36 35 33 33

GFSSGP_850_spd_111.txt.gz
Wind_Speed
5 4 0 2 3 4 3 6 3 3 2 6 8 5 7 5 5 4 21 15 10 7 5 4 4 10 17 20 20 20 19 18 18 21 24 27 27 24 25 24 23 23 22 22 22 21 21 18 16
5 3 0 3 4 2 5 4 5 7 7 9 7 10 5 3 7 8 21 18 11 8 5 3 4 10 16 20 20 20 22 21 20 20 23 27 26 26 25 23 22 21 21 21 20 21 20 18 16
6 4 1 4 3 5 5 4 2 13 14 4 2 4 8 4 10 6 13 13 12 9 5 3 4 9 15 19 20 21 22 21 20 22 23 24 23 22 22 22 22 20 19 19 20 22 22 19 18
5 4 3 3 7 7 5 4 4 11 18 17 10 2 4 11 7 11 13 14 11 9 5 5 6 8 13 18 20 21 21 21 22 23 23 23 23 21 20 19 18 19 19 20 22 23 22 20 20
6 2 1 2 6 5 5 9 16 8 6 12 11 3 4 12 13 13 14 14 13 11 8 8 8 10 12 14 18 20 21 22 23 23 26 28 23 16 18 18 19 19 20 21 23 25 23 23 22
3 3 3 5 6 5 4 13 12 7 15 10 5 4 5 16 17 18 16 16 16 13 10 11 12 12 14 15 17 19 21 24 26 27 27 28 30 24 10 13 20 19 20 22 24 26 27 27 25
6 4 5 5 5 8 3 7 4 7 2 8 6 6 5 17 19 21 20 20 19 17 13 12 14 15 16 17 18 19 20 23 26 27 30 26 25 18 14 21 22 19 19 23 27 28 30 29 25
6 4 5 5 3 11 6 7 7 13 11 22 8 5 5 16 23 25 25 23 21 18 15 15 17 17 17 18 20 22 23 23 27 31 33 37 28 30 27 25 21 16 20 29 32 31 31 27 22
7 3 4 6 7 8 7 7 18 17 14 16 8 9 12 11 25 28 28 26 24 22 18 18 19 19 17 18 19 21 22 28 30 34 38 37 31 28 25 27 22 18 24 32 34 35 32 27 20
6 5 10 7 6 9 11 8 27 10 22 22 31 22 20 14 25 32 33 31 29 27 23 21 21 21 18 18 18 18 22 29 34 37 39 38 36 36 28 31 26 24 28 34 37 36 32 26 21
7 7 6 7 15 17 19 6 23 8 9 24 26 32 19 15 21 31 35 34 31 27 25 23 23 23 21 19 19 20 24 31 35 40 40 41 42 35 33 35 32 27 31 39 40 37 31 26 23
5 6 6 5 21 19 7 25 6 21 20 25 28 29 19 17 22 29 37 36 33 30 28 25 26 26 23 21 21 21 23 28 34 38 39 46 45 37 42 40 39 34 33 41 42 38 32 27 23
6 6 18 23 28 28 28 15 17 17 29 23 28 21 18 19 21 27 31 35 34 32 31 29 28 28 24 22 21 22 22 25 28 31 37 41 48 48 47 43 47 37 37 43 44 38 33 29 27
7 6 10 12 16 14 10 15 9 15 26 25 19 16 16 13 20 28 33 38 38 34 36 31 29 27 24 22 21 21 21 21 21 26 32 39 47 48 45 45 47 39 39 45 45 40 33 29 26
5 5 5 6 10 7 6 19 9 23 15 15 19 22 27 26 26 26 34 38 40 39 39 31 30 27 23 20 19 20 21 21 21 26 33 40 55 57 46 47 46 41 39 44 45 40 34 31 26
2 2 4 4 6 5 6 33 1 18 19 20 25 28 29 33 34 35 30 38 42 41 40 33 31 26 19 17 17 20 19 22 21 29 35 50 47 56 52 55 50 42 42 44 46 43 38 33 27
1 9 6 4 6 5 7 19 2 11 29 21 24 28 32 38 40 35 31 35 41 43 40 35 30 22 17 15 17 18 17 19 20 25 32 33 38 58 58 53 47 42 43 45 46 46 42 37 30
6 6 5 4 4 3 6 19 9 19 25 22 25 31 37 38 46 36 35 28 42 43 36 35 26 20 17 16 17 15 17 15 15 12 30 33 36 48 44 41 41 39 42 45 48 45 43 39 33
2 4 7 2 4 5 16 17 14 15 19 16 26 31 37 37 45 35 33 26 37 41 38 33 26 22 19 20 22 19 17 14 13 11 28 34 46 39 40 38 39 41 46 47 46 45 46 38 32
6 8 13 9 10 6 11 20 17 7 9 19 22 31 35 38 38 31 33 31 34 42 39 33 26 22 20 20 22 20 17 17 18 20 31 38 40 42 45 42 43 44 46 46 48 48 48 39 35
7 9 4 12 6 5 8 19 12 7 7 16 24 31 34 38 31 30 30 31 38 45 42 34 27 22 21 23 23 21 19 20 23 25 37 38 40 37 41 43 44 45 48 49 49 50 51 46 37
13 8 13 11 3 9 6 15 20 6 9 6 15 27 32 31 17 20 25 31 39 47 39 32 26 23 23 27 26 23 25 25 30 31 33 40 40 42 42 42 44 47 50 51 51 49 49 46 42
11 8 9 11 8 2 5 2 16 8 16 13 10 21 25 19 17 20 23 29 41 46 41 34 27 25 27 30 28 26 27 26 27 30 36 43 42 44 45 45 46 48 52 53 52 52 49 44 42
3 2 3 1 1 6 6 6 23 4 9 7 10 26 24 25 25 25 27 29 39 46 40 34 29 27 30 29 29 28 28 29 30 28 35 42 45 47 48 49 50 46 50 54 53 53 48 43 42
4 5 2 3 2 11 5 4 15 8 9 8 8 19 24 30 36 26 31 33 39 49 43 36 31 31 31 31 29 26 24 25 28 34 37 35 44 44 54 55 52 50 49 52 52 51 48 43 42
5 8 5 6 5 7 4 6 5 4 3 12 15 15 26 38 40 43 29 36 41 49 46 39 33 33 32 30 28 25 23 21 20 25 32 36 45 39 54 58 55 53 52 51 49 47 49 47 44
2 4 4 4 4 3 5 7 6 4 7 7 12 20 23 34 38 42 21 34 39 49 47 42 35 33 31 30 26 25 21 18 17 18 20 21 30 38 38 56 53 54 52 49 47 46 46 46 45
4 3 2 3 3 6 5 3 5 7 5 8 12 15 25 41 48 41 19 23 33 44 45 40 33 30 30 28 25 24 22 18 13 12 13 21 22 28 37 49 53 54 50 49 45 45 40 40 40
4 3 4 1 1 3 4 5 2 2 1 7 10 19 30 43 44 41 33 22 28 37 40 37 33 30 28 27 25 25 23 20 14 11 9 14 23 27 38 45 43 51 45 45 43 39 41 39 31
4 4 3 3 4 2 3 5 5 12 2 3 2 12 27 38 46 41 43 22 23 26 31 32 33 30 28 25 25 25 23 23 17 13 9 7 12 18 23 34 39 41 46 41 42 40 40 25 25

GFSSGP_850_spd_114.txt.gz
Wind_Speed
7 4 2 1 3 4 3 5 2 4 3 2 4 4 7 4 6 5 19 16 13 11 10 9 5 8 13 19 19 18 18 19 22 25 25 25 24 25 24 24 24 23 24 23 21 21 19 19 16
6 5 1 2 4 2 5 4 4 5 7 10 2 3 2 3 5 5 24 16 11 11 9 7 7 11 15 19 19 18 19 19 21 25 26 26 25 25 24 24 23 23 22 21 22 20 18 17 15
7 4 0 4 3 5 5 5 4 5 7 2 3 4 3 3 9 4 15 16 14 11 9 7 7 11 16 19 20 19 19 19 20 23 27 26 24 23 21 20 19 20 19 19 21 21 20 17 15
5 3 4 3 6 6 5 2 4 10 12 0 5 5 4 7 4 10 14 17 14 10 10 9 9 12 16 19 19 19 19 20 20 21 23 24 25 26 23 22 21 19 17 18 21 22 20 19 18
7 3 2 2 6 5 6 6 4 6 6 13 8 6 5 8 12 10 15 14 14 13 13 12 12 12 14 18 19 20 20 21 22 25 24 23 22 23 23 22 17 17 16 18 20 23 21 20 18
4 3 2 5 6 4 5 11 4 3 9 12 6 4 7 10 14 14 14 15 17 15 15 14 14 15 15 18 20 20 21 22 23 22 30 27 20 22 17 13 14 13 15 19 22 22 22 21 20
7 5 5 4 5 5 5 7 4 3 4 4 13 3 8 17 16 15 19 23 21 18 16 14 15 17 17 18 20 20 21 23 23 27 28 22 31 30 24 12 14 13 17 20 21 24 23 22 21
6 4 6 6 4 7 3 3 4 10 5 10 10 3 6 11 18 20 22 25 23 21 19 17 16 18 19 21 21 21 22 23 23 28 29 32 32 33 29 22 21 16 19 22 24 25 23 23 21
7 3 5 7 7 6 4 5 3 11 10 15 6 17 26 22 12 23 25 29 28 27 24 20 19 20 20 22 21 22 24 24 25 29 30 33 35 37 31 25 19 19 20 22 27 27 26 23 20
5 5 11 7 6 6 3 5 23 8 14 22 29 24 22 20 18 19 27 31 31 30 29 25 23 22 21 22 22 23 25 28 29 32 32 36 40 41 29 26 31 27 24 26 30 30 28 26 22
6 6 5 7 16 14 5 4 20 5 6 17 28 25 27 25 19 19 24 30 32 33 32 30 26 23 22 23 23 22 24 28 32 34 34 41 40 36 29 28 31 31 28 29 34 33 32 28 23
5 9 11 8 21 8 6 9 5 17 19 24 23 29 25 22 18 21 26 27 32 37 35 33 28 26 24 24 26 24 25 29 32 36 38 43 41 36 36 32 34 33 30 34 38 37 33 27 22
5 4 13 20 22 25 23 17 18 11 21 24 22 24 23 16 16 18 24 29 36 39 39 37 33 30 27 27 28 27 26 30 33 34 41 41 43 42 40 34 36 37 32 34 40 39 34 28 25
4 7 8 11 16 17 9 10 7 15 25 24 23 20 14 14 12 12 20 25 33 37 41 42 38 33 30 30 29 28 28 28 30 34 37 38 44 48 46 38 41 40 36 36 42 40 35 29 26
7 5 5 6 7 7 9 7 9 27 24 14 12 15 19 22 19 19 22 24 28 34 43 45 43 35 32 30 28 26 27 25 26 29 32 36 40 52 50 43 46 44 39 38 44 39 33 28 27
2 1 2 3 5 6 11 15 3 11 10 17 25 26 22 25 28 30 28 30 29 32 37 46 46 36 32 29 26 24 24 22 23 24 26 30 35 49 54 47 50 47 42 39 44 41 34 30 29
2 7 7 4 5 2 7 13 5 7 26 20 24 27 27 30 33 34 32 32 30 32 33 39 46 36 33 26 24 22 21 23 24 26 27 29 32 46 45 53 53 45 42 41 46 43 37 33 29
6 5 4 4 2 2 6 14 8 20 18 22 28 27 28 31 36 37 30 34 28 30 27 33 40 35 31 24 24 21 22 24 24 28 26 28 35 43 57 49 55 50 44 41 46 46 39 33 29
1 4 5 1 3 6 14 19 10 11 13 15 24 26 27 35 34 40 35 35 23 27 20 27 36 35 32 29 24 23 24 25 25 22 21 19 26 46 51 53 48 53 45 42 46 47 42 36 31
5 5 13 4 6 6 8 18 11 9 7 18 20 22 28 32 40 38 33 24 21 23 21 26 34 36 33 27 23 23 23 22 20 17 16 15 20 34 53 51 50 52 45 42 46 50 46 39 33
6 8 4 9 2 5 5 11 4 5 4 13 17 19 25 33 35 34 30 25 21 23 24 29 37 35 32 24 23 22 20 19 19 16 15 20 26 31 37 42 43 47 45 42 45 49 49 45 37
14 10 11 10 3 4 3 9 5 5 2 3 16 25 23 20 26 28 31 30 24 23 23 31 35 35 29 25 26 25 26 26 24 22 18 23 28 35 30 34 34 39 39 41 45 49 49 48 43
6 7 8 5 5 2 4 3 4 7 9 6 7 14 16 20 23 26 29 28 27 23 24 30 37 33 28 28 28 25 25 23 23 22 24 25 28 32 34 33 35 34 38 39 44 49 51 49 47
3 4 3 2 3 3 8 6 14 2 4 3 4 15 15 20 25 25 30 23 20 25 22 31 39 34 29 30 29 26 25 25 23 26 28 31 32 33 33 37 36 37 36 40 44 48 50 49 49
3 5 1 2 1 5 6 5 14 7 6 1 3 9 16 19 29 37 29 32 22 25 25 33 41 36 32 31 30 28 26 24 25 25 27 30 35 36 36 41 41 44 41 41 44 49 50 49 50
6 8 5 5 4 2 1 5 5 2 4 7 10 18 19 26 30 33 35 34 26 23 26 33 42 37 33 32 29 28 27 27 28 28 27 30 34 39 40 44 42 43 43 41 45 47 48 47 46
4 4 3 3 1 2 4 5 5 5 8 9 15 20 24 31 34 30 34 36 32 26 26 32 42 39 33 32 28 27 26 25 25 26 29 33 34 36 44 44 44 47 46 45 43 46 49 46 45
2 2 3 2 3 5 3 2 1 9 8 8 9 12 21 33 35 29 33 42 38 27 23 26 38 37 31 31 27 28 26 24 21 19 19 23 28 33 39 43 44 54 52 52 50 47 49 48 49
1 2 4 4 2 1 2 3 4 5 5 8 9 16 23 31 35 31 36 44 41 22 22 24 35 33 27 28 25 28 26 23 19 16 15 20 22 22 23 33 46 52 59 54 51 45 45 51 50
3 3 3 3 3 2 1 5 5 4 5 9 15 20 19 21 26 32 39 45 29 20 21 24 33 30 27 26 23 26 25 23 20 15 11 11 14 14 13 23 29 41 49 53 52 46 47 41 38

GFSSGP_850_spd_117.txt.gz
Wind_Speed
6 6 5 2 2 1 2 3 2 2 1 2 6 5 7 3 5 2 9 17 14 9 7 6 4 2 9 12 14 16 17 19 22 22 22 22 22 22 24 23 22 21 20 21 21 21 19 18 17
8 9 4 4 2 2 2 2 4 4 3 5 6 4 4 2 5 4 13 16 13 10 8 6 5 4 10 14 15 16 16 17 21 21 21 22 23 25 25 24 23 21 21 21 20 18 18 17 16
9 9 4 3 3 4 3 5 5 3 10 4 3 3 2 3 6 4 10 14 12 12 9 7 5 4 11 15 17 16 16 17 20 22 22 23 23 24 24 23 23 21 21 18 19 15 16 16 16
8 5 4 3 9 5 4 3 3 6 1 4 3 3 4 5 2 7 12 14 15 13 11 8 6 5 11 15 18 17 18 19 20 21 24 23 21 20 20 16 17 17 16 16 17 17 16 16 16
8 2 2 3 5 4 6 6 5 5 4 2 4 4 5 5 10 8 15 14 15 15 14 12 8 6 10 15 18 18 18 21 21 21 24 24 23 15 20 12 13 14 14 15 16 18 16 17 16
3 2 2 7 8 4 5 9 4 2 4 4 5 2 5 10 9 12 14 17 18 19 18 16 13 10 11 15 19 20 20 21 20 22 28 22 25 29 26 21 18 15 14 14 16 16 15 18 17
4 3 4 5 5 4 5 7 4 3 2 4 6 3 3 6 11 14 17 18 23 21 19 18 17 15 15 16 18 21 22 21 21 25 31 24 28 25 25 29 27 20 15 14 17 18 18 20 19
5 3 4 4 9 7 4 6 10 2 1 4 11 1 4 17 12 13 18 20 24 23 23 23 21 19 19 19 20 21 23 21 23 28 28 28 33 24 28 33 24 19 13 14 18 20 20 20 18
8 4 8 9 7 4 4 3 5 3 2 7 3 8 12 12 9 13 22 23 26 28 27 26 24 23 21 21 21 22 23 23 23 27 28 30 30 30 31 33 26 15 18 18 19 21 21 21 19
6 6 11 8 8 6 4 3 7 4 8 9 12 13 14 16 16 14 15 28 27 31 31 30 28 26 24 23 23 24 25 26 26 29 32 32 30 35 37 33 20 15 14 20 19 22 22 22 22
7 11 6 7 16 9 4 7 6 10 12 11 18 23 18 19 17 15 15 20 27 28 32 33 32 28 26 26 25 27 26 28 28 30 33 31 33 36 35 32 24 22 21 25 22 25 27 28 26
6 9 14 8 14 9 9 9 11 13 13 23 19 19 21 20 19 17 16 19 28 32 32 33 34 31 30 28 28 27 28 28 30 32 34 35 38 37 39 33 28 28 28 30 28 32 33 29 24
7 7 11 16 17 14 15 17 16 14 22 21 17 17 21 23 18 12 12 14 20 26 29 34 36 35 34 30 30 30 29 29 30 32 35 38 41 40 43 35 33 33 33 33 32 35 34 30 24
3 7 17 13 16 19 17 19 9 12 18 16 19 21 18 12 12 11 12 12 16 20 24 26 34 40 38 34 31 31 30 30 29 30 33 36 40 41 44 39 35 34 33 35 35 36 35 30 24
6 8 9 8 8 8 10 11 11 25 20 14 6 7 13 17 15 15 18 20 19 24 25 28 27 39 42 39 34 32 31 30 31 28 33 34 38 43 47 43 42 40 37 36 38 38 35 31 24
3 3 5 4 9 8 11 15 8 5 3 7 15 16 16 18 18 18 21 25 24 27 28 27 29 33 41 42 36 34 32 32 31 29 31 35 35 37 41 47 47 43 41 37 40 37 37 32 28
4 11 10 3 7 2 11 5 7 6 8 17 19 20 21 19 19 21 24 23 25 25 28 30 30 31 35 41 36 34 31 31 29 25 27 31 35 36 39 46 54 46 46 41 42 43 40 35 31
11 9 6 8 2 3 11 12 8 17 15 15 17 22 21 18 20 23 26 24 26 28 28 28 29 27 29 36 36 34 32 29 26 24 26 27 32 34 37 42 56 48 48 46 46 45 42 36 33
9 8 8 3 3 6 16 19 14 17 13 17 19 18 16 17 20 23 25 25 25 25 23 25 25 28 30 37 38 34 33 28 26 27 27 29 30 33 42 47 45 49 51 48 46 47 44 38 34
15 17 17 8 11 7 13 18 11 14 11 15 13 12 15 16 18 22 27 27 27 23 23 20 21 26 29 37 37 33 27 26 24 26 26 26 28 31 35 47 56 51 53 50 47 49 47 40 38
16 18 15 13 2 6 8 13 6 3 5 4 9 12 12 10 16 23 29 27 26 24 20 16 19 24 31 36 33 29 24 21 22 24 24 24 24 22 28 42 53 48 49 52 46 52 52 47 40
17 12 16 12 5 6 2 7 3 3 5 4 6 5 7 12 18 23 27 27 27 23 21 16 17 22 33 35 32 28 24 23 26 24 22 17 20 19 23 38 51 42 49 50 47 50 53 49 45
13 8 14 12 11 2 7 5 4 4 2 1 3 7 7 10 17 23 30 27 28 21 18 15 15 23 35 35 30 26 21 20 22 20 20 17 20 21 19 32 37 44 47 50 46 49 52 50 47
7 5 3 3 4 6 12 10 4 5 5 2 3 7 9 13 21 27 26 29 29 22 16 14 16 25 34 34 31 26 22 22 23 20 22 20 22 26 27 27 34 42 47 48 44 46 50 51 47
7 7 4 4 5 5 8 9 1 6 3 3 5 10 13 17 24 28 25 29 32 27 16 15 18 26 34 34 31 25 22 22 22 20 24 22 25 26 32 28 28 25 37 44 42 43 47 50 49
14 13 5 8 7 4 2 6 5 8 10 7 6 9 13 19 23 26 24 26 29 29 21 14 20 26 32 34 30 25 23 24 22 23 23 28 24 31 25 31 33 34 31 31 34 40 44 46 48
6 8 11 6 2 2 4 2 7 8 10 14 18 16 16 19 22 25 27 24 32 30 23 15 19 26 30 33 29 26 25 24 25 24 22 24 27 26 28 31 34 41 44 42 40 38 42 45 47
1 4 4 2 7 8 6 4 5 7 9 11 14 17 18 19 19 21 24 26 30 29 19 12 15 23 28 32 28 26 25 24 24 23 25 28 26 27 30 32 33 40 44 49 52 45 42 44 46
3 1 3 4 1 5 5 3 8 6 6 10 12 16 15 17 18 20 22 29 33 27 23 14 13 21 27 30 28 25 23 23 22 22 21 21 25 28 33 32 34 39 44 46 48 45 44 47 47
3 1 3 4 5 1 1 4 11 4 6 10 14 19 17 13 15 18 19 29 36 37 25 24 15 21 29 29 28 26 24 23 22 21 20 18 20 22 23 27 32 39 40 51 47 44 47 45 49

GFSSGP_850_spd_120.txt.gz
Wind_Speed
6 6 4 3 6 5 8 6 1 6 6 4 4 5 3 5 2 4 3 11 14 10 5 6 4 2 2 6 9 12 14 14 15 18 18 19 19 19 19 20 19 19 17 18 19 19 17 17 15
7 7 3 4 7 9 7 5 9 5 2 3 6 9 6 2 3 1 8 10 13 10 7 6 4 5 3 5 9 12 13 13 14 18 19 20 20 20 20 20 19 18 16 17 18 17 16 17 15
10 9 7 4 7 11 6 9 9 3 1 8 8 8 4 3 5 3 6 11 13 11 10 9 7 6 4 7 11 13 13 13 14 18 20 20 20 19 20 20 19 18 15 16 16 15 15 15 14
7 5 6 8 14 6 5 9 8 1 3 6 5 6 5 6 4 6 7 11 13 12 11 10 8 6 6 9 12 14 14 13 15 19 19 20 21 20 16 16 13 14 15 14 13 13 12 13 13
7 5 9 11 15 8 8 4 4 4 0 5 7 9 6 4 7 4 8 13 16 15 14 13 11 9 9 11 14 16 15 15 16 19 19 20 23 25 13 19 14 5 12 12 13 12 12 13 14
10 6 9 13 17 8 9 9 8 7 2 2 7 6 9 4 3 6 10 17 19 19 18 15 13 11 12 14 15 17 18 18 18 19 19 22 27 26 22 19 15 11 17 13 12 13 14 16 15
15 10 16 17 16 10 10 8 11 10 7 5 1 7 6 5 2 5 12 20 21 23 21 19 17 15 14 15 17 18 19 19 18 19 20 24 27 22 23 24 13 18 21 16 15 15 15 18 16
15 10 18 13 16 19 7 8 7 12 9 2 1 5 8 4 3 2 6 17 21 24 24 23 21 19 17 18 19 20 20 19 19 21 22 25 27 23 26 25 16 21 23 16 15 18 16 18 16
12 10 16 19 16 14 6 10 10 6 7 3 6 7 7 6 4 4 7 15 21 25 27 27 25 23 21 20 20 21 21 20 20 23 25 28 25 27 26 24 23 23 20 18 14 17 16 18 16
15 15 22 18 15 9 6 9 10 7 11 13 14 13 10 9 7 6 8 13 19 24 28 30 29 28 24 24 22 23 24 23 24 26 27 33 25 25 26 22 26 25 21 20 21 18 17 19 18
14 22 16 10 18 17 16 15 17 16 17 17 16 14 11 10 11 10 10 14 16 17 19 28 31 31 28 27 26 25 26 24 23 24 25 32 26 26 26 23 30 26 21 21 22 20 18 20 17
16 17 21 16 17 18 17 21 19 21 21 17 17 17 15 13 13 12 13 12 13 15 18 21 29 32 31 31 29 28 26 27 26 26 28 29 32 27 26 26 34 32 25 27 26 20 17 21 19
19 19 21 18 22 23 23 23 23 25 16 21 22 20 18 16 16 15 13 13 12 15 17 20 23 28 33 34 33 32 31 28 29 30 30 31 32 30 30 36 38 33 27 26 27 21 22 23 24
12 14 18 21 21 22 20 23 26 21 17 18 19 18 19 18 14 11 11 12 11 12 14 16 20 23 28 35 37 35 34 32 29 28 30 34 35 35 37 39 37 37 29 27 27 24 24 24 22
17 18 18 19 20 16 17 21 23 24 23 22 19 16 11 11 13 14 13 14 15 16 17 18 20 23 27 30 37 38 37 34 33 31 31 35 36 38 41 42 42 38 36 30 28 27 25 25 23
12 17 17 15 18 24 19 20 7 8 6 11 9 10 12 14 14 14 15 15 17 19 20 20 21 25 27 29 30 40 39 37 36 32 32 34 37 38 37 42 40 43 40 36 33 28 27 26 24
18 18 19 16 9 12 17 13 6 7 9 11 11 13 14 14 12 13 12 13 15 17 20 22 25 29 30 29 28 32 37 38 37 33 31 32 33 37 34 41 37 47 43 39 38 34 30 30 24
18 18 17 19 15 16 18 18 14 11 14 14 17 17 16 14 12 10 11 12 13 15 19 26 29 31 28 25 29 34 39 40 36 35 32 30 31 33 35 36 40 45 42 45 42 37 31 29 28
19 19 19 17 9 13 18 18 13 13 20 19 19 18 15 12 9 9 10 11 13 15 15 19 25 27 24 27 33 40 43 40 38 35 28 30 30 29 31 36 37 43 47 49 47 43 36 31 31
22 22 24 19 9 13 19 23 21 14 18 19 18 14 10 7 7 9 12 15 15 18 16 14 15 18 22 26 34 36 38 37 35 31 27 28 29 28 30 37 37 47 51 55 51 49 39 34 34
21 22 18 18 14 15 17 21 21 14 16 12 10 7 2 2 5 9 14 15 15 17 16 13 11 16 19 22 27 27 33 34 32 30 27 28 27 28 33 36 40 45 55 56 55 53 45 37 36
19 16 16 16 10 14 11 10 8 9 9 11 7 5 4 0 5 8 13 15 16 18 16 9 9 14 17 24 28 31 32 35 32 26 25 26 27 28 31 35 37 47 59 55 58 54 48 41 40
16 11 10 15 15 18 16 8 11 7 15 10 7 5 3 2 5 9 12 14 15 19 19 10 8 12 16 25 25 26 23 19 19 22 19 24 25 24 24 29 30 39 53 51 52 56 47 45 42
19 13 10 11 11 15 17 14 10 15 17 8 9 7 4 4 7 10 13 14 16 17 19 16 9 11 17 24 27 23 20 18 16 18 19 23 21 17 18 14 26 36 52 49 53 54 50 42 40
13 12 8 9 10 16 11 11 14 9 7 7 7 5 4 6 8 13 16 18 18 20 18 18 13 12 18 26 31 26 22 18 18 17 19 19 20 17 20 19 21 38 44 48 49 54 50 47 41
17 17 10 12 14 16 10 9 7 10 10 9 5 2 4 7 9 13 16 17 18 20 21 17 14 14 18 22 30 31 26 21 18 18 18 20 22 20 20 22 23 35 41 39 49 50 46 48 46
15 16 20 15 9 8 8 8 8 10 10 8 7 5 6 9 11 13 14 15 19 21 21 18 11 13 18 20 29 32 27 20 18 18 19 18 18 20 22 25 28 23 29 32 43 45 46 46 46
13 12 14 10 17 21 18 17 9 16 10 7 8 9 9 10 12 13 13 14 18 21 21 12 11 14 17 21 28 33 28 22 21 21 21 21 19 20 22 29 28 30 28 30 41 42 42 43 44
5 8 5 9 15 16 16 13 14 16 8 4 6 10 11 12 12 11 11 15 18 18 18 18 12 16 15 21 25 30 26 22 22 26 23 22 21 20 21 27 26 34 34 37 43 44 39 42 44
8 5 3 4 14 11 8 4 13 11 4 4 6 10 10 13 12 10 10 13 17 17 18 19 16 16 17 19 21 27 24 21 21 24 23 23 20 20 23 27 27 29 31 35 44 45 45 45 41

GFSSGP_850_spd_123.txt.gz
Wind_Speed
7 4 3 8 8 8 16 14 5 5 6 4 4 3 4 6 5 4 5 7 9 10 4 3 3 1 2 4 7 7 8 10 10 12 11 13 14 14 14 14 15 14 14 15 15 14 15 16 15
5 7 8 12 8 14 13 12 8 8 7 5 6 8 6 3 3 3 7 8 11 10 5 4 2 2 1 3 6 7 8 8 9 11 14 14 15 15 14 14 15 14 13 15 15 15 13 14 13
10 9 13 7 14 15 14 7 9 10 6 10 10 11 12 6 6 4 6 12 12 11 8 6 6 3 3 4 6 8 9 9 10 12 15 15 16 15 15 13 13 13 11 15 16 16 14 14 11
8 9 12 10 19 16 8 6 7 4 8 13 13 9 10 2 9 5 9 13 13 12 10 7 8 4 3 6 7 9 9 9 10 12 14 16 17 16 17 15 9 7 15 10 11 11 13 12 11
13 13 13 16 20 20 4 8 10 10 6 8 13 15 6 10 6 7 11 13 13 12 12 10 10 7 5 7 9 11 11 10 11 13 14 16 17 19 20 17 13 21 15 13 8 11 11 12 12
14 14 14 16 21 19 5 10 9 12 4 12 9 16 10 10 8 8 12 14 14 14 14 13 12 10 9 9 11 12 12 12 12 13 15 17 20 20 21 15 10 15 7 13 11 13 12 13 13
19 14 18 21 19 19 10 11 13 16 15 11 9 11 17 10 7 7 11 14 15 15 17 17 15 14 12 11 12 14 14 14 13 13 15 18 21 21 23 16 16 12 13 11 14 17 15 14 16
22 15 26 21 18 22 16 10 13 19 19 12 7 8 13 7 1 4 9 12 15 17 19 18 18 17 16 15 15 16 17 16 16 15 19 21 20 23 22 18 21 11 13 14 17 17 15 17 17
20 15 20 23 23 15 16 7 13 15 16 9 14 15 7 3 3 6 8 10 13 16 18 19 21 20 19 18 17 17 18 18 18 18 21 21 21 23 22 20 22 14 15 16 16 17 17 17 17
20 16 26 21 19 15 13 6 13 11 16 17 16 15 14 11 9 11 12 13 15 15 17 19 22 23 22 22 20 20 21 22 23 23 24 23 24 22 19 22 24 18 20 19 16 16 15 16 17
25 25 22 20 23 17 18 15 17 17 17 18 19 20 20 15 15 15 14 14 16 16 17 19 20 24 24 24 23 22 20 22 23 23 23 25 22 22 23 25 25 23 22 22 19 16 16 16 18
26 28 25 26 29 14 21 26 22 24 24 24 23 17 16 18 19 19 16 15 15 17 17 20 20 21 24 22 26 26 23 21 21 22 25 26 27 30 24 29 25 24 25 24 22 17 16 17 16
25 23 29 25 24 26 25 25 25 30 26 23 24 25 21 21 22 20 19 18 16 16 18 19 20 22 21 24 27 30 25 24 24 22 25 27 25 31 25 25 25 24 28 29 25 19 22 23 20
24 24 28 28 31 26 25 27 30 32 27 27 27 29 27 24 22 21 21 20 20 17 15 18 21 21 22 25 29 32 31 24 25 26 27 29 28 28 27 29 33 28 31 29 25 25 28 22 24
26 23 23 22 22 20 21 27 29 30 29 30 29 24 22 22 22 22 20 20 20 20 17 15 18 20 23 24 26 32 34 33 29 28 29 29 31 30 28 30 30 34 33 31 29 32 27 28 22
18 20 22 22 24 25 22 30 23 28 25 28 28 28 20 19 19 18 17 18 19 19 19 19 18 20 23 24 26 30 34 37 34 31 31 32 30 31 30 32 31 34 32 33 32 27 28 28 24
21 22 24 22 21 19 20 29 22 30 17 18 15 17 21 18 18 17 18 18 18 19 19 20 21 22 26 25 26 29 30 37 40 33 28 33 31 33 31 30 31 34 37 28 29 31 30 27 24
19 22 22 23 19 17 19 26 17 18 16 15 19 19 16 17 17 15 12 10 11 14 17 20 23 24 26 26 26 27 31 30 40 42 29 28 29 35 34 34 34 34 43 37 37 33 29 27 28
24 24 24 22 14 15 22 18 19 20 22 20 21 18 19 19 17 16 10 10 10 12 14 18 20 24 26 26 27 31 33 37 34 39 35 31 32 30 32 32 34 35 39 39 39 43 36 32 31
25 24 26 25 21 17 18 22 20 21 17 19 24 22 21 17 12 11 7 8 9 10 12 15 18 18 21 25 26 28 35 41 37 37 36 34 31 31 27 33 36 35 33 37 39 39 43 37 35
24 25 23 24 19 15 20 24 24 26 26 26 23 22 15 10 10 7 7 6 6 7 9 11 13 15 18 21 23 30 33 35 35 39 38 35 34 29 26 28 33 40 37 46 40 42 50 42 40
21 20 23 22 17 18 22 21 23 21 20 20 24 17 12 13 8 5 4 5 6 8 10 9 9 12 16 19 23 30 33 34 34 36 36 33 29 25 27 27 31 37 40 40 42 45 50 44 41
22 16 14 13 16 19 24 16 17 12 15 12 15 15 13 8 5 2 3 5 6 9 10 10 7 9 13 16 22 23 30 24 19 22 25 34 28 25 25 28 32 35 43 36 54 48 54 50 44
20 23 19 15 15 16 27 22 19 15 18 18 14 14 11 9 5 1 3 6 7 10 12 11 10 8 15 15 26 23 31 21 24 22 26 22 24 27 29 29 31 32 37 37 55 47 59 59 45
15 14 11 10 12 20 20 20 17 10 15 19 16 12 8 6 3 1 4 7 9 10 12 12 11 9 10 14 19 27 26 25 22 22 19 20 26 28 29 28 26 24 26 37 47 49 63 58 47
20 17 12 15 13 16 24 16 16 22 7 12 14 10 7 5 2 1 4 7 10 11 13 13 12 10 10 11 17 27 25 23 20 19 20 20 22 22 21 21 22 15 16 26 45 52 57 62 50
12 15 20 22 20 10 10 16 6 9 14 11 13 11 5 4 3 3 5 7 9 13 15 15 11 9 13 14 14 27 28 23 21 17 21 19 20 19 20 19 19 17 14 24 43 50 58 54 57
7 14 10 8 6 19 15 14 8 17 15 13 11 7 4 1 3 5 6 7 11 14 15 14 13 11 11 13 15 20 25 29 19 18 21 21 18 18 17 19 18 18 17 21 38 45 45 56 50
1 11 13 11 10 12 15 13 16 18 16 13 10 4 0 5 7 9 9 9 10 12 14 15 15 15 13 11 14 18 23 26 25 21 20 21 18 19 19 18 16 18 21 23 32 42 43 47 47
6 5 2 6 17 14 16 8 16 20 14 11 9 2 3 7 11 13 11 11 10 12 14 16 17 17 17 14 12 19 23 27 29 27 23 19 19 19 20 17 17 23 20 28 29 33 46 53 44

GFSSGP_850_spd_126.txt.gz
Wind_Speed
7 5 2 8 6 7 14 19 22 5 2 6 6 6 11 12 13 5 12 13 13 11 7 4 4 3 2 0 3 5 8 10 10 9 8 8 8 8 8 7 7 8 8 9 11 13 13 15 14
7 4 9 10 9 11 14 21 15 3 10 12 3 3 6 3 11 13 12 13 14 9 7 8 6 2 2 2 4 6 7 9 9 10 9 9 9 9 8 9 8 6 3 6 10 11 13 14 14
11 9 11 5 12 14 17 17 6 16 13 9 5 8 7 7 11 11 16 18 14 11 12 10 5 3 1 2 4 6 7 7 7 8 10 10 10 11 10 11 12 7 7 9 7 10 13 12 11
8 8 11 10 19 20 23 19 3 10 6 5 11 7 10 7 14 8 16 17 17 14 12 11 8 5 3 3 4 7 7 6 6 7 9 10 10 12 15 12 6 10 7 9 6 9 11 11 9
10 12 11 14 20 21 21 25 7 5 4 10 14 14 11 13 12 11 14 17 18 18 14 12 10 8 5 4 5 6 7 7 7 8 10 11 11 14 14 15 0 4 4 2 11 8 11 10 10
12 12 13 15 20 23 20 21 6 5 11 8 8 12 9 16 12 13 14 16 16 19 16 13 12 10 8 7 7 7 8 8 7 8 9 11 14 14 15 18 5 5 5 6 13 16 11 11 11
17 12 19 21 19 23 21 8 11 13 16 10 10 10 17 14 17 16 14 16 17 18 17 14 14 12 11 10 9 10 9 10 9 9 10 11 14 13 15 18 11 7 4 5 13 11 9 11 12
23 13 24 20 18 25 23 30 12 14 17 19 21 9 10 13 9 16 13 14 19 19 20 16 15 15 14 13 12 12 12 12 12 11 12 14 14 14 16 20 12 13 5 13 12 12 11 11 13
24 15 17 24 24 22 28 20 7 9 15 18 13 17 4 8 7 9 15 17 18 19 21 19 18 18 17 16 15 15 15 16 15 15 16 15 16 17 19 20 16 19 10 13 11 11 11 11 14
20 17 25 22 22 21 25 19 7 12 16 22 15 16 18 6 8 13 15 19 21 21 23 20 20 19 19 19 19 19 18 19 20 20 20 19 18 19 21 22 20 22 15 12 11 12 12 12 18
28 25 22 26 30 27 25 26 13 14 14 16 20 19 21 22 17 14 15 17 26 23 20 20 21 22 21 21 22 22 22 22 23 23 23 22 20 20 20 21 22 23 18 16 16 16 16 17 20
27 31 31 28 30 31 23 26 24 21 20 21 20 17 21 25 25 18 16 18 18 23 23 21 21 22 22 24 25 23 24 24 25 25 24 23 24 24 24 26 24 24 24 22 20 20 21 19 17
26 26 35 32 31 29 30 24 24 28 28 25 25 26 28 19 16 14 18 21 20 20 20 25 23 24 24 23 26 26 26 25 24 24 25 26 25 27 28 26 27 27 27 26 26 24 23 21 19
27 30 29 32 32 31 24 24 25 32 29 33 31 28 24 27 23 20 21 25 22 21 19 18 22 25 25 24 24 25 27 28 27 25 24 25 29 27 31 31 28 26 25 23 28 26 23 20 24
28 27 24 24 27 23 24 27 29 31 33 36 35 32 30 28 27 30 28 28 24 25 28 25 23 26 26 27 25 28 27 27 28 27 28 28 28 30 28 28 30 28 29 28 24 23 18 21 24
26 22 19 20 24 27 24 29 23 32 34 35 35 33 31 30 26 26 26 25 26 23 26 24 23 23 27 26 28 28 27 28 29 29 28 33 30 33 31 29 29 29 30 29 28 30 27 26 25
18 20 26 28 23 20 23 30 23 32 31 28 31 33 30 31 23 22 23 21 22 24 18 17 18 14 24 24 28 28 27 30 33 30 31 35 34 32 32 33 31 30 32 31 32 30 24 30 29
19 20 22 24 21 21 21 20 21 17 29 25 21 20 17 15 22 26 23 17 18 15 14 16 18 21 15 24 29 29 30 29 30 35 33 39 35 34 32 32 31 31 28 30 31 26 29 24 36
25 25 28 25 21 20 10 18 24 22 21 19 15 15 19 19 17 20 16 17 10 10 12 17 23 25 28 26 28 32 32 34 34 33 38 28 31 31 33 34 33 31 31 29 35 26 30 30 26
25 26 27 23 22 18 10 22 22 24 23 20 24 22 24 19 17 23 20 12 6 8 10 16 18 21 25 26 31 32 32 31 37 34 28 37 29 29 29 35 35 32 33 33 30 36 34 36 33
21 24 23 25 23 17 13 24 24 23 27 30 33 32 21 21 20 16 13 5 6 8 10 11 15 18 21 23 23 27 29 32 34 34 30 31 39 35 32 33 32 33 35 36 34 36 40 41 41
24 19 23 21 18 15 15 18 21 18 20 21 30 34 21 13 8 12 9 7 6 9 5 11 10 11 14 20 23 29 35 36 39 37 31 31 35 30 30 29 30 32 36 38 40 37 36 41 47
25 20 20 17 17 18 21 14 18 16 24 26 23 38 23 17 13 8 6 3 4 4 8 7 11 6 11 15 24 22 32 34 37 33 32 34 34 36 34 30 28 31 35 32 36 36 40 40 51
19 17 20 19 13 14 22 16 22 16 20 9 13 7 19 20 13 7 6 4 3 2 4 6 11 13 14 21 21 19 28 25 27 24 27 30 33 29 29 26 27 29 31 34 38 38 45 46 52
25 16 11 6 10 17 9 13 23 14 19 11 10 18 19 18 13 7 6 3 2 4 8 10 7 12 18 17 13 24 24 22 25 24 25 24 23 30 30 28 31 31 31 32 34 41 50 50 49
17 8 12 21 13 16 14 13 20 21 18 5 17 27 19 15 11 8 5 1 2 4 8 11 12 7 12 16 13 17 26 24 30 22 27 26 26 26 28 30 31 32 31 32 32 42 46 47 53
9 11 13 18 21 13 10 20 15 10 11 10 17 22 17 15 9 8 3 3 2 6 10 11 12 10 8 17 14 15 22 29 29 23 22 21 22 20 21 26 32 30 28 25 24 30 37 50 58
14 13 7 6 4 13 15 19 4 10 11 16 13 12 13 11 7 4 2 2 3 6 9 15 14 12 13 11 15 14 20 31 29 26 23 20 24 21 22 20 24 24 24 20 19 27 37 49 44
4 7 8 7 6 8 12 12 12 4 12 10 15 15 11 9 6 0 2 5 6 6 9 12 14 17 16 17 16 16 17 26 31 26 23 22 22 24 21 20 21 21 19 21 19 30 36 41 46
7 8 2 2 6 9 13 14 6 9 17 16 12 9 9 1 2 3 6 7 8 9 9 8 11 14 20 19 18 18 19 19 29 32 26 25 24 24 23 21 19 19 18 23 22 28 34 39 46